<?xml version="1.0" encoding="UTF-8" standalone="no" ?>
<gpx xmlns="http://www.topografix.com/GPX/1/1" xmlns:xsi="http://www.w3.org/2001/XMLSchema-instance" xsi:schemaLocation="http://www.topografix.com/GPX/1/1 http://www.topografix.com/GPX/1/1/gpx.xsd" version="1.1" creator="VisuGPX - https://www.visugpx.com">
  <metadata>
    <name>Pravouta &amp; Bec Charvet</name>
    <desc><![CDATA[combe du Giclard
]]></desc>
  </metadata>
  <trk>
    <name><![CDATA[ACTIVE LOG- 22 FEV 2015 08-37]]></name>
    <trkseg>
      <trkpt lat="45.29651" lon="5.84524">
        <ele>1305.13</ele>
        <time>2015-02-22T07:37:35Z</time>
      </trkpt>
      <trkpt lat="45.29653" lon="5.8452">
        <ele>1302.24</ele>
        <time>2015-02-22T07:38:31Z</time>
      </trkpt>
      <trkpt lat="45.2965" lon="5.84521">
        <ele>1299.84</ele>
        <time>2015-02-22T07:38:56Z</time>
      </trkpt>
      <trkpt lat="45.29647" lon="5.84519">
        <ele>1298.88</ele>
        <time>2015-02-22T07:39:27Z</time>
      </trkpt>
      <trkpt lat="45.29646" lon="5.84519">
        <ele>1299.36</ele>
        <time>2015-02-22T07:39:45Z</time>
      </trkpt>
      <trkpt lat="45.29646" lon="5.84517">
        <ele>1296.48</ele>
        <time>2015-02-22T07:40:03Z</time>
      </trkpt>
      <trkpt lat="45.29648" lon="5.84523">
        <ele>1295.51</ele>
        <time>2015-02-22T07:40:17Z</time>
      </trkpt>
      <trkpt lat="45.29644" lon="5.84517">
        <ele>1294.55</ele>
        <time>2015-02-22T07:40:39Z</time>
      </trkpt>
      <trkpt lat="45.29644" lon="5.84524">
        <ele>1295.03</ele>
        <time>2015-02-22T07:40:52Z</time>
      </trkpt>
      <trkpt lat="45.2964" lon="5.84518">
        <ele>1293.59</ele>
        <time>2015-02-22T07:41:05Z</time>
      </trkpt>
      <trkpt lat="45.29645" lon="5.84521">
        <ele>1293.59</ele>
        <time>2015-02-22T07:41:23Z</time>
      </trkpt>
      <trkpt lat="45.29646" lon="5.84524">
        <ele>1293.59</ele>
        <time>2015-02-22T07:41:42Z</time>
      </trkpt>
      <trkpt lat="45.29646" lon="5.84524">
        <ele>1293.11</ele>
        <time>2015-02-22T07:41:58Z</time>
      </trkpt>
      <trkpt lat="45.29646" lon="5.84524">
        <ele>1292.63</ele>
        <time>2015-02-22T07:42:16Z</time>
      </trkpt>
      <trkpt lat="45.29645" lon="5.84524">
        <ele>1290.71</ele>
        <time>2015-02-22T07:42:34Z</time>
      </trkpt>
      <trkpt lat="45.29645" lon="5.84525">
        <ele>1290.23</ele>
        <time>2015-02-22T07:42:55Z</time>
      </trkpt>
      <trkpt lat="45.29645" lon="5.84522">
        <ele>1288.78</ele>
        <time>2015-02-22T07:43:14Z</time>
      </trkpt>
      <trkpt lat="45.29651" lon="5.84517">
        <ele>1289.27</ele>
        <time>2015-02-22T07:43:39Z</time>
      </trkpt>
      <trkpt lat="45.29652" lon="5.84516">
        <ele>1289.75</ele>
        <time>2015-02-22T07:43:40Z</time>
      </trkpt>
      <trkpt lat="45.29665" lon="5.84494">
        <ele>1289.75</ele>
        <time>2015-02-22T07:43:55Z</time>
      </trkpt>
      <trkpt lat="45.29685" lon="5.84476">
        <ele>1291.67</ele>
        <time>2015-02-22T07:44:15Z</time>
      </trkpt>
      <trkpt lat="45.29694" lon="5.84467">
        <ele>1292.63</ele>
        <time>2015-02-22T07:44:33Z</time>
      </trkpt>
      <trkpt lat="45.29697" lon="5.84464">
        <ele>1292.15</ele>
        <time>2015-02-22T07:44:48Z</time>
      </trkpt>
      <trkpt lat="45.2972" lon="5.84438">
        <ele>1295.03</ele>
        <time>2015-02-22T07:45:11Z</time>
      </trkpt>
      <trkpt lat="45.29743" lon="5.84414">
        <ele>1297.44</ele>
        <time>2015-02-22T07:45:34Z</time>
      </trkpt>
      <trkpt lat="45.29764" lon="5.844">
        <ele>1298.88</ele>
        <time>2015-02-22T07:45:58Z</time>
      </trkpt>
      <trkpt lat="45.29763" lon="5.84402">
        <ele>1298.4</ele>
        <time>2015-02-22T07:46:23Z</time>
      </trkpt>
      <trkpt lat="45.29763" lon="5.84403">
        <ele>1298.4</ele>
        <time>2015-02-22T07:46:27Z</time>
      </trkpt>
      <trkpt lat="45.29765" lon="5.84404">
        <ele>1297.92</ele>
        <time>2015-02-22T07:46:39Z</time>
      </trkpt>
      <trkpt lat="45.29766" lon="5.84405">
        <ele>1296.96</ele>
        <time>2015-02-22T07:47:36Z</time>
      </trkpt>
      <trkpt lat="45.29772" lon="5.84398">
        <ele>1296.96</ele>
        <time>2015-02-22T07:48:00Z</time>
      </trkpt>
      <trkpt lat="45.29776" lon="5.84394">
        <ele>1297.92</ele>
        <time>2015-02-22T07:48:10Z</time>
      </trkpt>
      <trkpt lat="45.29786" lon="5.84385">
        <ele>1299.36</ele>
        <time>2015-02-22T07:48:24Z</time>
      </trkpt>
      <trkpt lat="45.29797" lon="5.84374">
        <ele>1299.36</ele>
        <time>2015-02-22T07:48:38Z</time>
      </trkpt>
      <trkpt lat="45.29801" lon="5.84372">
        <ele>1300.32</ele>
        <time>2015-02-22T07:48:43Z</time>
      </trkpt>
      <trkpt lat="45.29822" lon="5.84354">
        <ele>1302.24</ele>
        <time>2015-02-22T07:49:04Z</time>
      </trkpt>
      <trkpt lat="45.29835" lon="5.84343">
        <ele>1303.2</ele>
        <time>2015-02-22T07:49:19Z</time>
      </trkpt>
      <trkpt lat="45.29836" lon="5.84342">
        <ele>1302.72</ele>
        <time>2015-02-22T07:49:20Z</time>
      </trkpt>
      <trkpt lat="45.29837" lon="5.84342">
        <ele>1303.2</ele>
        <time>2015-02-22T07:49:22Z</time>
      </trkpt>
      <trkpt lat="45.29846" lon="5.84335">
        <ele>1303.69</ele>
        <time>2015-02-22T07:49:32Z</time>
      </trkpt>
      <trkpt lat="45.2985" lon="5.84332">
        <ele>1304.17</ele>
        <time>2015-02-22T07:49:37Z</time>
      </trkpt>
      <trkpt lat="45.29861" lon="5.84321">
        <ele>1306.09</ele>
        <time>2015-02-22T07:49:51Z</time>
      </trkpt>
      <trkpt lat="45.29861" lon="5.8432">
        <ele>1306.09</ele>
        <time>2015-02-22T07:49:52Z</time>
      </trkpt>
      <trkpt lat="45.29866" lon="5.84316">
        <ele>1306.57</ele>
        <time>2015-02-22T07:49:58Z</time>
      </trkpt>
      <trkpt lat="45.2987" lon="5.84314">
        <ele>1306.57</ele>
        <time>2015-02-22T07:50:02Z</time>
      </trkpt>
      <trkpt lat="45.29881" lon="5.84301">
        <ele>1307.53</ele>
        <time>2015-02-22T07:50:17Z</time>
      </trkpt>
      <trkpt lat="45.29892" lon="5.84294">
        <ele>1308.49</ele>
        <time>2015-02-22T07:50:30Z</time>
      </trkpt>
      <trkpt lat="45.29902" lon="5.84284">
        <ele>1309.93</ele>
        <time>2015-02-22T07:50:43Z</time>
      </trkpt>
      <trkpt lat="45.29917" lon="5.8428">
        <ele>1310.9</ele>
        <time>2015-02-22T07:50:59Z</time>
      </trkpt>
      <trkpt lat="45.29926" lon="5.84274">
        <ele>1313.78</ele>
        <time>2015-02-22T07:51:14Z</time>
      </trkpt>
      <trkpt lat="45.29928" lon="5.84272">
        <ele>1314.74</ele>
        <time>2015-02-22T07:51:18Z</time>
      </trkpt>
      <trkpt lat="45.29944" lon="5.84258">
        <ele>1316.66</ele>
        <time>2015-02-22T07:51:38Z</time>
      </trkpt>
      <trkpt lat="45.29957" lon="5.8425">
        <ele>1318.59</ele>
        <time>2015-02-22T07:51:54Z</time>
      </trkpt>
      <trkpt lat="45.29971" lon="5.84245">
        <ele>1321.95</ele>
        <time>2015-02-22T07:52:12Z</time>
      </trkpt>
      <trkpt lat="45.29991" lon="5.84231">
        <ele>1324.35</ele>
        <time>2015-02-22T07:52:36Z</time>
      </trkpt>
      <trkpt lat="45.30009" lon="5.84222">
        <ele>1327.24</ele>
        <time>2015-02-22T07:52:58Z</time>
      </trkpt>
      <trkpt lat="45.30024" lon="5.8421">
        <ele>1329.16</ele>
        <time>2015-02-22T07:53:21Z</time>
      </trkpt>
      <trkpt lat="45.30039" lon="5.842">
        <ele>1331.08</ele>
        <time>2015-02-22T07:53:40Z</time>
      </trkpt>
      <trkpt lat="45.30052" lon="5.84198">
        <ele>1332.04</ele>
        <time>2015-02-22T07:53:52Z</time>
      </trkpt>
      <trkpt lat="45.3007" lon="5.8419">
        <ele>1334.45</ele>
        <time>2015-02-22T07:54:14Z</time>
      </trkpt>
      <trkpt lat="45.30087" lon="5.84173">
        <ele>1336.37</ele>
        <time>2015-02-22T07:54:37Z</time>
      </trkpt>
      <trkpt lat="45.30106" lon="5.84156">
        <ele>1339.25</ele>
        <time>2015-02-22T07:55:02Z</time>
      </trkpt>
      <trkpt lat="45.30119" lon="5.84138">
        <ele>1340.22</ele>
        <time>2015-02-22T07:55:22Z</time>
      </trkpt>
      <trkpt lat="45.30142" lon="5.84118">
        <ele>1342.62</ele>
        <time>2015-02-22T07:55:48Z</time>
      </trkpt>
      <trkpt lat="45.30152" lon="5.84105">
        <ele>1344.06</ele>
        <time>2015-02-22T07:56:02Z</time>
      </trkpt>
      <trkpt lat="45.30161" lon="5.84095">
        <ele>1344.06</ele>
        <time>2015-02-22T07:56:24Z</time>
      </trkpt>
      <trkpt lat="45.30173" lon="5.84082">
        <ele>1346.46</ele>
        <time>2015-02-22T07:56:54Z</time>
      </trkpt>
      <trkpt lat="45.30185" lon="5.84085">
        <ele>1349.35</ele>
        <time>2015-02-22T07:57:09Z</time>
      </trkpt>
      <trkpt lat="45.30191" lon="5.84094">
        <ele>1352.71</ele>
        <time>2015-02-22T07:57:22Z</time>
      </trkpt>
      <trkpt lat="45.3019" lon="5.84106">
        <ele>1355.6</ele>
        <time>2015-02-22T07:57:36Z</time>
      </trkpt>
      <trkpt lat="45.30195" lon="5.84115">
        <ele>1358.96</ele>
        <time>2015-02-22T07:57:51Z</time>
      </trkpt>
      <trkpt lat="45.30204" lon="5.84119">
        <ele>1361.84</ele>
        <time>2015-02-22T07:58:06Z</time>
      </trkpt>
      <trkpt lat="45.3022" lon="5.84097">
        <ele>1361.36</ele>
        <time>2015-02-22T07:58:22Z</time>
      </trkpt>
      <trkpt lat="45.30232" lon="5.84089">
        <ele>1362.33</ele>
        <time>2015-02-22T07:58:38Z</time>
      </trkpt>
      <trkpt lat="45.3024" lon="5.84082">
        <ele>1362.81</ele>
        <time>2015-02-22T07:58:51Z</time>
      </trkpt>
      <trkpt lat="45.3025" lon="5.84085">
        <ele>1366.17</ele>
        <time>2015-02-22T07:59:07Z</time>
      </trkpt>
      <trkpt lat="45.30257" lon="5.84088">
        <ele>1368.09</ele>
        <time>2015-02-22T07:59:16Z</time>
      </trkpt>
      <trkpt lat="45.30256" lon="5.84075">
        <ele>1371.46</ele>
        <time>2015-02-22T07:59:34Z</time>
      </trkpt>
      <trkpt lat="45.30246" lon="5.84061">
        <ele>1374.34</ele>
        <time>2015-02-22T07:59:54Z</time>
      </trkpt>
      <trkpt lat="45.30246" lon="5.84059">
        <ele>1374.82</ele>
        <time>2015-02-22T07:59:55Z</time>
      </trkpt>
      <trkpt lat="45.30253" lon="5.84053">
        <ele>1377.71</ele>
        <time>2015-02-22T08:00:12Z</time>
      </trkpt>
      <trkpt lat="45.30267" lon="5.8406">
        <ele>1380.59</ele>
        <time>2015-02-22T08:00:30Z</time>
      </trkpt>
      <trkpt lat="45.3028" lon="5.8406">
        <ele>1383.47</ele>
        <time>2015-02-22T08:00:51Z</time>
      </trkpt>
      <trkpt lat="45.30294" lon="5.84056">
        <ele>1386.84</ele>
        <time>2015-02-22T08:01:06Z</time>
      </trkpt>
      <trkpt lat="45.30306" lon="5.84052">
        <ele>1389.72</ele>
        <time>2015-02-22T08:01:23Z</time>
      </trkpt>
      <trkpt lat="45.30317" lon="5.84049">
        <ele>1393.09</ele>
        <time>2015-02-22T08:01:44Z</time>
      </trkpt>
      <trkpt lat="45.30322" lon="5.84049">
        <ele>1394.53</ele>
        <time>2015-02-22T08:01:52Z</time>
      </trkpt>
      <trkpt lat="45.30336" lon="5.84051">
        <ele>1397.89</ele>
        <time>2015-02-22T08:02:13Z</time>
      </trkpt>
      <trkpt lat="45.3035" lon="5.84046">
        <ele>1399.34</ele>
        <time>2015-02-22T08:02:29Z</time>
      </trkpt>
      <trkpt lat="45.30351" lon="5.84047">
        <ele>1398.37</ele>
        <time>2015-02-22T08:02:54Z</time>
      </trkpt>
      <trkpt lat="45.30351" lon="5.84046">
        <ele>1397.41</ele>
        <time>2015-02-22T08:03:31Z</time>
      </trkpt>
      <trkpt lat="45.30357" lon="5.84043">
        <ele>1397.89</ele>
        <time>2015-02-22T08:03:38Z</time>
      </trkpt>
      <trkpt lat="45.30363" lon="5.84046">
        <ele>1398.37</ele>
        <time>2015-02-22T08:03:49Z</time>
      </trkpt>
      <trkpt lat="45.30375" lon="5.84047">
        <ele>1401.74</ele>
        <time>2015-02-22T08:04:03Z</time>
      </trkpt>
      <trkpt lat="45.30385" lon="5.84048">
        <ele>1405.1</ele>
        <time>2015-02-22T08:04:16Z</time>
      </trkpt>
      <trkpt lat="45.3039" lon="5.84049">
        <ele>1405.58</ele>
        <time>2015-02-22T08:04:22Z</time>
      </trkpt>
      <trkpt lat="45.30403" lon="5.84053">
        <ele>1408.95</ele>
        <time>2015-02-22T08:04:39Z</time>
      </trkpt>
      <trkpt lat="45.30413" lon="5.8405">
        <ele>1412.31</ele>
        <time>2015-02-22T08:04:52Z</time>
      </trkpt>
      <trkpt lat="45.30426" lon="5.84043">
        <ele>1415.2</ele>
        <time>2015-02-22T08:05:08Z</time>
      </trkpt>
      <trkpt lat="45.30436" lon="5.84033">
        <ele>1418.56</ele>
        <time>2015-02-22T08:05:26Z</time>
      </trkpt>
      <trkpt lat="45.30446" lon="5.84025">
        <ele>1421.93</ele>
        <time>2015-02-22T08:05:41Z</time>
      </trkpt>
      <trkpt lat="45.30454" lon="5.84018">
        <ele>1422.89</ele>
        <time>2015-02-22T08:05:50Z</time>
      </trkpt>
      <trkpt lat="45.3047" lon="5.84015">
        <ele>1423.85</ele>
        <time>2015-02-22T08:06:07Z</time>
      </trkpt>
      <trkpt lat="45.30482" lon="5.84009">
        <ele>1426.73</ele>
        <time>2015-02-22T08:06:20Z</time>
      </trkpt>
      <trkpt lat="45.30487" lon="5.84005">
        <ele>1428.18</ele>
        <time>2015-02-22T08:06:26Z</time>
      </trkpt>
      <trkpt lat="45.30501" lon="5.84004">
        <ele>1429.14</ele>
        <time>2015-02-22T08:06:38Z</time>
      </trkpt>
      <trkpt lat="45.3051" lon="5.83995">
        <ele>1431.06</ele>
        <time>2015-02-22T08:06:53Z</time>
      </trkpt>
      <trkpt lat="45.30519" lon="5.83988">
        <ele>1432.98</ele>
        <time>2015-02-22T08:07:03Z</time>
      </trkpt>
      <trkpt lat="45.30524" lon="5.83983">
        <ele>1436.35</ele>
        <time>2015-02-22T08:07:16Z</time>
      </trkpt>
      <trkpt lat="45.30528" lon="5.83981">
        <ele>1434.42</ele>
        <time>2015-02-22T08:08:27Z</time>
      </trkpt>
      <trkpt lat="45.30531" lon="5.83978">
        <ele>1434.42</ele>
        <time>2015-02-22T08:09:15Z</time>
      </trkpt>
      <trkpt lat="45.30528" lon="5.83975">
        <ele>1431.54</ele>
        <time>2015-02-22T08:11:09Z</time>
      </trkpt>
      <trkpt lat="45.30534" lon="5.83979">
        <ele>1430.58</ele>
        <time>2015-02-22T08:13:13Z</time>
      </trkpt>
      <trkpt lat="45.30546" lon="5.84002">
        <ele>1433.46</ele>
        <time>2015-02-22T08:13:36Z</time>
      </trkpt>
      <trkpt lat="45.30549" lon="5.84007">
        <ele>1433.94</ele>
        <time>2015-02-22T08:13:41Z</time>
      </trkpt>
      <trkpt lat="45.3056" lon="5.84021">
        <ele>1435.39</ele>
        <time>2015-02-22T08:13:57Z</time>
      </trkpt>
      <trkpt lat="45.30578" lon="5.84032">
        <ele>1438.27</ele>
        <time>2015-02-22T08:14:19Z</time>
      </trkpt>
      <trkpt lat="45.30602" lon="5.84049">
        <ele>1441.15</ele>
        <time>2015-02-22T08:14:49Z</time>
      </trkpt>
      <trkpt lat="45.30615" lon="5.84062">
        <ele>1444.04</ele>
        <time>2015-02-22T08:15:06Z</time>
      </trkpt>
      <trkpt lat="45.30624" lon="5.84079">
        <ele>1446.92</ele>
        <time>2015-02-22T08:15:24Z</time>
      </trkpt>
      <trkpt lat="45.30633" lon="5.84082">
        <ele>1449.32</ele>
        <time>2015-02-22T08:15:45Z</time>
      </trkpt>
      <trkpt lat="45.30643" lon="5.84084">
        <ele>1452.21</ele>
        <time>2015-02-22T08:16:03Z</time>
      </trkpt>
      <trkpt lat="45.30659" lon="5.84085">
        <ele>1455.57</ele>
        <time>2015-02-22T08:16:21Z</time>
      </trkpt>
      <trkpt lat="45.30666" lon="5.84088">
        <ele>1458.46</ele>
        <time>2015-02-22T08:16:34Z</time>
      </trkpt>
      <trkpt lat="45.30674" lon="5.84092">
        <ele>1461.82</ele>
        <time>2015-02-22T08:16:47Z</time>
      </trkpt>
      <trkpt lat="45.30688" lon="5.84097">
        <ele>1464.71</ele>
        <time>2015-02-22T08:17:08Z</time>
      </trkpt>
      <trkpt lat="45.30693" lon="5.84101">
        <ele>1468.07</ele>
        <time>2015-02-22T08:17:26Z</time>
      </trkpt>
      <trkpt lat="45.30702" lon="5.84096">
        <ele>1470.95</ele>
        <time>2015-02-22T08:17:39Z</time>
      </trkpt>
      <trkpt lat="45.30707" lon="5.84094">
        <ele>1472.88</ele>
        <time>2015-02-22T08:17:46Z</time>
      </trkpt>
      <trkpt lat="45.3071" lon="5.84093">
        <ele>1473.36</ele>
        <time>2015-02-22T08:17:49Z</time>
      </trkpt>
      <trkpt lat="45.30718" lon="5.84091">
        <ele>1476.24</ele>
        <time>2015-02-22T08:18:01Z</time>
      </trkpt>
      <trkpt lat="45.30725" lon="5.84096">
        <ele>1478.16</ele>
        <time>2015-02-22T08:18:17Z</time>
      </trkpt>
      <trkpt lat="45.30733" lon="5.84097">
        <ele>1481.53</ele>
        <time>2015-02-22T08:18:31Z</time>
      </trkpt>
      <trkpt lat="45.30736" lon="5.84097">
        <ele>1482.01</ele>
        <time>2015-02-22T08:18:34Z</time>
      </trkpt>
      <trkpt lat="45.30742" lon="5.84094">
        <ele>1483.93</ele>
        <time>2015-02-22T08:18:44Z</time>
      </trkpt>
      <trkpt lat="45.30749" lon="5.84091">
        <ele>1485.85</ele>
        <time>2015-02-22T08:18:56Z</time>
      </trkpt>
      <trkpt lat="45.30758" lon="5.8409">
        <ele>1488.74</ele>
        <time>2015-02-22T08:19:07Z</time>
      </trkpt>
      <trkpt lat="45.30765" lon="5.84088">
        <ele>1490.18</ele>
        <time>2015-02-22T08:19:16Z</time>
      </trkpt>
      <trkpt lat="45.30772" lon="5.8408">
        <ele>1493.06</ele>
        <time>2015-02-22T08:19:29Z</time>
      </trkpt>
      <trkpt lat="45.30779" lon="5.84082">
        <ele>1495.47</ele>
        <time>2015-02-22T08:19:43Z</time>
      </trkpt>
      <trkpt lat="45.30781" lon="5.84084">
        <ele>1495.95</ele>
        <time>2015-02-22T08:19:46Z</time>
      </trkpt>
      <trkpt lat="45.30787" lon="5.84084">
        <ele>1498.35</ele>
        <time>2015-02-22T08:20:00Z</time>
      </trkpt>
      <trkpt lat="45.3079" lon="5.84079">
        <ele>1500.76</ele>
        <time>2015-02-22T08:20:09Z</time>
      </trkpt>
      <trkpt lat="45.3079" lon="5.84076">
        <ele>1501.72</ele>
        <time>2015-02-22T08:20:14Z</time>
      </trkpt>
      <trkpt lat="45.30792" lon="5.84075">
        <ele>1501.72</ele>
        <time>2015-02-22T08:20:16Z</time>
      </trkpt>
      <trkpt lat="45.30792" lon="5.84069">
        <ele>1503.64</ele>
        <time>2015-02-22T08:20:23Z</time>
      </trkpt>
      <trkpt lat="45.30794" lon="5.84063">
        <ele>1505.56</ele>
        <time>2015-02-22T08:20:32Z</time>
      </trkpt>
      <trkpt lat="45.30797" lon="5.84058">
        <ele>1507.97</ele>
        <time>2015-02-22T08:20:42Z</time>
      </trkpt>
      <trkpt lat="45.30797" lon="5.8405">
        <ele>1509.41</ele>
        <time>2015-02-22T08:20:54Z</time>
      </trkpt>
      <trkpt lat="45.30803" lon="5.84054">
        <ele>1511.33</ele>
        <time>2015-02-22T08:21:07Z</time>
      </trkpt>
      <trkpt lat="45.30806" lon="5.84055">
        <ele>1512.77</ele>
        <time>2015-02-22T08:21:19Z</time>
      </trkpt>
      <trkpt lat="45.30804" lon="5.84048">
        <ele>1513.25</ele>
        <time>2015-02-22T08:21:29Z</time>
      </trkpt>
      <trkpt lat="45.30805" lon="5.8404">
        <ele>1515.18</ele>
        <time>2015-02-22T08:21:41Z</time>
      </trkpt>
      <trkpt lat="45.30807" lon="5.84042">
        <ele>1515.66</ele>
        <time>2015-02-22T08:21:45Z</time>
      </trkpt>
      <trkpt lat="45.30816" lon="5.84047">
        <ele>1516.62</ele>
        <time>2015-02-22T08:21:57Z</time>
      </trkpt>
      <trkpt lat="45.30818" lon="5.84043">
        <ele>1518.54</ele>
        <time>2015-02-22T08:22:06Z</time>
      </trkpt>
      <trkpt lat="45.30816" lon="5.84031">
        <ele>1521.42</ele>
        <time>2015-02-22T08:22:20Z</time>
      </trkpt>
      <trkpt lat="45.30816" lon="5.84019">
        <ele>1522.87</ele>
        <time>2015-02-22T08:22:32Z</time>
      </trkpt>
      <trkpt lat="45.30815" lon="5.84008">
        <ele>1524.79</ele>
        <time>2015-02-22T08:22:43Z</time>
      </trkpt>
      <trkpt lat="45.30817" lon="5.84002">
        <ele>1525.75</ele>
        <time>2015-02-22T08:22:55Z</time>
      </trkpt>
      <trkpt lat="45.30824" lon="5.84005">
        <ele>1527.19</ele>
        <time>2015-02-22T08:23:07Z</time>
      </trkpt>
      <trkpt lat="45.30827" lon="5.84006">
        <ele>1528.15</ele>
        <time>2015-02-22T08:23:12Z</time>
      </trkpt>
      <trkpt lat="45.30833" lon="5.84005">
        <ele>1529.59</ele>
        <time>2015-02-22T08:23:25Z</time>
      </trkpt>
      <trkpt lat="45.30833" lon="5.84004">
        <ele>1530.08</ele>
        <time>2015-02-22T08:23:26Z</time>
      </trkpt>
      <trkpt lat="45.30832" lon="5.83998">
        <ele>1532</ele>
        <time>2015-02-22T08:23:35Z</time>
      </trkpt>
      <trkpt lat="45.30831" lon="5.83987">
        <ele>1533.92</ele>
        <time>2015-02-22T08:23:46Z</time>
      </trkpt>
      <trkpt lat="45.30833" lon="5.83976">
        <ele>1534.88</ele>
        <time>2015-02-22T08:23:58Z</time>
      </trkpt>
      <trkpt lat="45.30836" lon="5.83975">
        <ele>1535.84</ele>
        <time>2015-02-22T08:24:03Z</time>
      </trkpt>
      <trkpt lat="45.30844" lon="5.83973">
        <ele>1537.77</ele>
        <time>2015-02-22T08:24:16Z</time>
      </trkpt>
      <trkpt lat="45.30852" lon="5.83971">
        <ele>1540.65</ele>
        <time>2015-02-22T08:24:28Z</time>
      </trkpt>
      <trkpt lat="45.30858" lon="5.8397">
        <ele>1542.57</ele>
        <time>2015-02-22T08:24:40Z</time>
      </trkpt>
      <trkpt lat="45.30866" lon="5.83971">
        <ele>1544.98</ele>
        <time>2015-02-22T08:24:52Z</time>
      </trkpt>
      <trkpt lat="45.30868" lon="5.83966">
        <ele>1546.42</ele>
        <time>2015-02-22T08:25:01Z</time>
      </trkpt>
      <trkpt lat="45.30866" lon="5.8396">
        <ele>1547.38</ele>
        <time>2015-02-22T08:25:09Z</time>
      </trkpt>
      <trkpt lat="45.30866" lon="5.83954">
        <ele>1548.34</ele>
        <time>2015-02-22T08:25:16Z</time>
      </trkpt>
      <trkpt lat="45.30867" lon="5.83949">
        <ele>1549.78</ele>
        <time>2015-02-22T08:25:21Z</time>
      </trkpt>
      <trkpt lat="45.30871" lon="5.83949">
        <ele>1550.26</ele>
        <time>2015-02-22T08:25:26Z</time>
      </trkpt>
      <trkpt lat="45.30883" lon="5.83954">
        <ele>1553.15</ele>
        <time>2015-02-22T08:25:40Z</time>
      </trkpt>
      <trkpt lat="45.30891" lon="5.83955">
        <ele>1555.55</ele>
        <time>2015-02-22T08:25:52Z</time>
      </trkpt>
      <trkpt lat="45.30894" lon="5.83953">
        <ele>1557.95</ele>
        <time>2015-02-22T08:26:03Z</time>
      </trkpt>
      <trkpt lat="45.30894" lon="5.83942">
        <ele>1560.36</ele>
        <time>2015-02-22T08:26:16Z</time>
      </trkpt>
      <trkpt lat="45.30891" lon="5.83938">
        <ele>1562.28</ele>
        <time>2015-02-22T08:26:26Z</time>
      </trkpt>
      <trkpt lat="45.3089" lon="5.83935">
        <ele>1563.24</ele>
        <time>2015-02-22T08:26:39Z</time>
      </trkpt>
      <trkpt lat="45.30894" lon="5.83933">
        <ele>1565.16</ele>
        <time>2015-02-22T08:26:50Z</time>
      </trkpt>
      <trkpt lat="45.30901" lon="5.83934">
        <ele>1565.16</ele>
        <time>2015-02-22T08:27:04Z</time>
      </trkpt>
      <trkpt lat="45.30906" lon="5.83936">
        <ele>1567.09</ele>
        <time>2015-02-22T08:27:17Z</time>
      </trkpt>
      <trkpt lat="45.30912" lon="5.83937">
        <ele>1568.53</ele>
        <time>2015-02-22T08:27:30Z</time>
      </trkpt>
      <trkpt lat="45.3091" lon="5.83933">
        <ele>1570.45</ele>
        <time>2015-02-22T08:27:42Z</time>
      </trkpt>
      <trkpt lat="45.30908" lon="5.8393">
        <ele>1571.89</ele>
        <time>2015-02-22T08:27:59Z</time>
      </trkpt>
      <trkpt lat="45.30904" lon="5.83921">
        <ele>1572.85</ele>
        <time>2015-02-22T08:28:12Z</time>
      </trkpt>
      <trkpt lat="45.30901" lon="5.83913">
        <ele>1574.78</ele>
        <time>2015-02-22T08:28:23Z</time>
      </trkpt>
      <trkpt lat="45.30902" lon="5.8391">
        <ele>1575.74</ele>
        <time>2015-02-22T08:28:31Z</time>
      </trkpt>
      <trkpt lat="45.3091" lon="5.8391">
        <ele>1578.14</ele>
        <time>2015-02-22T08:28:44Z</time>
      </trkpt>
      <trkpt lat="45.30918" lon="5.83911">
        <ele>1580.54</ele>
        <time>2015-02-22T08:28:57Z</time>
      </trkpt>
      <trkpt lat="45.30917" lon="5.83908">
        <ele>1581.03</ele>
        <time>2015-02-22T08:29:04Z</time>
      </trkpt>
      <trkpt lat="45.30912" lon="5.83901">
        <ele>1582.95</ele>
        <time>2015-02-22T08:29:14Z</time>
      </trkpt>
      <trkpt lat="45.30907" lon="5.83891">
        <ele>1584.87</ele>
        <time>2015-02-22T08:29:27Z</time>
      </trkpt>
      <trkpt lat="45.30905" lon="5.83887">
        <ele>1585.83</ele>
        <time>2015-02-22T08:29:32Z</time>
      </trkpt>
      <trkpt lat="45.30902" lon="5.83877">
        <ele>1587.75</ele>
        <time>2015-02-22T08:29:43Z</time>
      </trkpt>
      <trkpt lat="45.309" lon="5.83868">
        <ele>1589.68</ele>
        <time>2015-02-22T08:29:54Z</time>
      </trkpt>
      <trkpt lat="45.30899" lon="5.8386">
        <ele>1591.6</ele>
        <time>2015-02-22T08:30:03Z</time>
      </trkpt>
      <trkpt lat="45.30895" lon="5.83851">
        <ele>1593.52</ele>
        <time>2015-02-22T08:30:13Z</time>
      </trkpt>
      <trkpt lat="45.30892" lon="5.83842">
        <ele>1595.93</ele>
        <time>2015-02-22T08:30:25Z</time>
      </trkpt>
      <trkpt lat="45.30892" lon="5.83837">
        <ele>1597.37</ele>
        <time>2015-02-22T08:30:36Z</time>
      </trkpt>
      <trkpt lat="45.30896" lon="5.83836">
        <ele>1599.29</ele>
        <time>2015-02-22T08:30:44Z</time>
      </trkpt>
      <trkpt lat="45.30902" lon="5.83835">
        <ele>1601.21</ele>
        <time>2015-02-22T08:30:56Z</time>
      </trkpt>
      <trkpt lat="45.30907" lon="5.83834">
        <ele>1603.62</ele>
        <time>2015-02-22T08:31:07Z</time>
      </trkpt>
      <trkpt lat="45.30913" lon="5.83833">
        <ele>1605.54</ele>
        <time>2015-02-22T08:31:20Z</time>
      </trkpt>
      <trkpt lat="45.30918" lon="5.8383">
        <ele>1607.46</ele>
        <time>2015-02-22T08:31:32Z</time>
      </trkpt>
      <trkpt lat="45.30923" lon="5.8383">
        <ele>1610.35</ele>
        <time>2015-02-22T08:31:44Z</time>
      </trkpt>
      <trkpt lat="45.30927" lon="5.83829">
        <ele>1611.79</ele>
        <time>2015-02-22T08:31:54Z</time>
      </trkpt>
      <trkpt lat="45.30933" lon="5.83828">
        <ele>1613.71</ele>
        <time>2015-02-22T08:32:07Z</time>
      </trkpt>
      <trkpt lat="45.30934" lon="5.83827">
        <ele>1615.63</ele>
        <time>2015-02-22T08:32:17Z</time>
      </trkpt>
      <trkpt lat="45.30932" lon="5.83821">
        <ele>1617.56</ele>
        <time>2015-02-22T08:32:28Z</time>
      </trkpt>
      <trkpt lat="45.30928" lon="5.83815">
        <ele>1618.04</ele>
        <time>2015-02-22T08:32:41Z</time>
      </trkpt>
      <trkpt lat="45.30925" lon="5.83806">
        <ele>1619.48</ele>
        <time>2015-02-22T08:32:55Z</time>
      </trkpt>
      <trkpt lat="45.30931" lon="5.83805">
        <ele>1621.4</ele>
        <time>2015-02-22T08:33:13Z</time>
      </trkpt>
      <trkpt lat="45.30938" lon="5.83807">
        <ele>1623.8</ele>
        <time>2015-02-22T08:33:27Z</time>
      </trkpt>
      <trkpt lat="45.30943" lon="5.83807">
        <ele>1625.25</ele>
        <time>2015-02-22T08:33:37Z</time>
      </trkpt>
      <trkpt lat="45.30949" lon="5.83806">
        <ele>1627.65</ele>
        <time>2015-02-22T08:33:50Z</time>
      </trkpt>
      <trkpt lat="45.30948" lon="5.83805">
        <ele>1628.13</ele>
        <time>2015-02-22T08:34:03Z</time>
      </trkpt>
      <trkpt lat="45.30944" lon="5.83795">
        <ele>1631.01</ele>
        <time>2015-02-22T08:34:17Z</time>
      </trkpt>
      <trkpt lat="45.3094" lon="5.83785">
        <ele>1632.94</ele>
        <time>2015-02-22T08:34:29Z</time>
      </trkpt>
      <trkpt lat="45.30936" lon="5.83778">
        <ele>1635.34</ele>
        <time>2015-02-22T08:34:41Z</time>
      </trkpt>
      <trkpt lat="45.30932" lon="5.8377">
        <ele>1637.26</ele>
        <time>2015-02-22T08:34:53Z</time>
      </trkpt>
      <trkpt lat="45.30929" lon="5.83761">
        <ele>1639.67</ele>
        <time>2015-02-22T08:35:06Z</time>
      </trkpt>
      <trkpt lat="45.30927" lon="5.83754">
        <ele>1641.59</ele>
        <time>2015-02-22T08:35:15Z</time>
      </trkpt>
      <trkpt lat="45.30925" lon="5.8375">
        <ele>1641.59</ele>
        <time>2015-02-22T08:35:21Z</time>
      </trkpt>
      <trkpt lat="45.30921" lon="5.83742">
        <ele>1644.47</ele>
        <time>2015-02-22T08:35:33Z</time>
      </trkpt>
      <trkpt lat="45.30916" lon="5.83734">
        <ele>1646.4</ele>
        <time>2015-02-22T08:35:44Z</time>
      </trkpt>
      <trkpt lat="45.30913" lon="5.83724">
        <ele>1648.8</ele>
        <time>2015-02-22T08:35:56Z</time>
      </trkpt>
      <trkpt lat="45.30909" lon="5.83717">
        <ele>1650.72</ele>
        <time>2015-02-22T08:36:07Z</time>
      </trkpt>
      <trkpt lat="45.30905" lon="5.83709">
        <ele>1652.64</ele>
        <time>2015-02-22T08:36:19Z</time>
      </trkpt>
      <trkpt lat="45.30899" lon="5.83698">
        <ele>1654.57</ele>
        <time>2015-02-22T08:36:34Z</time>
      </trkpt>
      <trkpt lat="45.309" lon="5.83697">
        <ele>1656.01</ele>
        <time>2015-02-22T08:36:47Z</time>
      </trkpt>
      <trkpt lat="45.30901" lon="5.83697">
        <ele>1655.05</ele>
        <time>2015-02-22T08:37:28Z</time>
      </trkpt>
      <trkpt lat="45.30905" lon="5.83698">
        <ele>1655.53</ele>
        <time>2015-02-22T08:37:56Z</time>
      </trkpt>
      <trkpt lat="45.30914" lon="5.83698">
        <ele>1657.93</ele>
        <time>2015-02-22T08:38:09Z</time>
      </trkpt>
      <trkpt lat="45.30922" lon="5.83699">
        <ele>1660.81</ele>
        <time>2015-02-22T08:38:21Z</time>
      </trkpt>
      <trkpt lat="45.3093" lon="5.83698">
        <ele>1663.22</ele>
        <time>2015-02-22T08:38:33Z</time>
      </trkpt>
      <trkpt lat="45.30939" lon="5.83698">
        <ele>1665.62</ele>
        <time>2015-02-22T08:38:47Z</time>
      </trkpt>
      <trkpt lat="45.30937" lon="5.83696">
        <ele>1667.06</ele>
        <time>2015-02-22T08:38:59Z</time>
      </trkpt>
      <trkpt lat="45.30932" lon="5.83685">
        <ele>1669.95</ele>
        <time>2015-02-22T08:39:14Z</time>
      </trkpt>
      <trkpt lat="45.30928" lon="5.83679">
        <ele>1671.39</ele>
        <time>2015-02-22T08:39:23Z</time>
      </trkpt>
      <trkpt lat="45.30924" lon="5.83667">
        <ele>1674.27</ele>
        <time>2015-02-22T08:39:35Z</time>
      </trkpt>
      <trkpt lat="45.30923" lon="5.83665">
        <ele>1674.75</ele>
        <time>2015-02-22T08:39:38Z</time>
      </trkpt>
      <trkpt lat="45.30918" lon="5.83658">
        <ele>1676.68</ele>
        <time>2015-02-22T08:39:50Z</time>
      </trkpt>
      <trkpt lat="45.30915" lon="5.83648">
        <ele>1679.08</ele>
        <time>2015-02-22T08:40:03Z</time>
      </trkpt>
      <trkpt lat="45.3091" lon="5.83639">
        <ele>1681</ele>
        <time>2015-02-22T08:40:15Z</time>
      </trkpt>
      <trkpt lat="45.3091" lon="5.83639">
        <ele>1681.48</ele>
        <time>2015-02-22T08:40:16Z</time>
      </trkpt>
      <trkpt lat="45.30908" lon="5.83632">
        <ele>1682.93</ele>
        <time>2015-02-22T08:40:24Z</time>
      </trkpt>
      <trkpt lat="45.30914" lon="5.83632">
        <ele>1684.37</ele>
        <time>2015-02-22T08:40:37Z</time>
      </trkpt>
      <trkpt lat="45.30924" lon="5.83634">
        <ele>1688.21</ele>
        <time>2015-02-22T08:40:51Z</time>
      </trkpt>
      <trkpt lat="45.30932" lon="5.83635">
        <ele>1690.14</ele>
        <time>2015-02-22T08:41:03Z</time>
      </trkpt>
      <trkpt lat="45.30939" lon="5.83635">
        <ele>1691.58</ele>
        <time>2015-02-22T08:41:14Z</time>
      </trkpt>
      <trkpt lat="45.30944" lon="5.83634">
        <ele>1693.5</ele>
        <time>2015-02-22T08:41:25Z</time>
      </trkpt>
      <trkpt lat="45.30944" lon="5.83632">
        <ele>1694.46</ele>
        <time>2015-02-22T08:41:34Z</time>
      </trkpt>
      <trkpt lat="45.30941" lon="5.83625">
        <ele>1696.38</ele>
        <time>2015-02-22T08:41:46Z</time>
      </trkpt>
      <trkpt lat="45.30937" lon="5.83619">
        <ele>1697.83</ele>
        <time>2015-02-22T08:41:57Z</time>
      </trkpt>
      <trkpt lat="45.30932" lon="5.83611">
        <ele>1699.75</ele>
        <time>2015-02-22T08:42:09Z</time>
      </trkpt>
      <trkpt lat="45.30927" lon="5.83603">
        <ele>1701.67</ele>
        <time>2015-02-22T08:42:20Z</time>
      </trkpt>
      <trkpt lat="45.30925" lon="5.83596">
        <ele>1704.07</ele>
        <time>2015-02-22T08:42:32Z</time>
      </trkpt>
      <trkpt lat="45.30932" lon="5.83596">
        <ele>1705.04</ele>
        <time>2015-02-22T08:42:43Z</time>
      </trkpt>
      <trkpt lat="45.3094" lon="5.83598">
        <ele>1707.44</ele>
        <time>2015-02-22T08:42:57Z</time>
      </trkpt>
      <trkpt lat="45.3095" lon="5.83598">
        <ele>1710.32</ele>
        <time>2015-02-22T08:43:13Z</time>
      </trkpt>
      <trkpt lat="45.30947" lon="5.83595">
        <ele>1710.32</ele>
        <time>2015-02-22T08:43:24Z</time>
      </trkpt>
      <trkpt lat="45.30942" lon="5.83589">
        <ele>1712.73</ele>
        <time>2015-02-22T08:43:37Z</time>
      </trkpt>
      <trkpt lat="45.30938" lon="5.83583">
        <ele>1714.17</ele>
        <time>2015-02-22T08:43:47Z</time>
      </trkpt>
      <trkpt lat="45.30934" lon="5.8358">
        <ele>1715.61</ele>
        <time>2015-02-22T08:44:01Z</time>
      </trkpt>
      <trkpt lat="45.30933" lon="5.83576">
        <ele>1716.57</ele>
        <time>2015-02-22T08:44:09Z</time>
      </trkpt>
      <trkpt lat="45.30938" lon="5.83576">
        <ele>1717.53</ele>
        <time>2015-02-22T08:44:21Z</time>
      </trkpt>
      <trkpt lat="45.30944" lon="5.83576">
        <ele>1719.46</ele>
        <time>2015-02-22T08:44:34Z</time>
      </trkpt>
      <trkpt lat="45.30942" lon="5.83574">
        <ele>1719.46</ele>
        <time>2015-02-22T08:44:48Z</time>
      </trkpt>
      <trkpt lat="45.30944" lon="5.83571">
        <ele>1720.9</ele>
        <time>2015-02-22T08:44:59Z</time>
      </trkpt>
      <trkpt lat="45.30949" lon="5.83571">
        <ele>1722.82</ele>
        <time>2015-02-22T08:45:10Z</time>
      </trkpt>
      <trkpt lat="45.30955" lon="5.83571">
        <ele>1724.26</ele>
        <time>2015-02-22T08:45:19Z</time>
      </trkpt>
      <trkpt lat="45.30961" lon="5.83571">
        <ele>1727.15</ele>
        <time>2015-02-22T08:45:30Z</time>
      </trkpt>
      <trkpt lat="45.30966" lon="5.83571">
        <ele>1729.07</ele>
        <time>2015-02-22T08:45:42Z</time>
      </trkpt>
      <trkpt lat="45.30967" lon="5.83569">
        <ele>1730.03</ele>
        <time>2015-02-22T08:45:53Z</time>
      </trkpt>
      <trkpt lat="45.30972" lon="5.83568">
        <ele>1732.43</ele>
        <time>2015-02-22T08:46:04Z</time>
      </trkpt>
      <trkpt lat="45.30974" lon="5.8357">
        <ele>1733.88</ele>
        <time>2015-02-22T08:46:19Z</time>
      </trkpt>
      <trkpt lat="45.30978" lon="5.8357">
        <ele>1734.84</ele>
        <time>2015-02-22T08:46:29Z</time>
      </trkpt>
      <trkpt lat="45.30984" lon="5.83569">
        <ele>1736.76</ele>
        <time>2015-02-22T08:46:43Z</time>
      </trkpt>
      <trkpt lat="45.30987" lon="5.83568">
        <ele>1736.76</ele>
        <time>2015-02-22T08:46:56Z</time>
      </trkpt>
      <trkpt lat="45.3099" lon="5.83567">
        <ele>1735.8</ele>
        <time>2015-02-22T08:49:26Z</time>
      </trkpt>
      <trkpt lat="45.30995" lon="5.83564">
        <ele>1737.24</ele>
        <time>2015-02-22T08:49:45Z</time>
      </trkpt>
      <trkpt lat="45.30998" lon="5.83563">
        <ele>1738.2</ele>
        <time>2015-02-22T08:49:58Z</time>
      </trkpt>
      <trkpt lat="45.31" lon="5.83562">
        <ele>1740.12</ele>
        <time>2015-02-22T08:50:13Z</time>
      </trkpt>
      <trkpt lat="45.31003" lon="5.83559">
        <ele>1742.53</ele>
        <time>2015-02-22T08:50:27Z</time>
      </trkpt>
      <trkpt lat="45.31005" lon="5.83559">
        <ele>1743.97</ele>
        <time>2015-02-22T08:50:41Z</time>
      </trkpt>
      <trkpt lat="45.31007" lon="5.83558">
        <ele>1744.45</ele>
        <time>2015-02-22T08:50:57Z</time>
      </trkpt>
      <trkpt lat="45.31009" lon="5.83557">
        <ele>1745.41</ele>
        <time>2015-02-22T08:51:14Z</time>
      </trkpt>
      <trkpt lat="45.31011" lon="5.8356">
        <ele>1745.89</ele>
        <time>2015-02-22T08:51:28Z</time>
      </trkpt>
      <trkpt lat="45.31016" lon="5.83561">
        <ele>1748.78</ele>
        <time>2015-02-22T08:51:42Z</time>
      </trkpt>
      <trkpt lat="45.31019" lon="5.83559">
        <ele>1750.7</ele>
        <time>2015-02-22T08:51:55Z</time>
      </trkpt>
      <trkpt lat="45.31024" lon="5.83555">
        <ele>1752.14</ele>
        <time>2015-02-22T08:52:06Z</time>
      </trkpt>
      <trkpt lat="45.31025" lon="5.83554">
        <ele>1751.18</ele>
        <time>2015-02-22T08:52:25Z</time>
      </trkpt>
      <trkpt lat="45.31024" lon="5.83554">
        <ele>1753.58</ele>
        <time>2015-02-22T08:52:42Z</time>
      </trkpt>
      <trkpt lat="45.31024" lon="5.83555">
        <ele>1754.06</ele>
        <time>2015-02-22T08:53:02Z</time>
      </trkpt>
      <trkpt lat="45.31024" lon="5.83554">
        <ele>1753.1</ele>
        <time>2015-02-22T08:53:20Z</time>
      </trkpt>
      <trkpt lat="45.31027" lon="5.83555">
        <ele>1751.18</ele>
        <time>2015-02-22T08:53:30Z</time>
      </trkpt>
      <trkpt lat="45.3104" lon="5.8356">
        <ele>1752.62</ele>
        <time>2015-02-22T08:53:45Z</time>
      </trkpt>
      <trkpt lat="45.3105" lon="5.83562">
        <ele>1755.5</ele>
        <time>2015-02-22T08:53:58Z</time>
      </trkpt>
      <trkpt lat="45.31059" lon="5.83564">
        <ele>1756.47</ele>
        <time>2015-02-22T08:54:14Z</time>
      </trkpt>
      <trkpt lat="45.31061" lon="5.83564">
        <ele>1756.95</ele>
        <time>2015-02-22T08:54:16Z</time>
      </trkpt>
      <trkpt lat="45.31072" lon="5.83563">
        <ele>1760.31</ele>
        <time>2015-02-22T08:54:29Z</time>
      </trkpt>
      <trkpt lat="45.31085" lon="5.83558">
        <ele>1762.23</ele>
        <time>2015-02-22T08:54:44Z</time>
      </trkpt>
      <trkpt lat="45.31092" lon="5.83552">
        <ele>1763.2</ele>
        <time>2015-02-22T08:54:55Z</time>
      </trkpt>
      <trkpt lat="45.31099" lon="5.83546">
        <ele>1765.12</ele>
        <time>2015-02-22T08:55:06Z</time>
      </trkpt>
      <trkpt lat="45.31104" lon="5.83546">
        <ele>1768.48</ele>
        <time>2015-02-22T08:55:17Z</time>
      </trkpt>
      <trkpt lat="45.31109" lon="5.83547">
        <ele>1771.37</ele>
        <time>2015-02-22T08:55:27Z</time>
      </trkpt>
      <trkpt lat="45.3111" lon="5.83547">
        <ele>1773.29</ele>
        <time>2015-02-22T08:55:30Z</time>
      </trkpt>
      <trkpt lat="45.31117" lon="5.83549">
        <ele>1775.21</ele>
        <time>2015-02-22T08:55:41Z</time>
      </trkpt>
      <trkpt lat="45.31122" lon="5.83548">
        <ele>1778.58</ele>
        <time>2015-02-22T08:55:50Z</time>
      </trkpt>
      <trkpt lat="45.31123" lon="5.83547">
        <ele>1778.58</ele>
        <time>2015-02-22T08:55:51Z</time>
      </trkpt>
      <trkpt lat="45.31127" lon="5.83547">
        <ele>1778.1</ele>
        <time>2015-02-22T08:56:08Z</time>
      </trkpt>
      <trkpt lat="45.31128" lon="5.83547">
        <ele>1777.13</ele>
        <time>2015-02-22T08:56:30Z</time>
      </trkpt>
      <trkpt lat="45.31128" lon="5.83546">
        <ele>1778.1</ele>
        <time>2015-02-22T08:57:09Z</time>
      </trkpt>
      <trkpt lat="45.31128" lon="5.83546">
        <ele>1776.17</ele>
        <time>2015-02-22T08:58:07Z</time>
      </trkpt>
      <trkpt lat="45.31128" lon="5.83545">
        <ele>1776.17</ele>
        <time>2015-02-22T08:58:34Z</time>
      </trkpt>
      <trkpt lat="45.3113" lon="5.83547">
        <ele>1773.29</ele>
        <time>2015-02-22T08:58:55Z</time>
      </trkpt>
      <trkpt lat="45.31142" lon="5.83548">
        <ele>1771.37</ele>
        <time>2015-02-22T08:59:04Z</time>
      </trkpt>
      <trkpt lat="45.31144" lon="5.83548">
        <ele>1771.37</ele>
        <time>2015-02-22T08:59:05Z</time>
      </trkpt>
      <trkpt lat="45.31158" lon="5.83549">
        <ele>1769.44</ele>
        <time>2015-02-22T08:59:14Z</time>
      </trkpt>
      <trkpt lat="45.3117" lon="5.83551">
        <ele>1766.56</ele>
        <time>2015-02-22T08:59:21Z</time>
      </trkpt>
      <trkpt lat="45.3119" lon="5.83556">
        <ele>1762.71</ele>
        <time>2015-02-22T08:59:29Z</time>
      </trkpt>
      <trkpt lat="45.31196" lon="5.83559">
        <ele>1759.35</ele>
        <time>2015-02-22T08:59:31Z</time>
      </trkpt>
      <trkpt lat="45.31203" lon="5.83561">
        <ele>1758.39</ele>
        <time>2015-02-22T08:59:33Z</time>
      </trkpt>
      <trkpt lat="45.31217" lon="5.83568">
        <ele>1755.02</ele>
        <time>2015-02-22T08:59:39Z</time>
      </trkpt>
      <trkpt lat="45.31236" lon="5.83573">
        <ele>1751.18</ele>
        <time>2015-02-22T08:59:45Z</time>
      </trkpt>
      <trkpt lat="45.31239" lon="5.83574">
        <ele>1751.18</ele>
        <time>2015-02-22T08:59:46Z</time>
      </trkpt>
      <trkpt lat="45.31248" lon="5.83577">
        <ele>1747.81</ele>
        <time>2015-02-22T08:59:49Z</time>
      </trkpt>
      <trkpt lat="45.31257" lon="5.8358">
        <ele>1745.89</ele>
        <time>2015-02-22T08:59:52Z</time>
      </trkpt>
      <trkpt lat="45.31268" lon="5.83583">
        <ele>1743.97</ele>
        <time>2015-02-22T08:59:56Z</time>
      </trkpt>
      <trkpt lat="45.31292" lon="5.83589">
        <ele>1740.6</ele>
        <time>2015-02-22T09:00:04Z</time>
      </trkpt>
      <trkpt lat="45.31296" lon="5.83589">
        <ele>1740.12</ele>
        <time>2015-02-22T09:00:05Z</time>
      </trkpt>
      <trkpt lat="45.31313" lon="5.83593">
        <ele>1736.28</ele>
        <time>2015-02-22T09:00:09Z</time>
      </trkpt>
      <trkpt lat="45.31317" lon="5.83594">
        <ele>1736.28</ele>
        <time>2015-02-22T09:00:10Z</time>
      </trkpt>
      <trkpt lat="45.31323" lon="5.83597">
        <ele>1732.91</ele>
        <time>2015-02-22T09:00:13Z</time>
      </trkpt>
      <trkpt lat="45.31325" lon="5.83598">
        <ele>1732.43</ele>
        <time>2015-02-22T09:00:15Z</time>
      </trkpt>
      <trkpt lat="45.31339" lon="5.83606">
        <ele>1732.43</ele>
        <time>2015-02-22T09:00:26Z</time>
      </trkpt>
      <trkpt lat="45.31347" lon="5.83611">
        <ele>1729.07</ele>
        <time>2015-02-22T09:00:33Z</time>
      </trkpt>
      <trkpt lat="45.3135" lon="5.83611">
        <ele>1728.11</ele>
        <time>2015-02-22T09:01:07Z</time>
      </trkpt>
      <trkpt lat="45.31363" lon="5.83612">
        <ele>1724.74</ele>
        <time>2015-02-22T09:01:12Z</time>
      </trkpt>
      <trkpt lat="45.31369" lon="5.83613">
        <ele>1723.78</ele>
        <time>2015-02-22T09:01:14Z</time>
      </trkpt>
      <trkpt lat="45.31377" lon="5.83615">
        <ele>1720.42</ele>
        <time>2015-02-22T09:01:17Z</time>
      </trkpt>
      <trkpt lat="45.31386" lon="5.83617">
        <ele>1716.57</ele>
        <time>2015-02-22T09:01:20Z</time>
      </trkpt>
      <trkpt lat="45.31391" lon="5.83619">
        <ele>1713.69</ele>
        <time>2015-02-22T09:01:22Z</time>
      </trkpt>
      <trkpt lat="45.31394" lon="5.83619">
        <ele>1713.69</ele>
        <time>2015-02-22T09:01:23Z</time>
      </trkpt>
      <trkpt lat="45.31401" lon="5.83621">
        <ele>1710.32</ele>
        <time>2015-02-22T09:01:25Z</time>
      </trkpt>
      <trkpt lat="45.31412" lon="5.83627">
        <ele>1706</ele>
        <time>2015-02-22T09:01:28Z</time>
      </trkpt>
      <trkpt lat="45.31421" lon="5.83635">
        <ele>1702.63</ele>
        <time>2015-02-22T09:01:31Z</time>
      </trkpt>
      <trkpt lat="45.31423" lon="5.83637">
        <ele>1702.63</ele>
        <time>2015-02-22T09:01:32Z</time>
      </trkpt>
      <trkpt lat="45.31425" lon="5.83638">
        <ele>1700.71</ele>
        <time>2015-02-22T09:01:48Z</time>
      </trkpt>
      <trkpt lat="45.31425" lon="5.83638">
        <ele>1700.23</ele>
        <time>2015-02-22T09:02:20Z</time>
      </trkpt>
      <trkpt lat="45.31425" lon="5.83638">
        <ele>1700.23</ele>
        <time>2015-02-22T09:04:00Z</time>
      </trkpt>
      <trkpt lat="45.31426" lon="5.83642">
        <ele>1700.23</ele>
        <time>2015-02-22T09:08:05Z</time>
      </trkpt>
      <trkpt lat="45.31433" lon="5.83644">
        <ele>1698.79</ele>
        <time>2015-02-22T09:13:50Z</time>
      </trkpt>
      <trkpt lat="45.31443" lon="5.83641">
        <ele>1700.23</ele>
        <time>2015-02-22T09:14:05Z</time>
      </trkpt>
      <trkpt lat="45.31446" lon="5.8364">
        <ele>1700.23</ele>
        <time>2015-02-22T09:14:08Z</time>
      </trkpt>
      <trkpt lat="45.31452" lon="5.83641">
        <ele>1702.63</ele>
        <time>2015-02-22T09:14:19Z</time>
      </trkpt>
      <trkpt lat="45.31456" lon="5.83647">
        <ele>1703.59</ele>
        <time>2015-02-22T09:14:32Z</time>
      </trkpt>
      <trkpt lat="45.31461" lon="5.83655">
        <ele>1706.48</ele>
        <time>2015-02-22T09:14:46Z</time>
      </trkpt>
      <trkpt lat="45.31467" lon="5.83657">
        <ele>1708.4</ele>
        <time>2015-02-22T09:14:57Z</time>
      </trkpt>
      <trkpt lat="45.31469" lon="5.8365">
        <ele>1709.84</ele>
        <time>2015-02-22T09:15:06Z</time>
      </trkpt>
      <trkpt lat="45.31469" lon="5.83639">
        <ele>1711.76</ele>
        <time>2015-02-22T09:15:22Z</time>
      </trkpt>
      <trkpt lat="45.31473" lon="5.83641">
        <ele>1713.69</ele>
        <time>2015-02-22T09:15:34Z</time>
      </trkpt>
      <trkpt lat="45.31476" lon="5.83643">
        <ele>1715.13</ele>
        <time>2015-02-22T09:15:43Z</time>
      </trkpt>
      <trkpt lat="45.3148" lon="5.83644">
        <ele>1716.09</ele>
        <time>2015-02-22T09:15:54Z</time>
      </trkpt>
      <trkpt lat="45.31485" lon="5.83644">
        <ele>1716.09</ele>
        <time>2015-02-22T09:16:03Z</time>
      </trkpt>
      <trkpt lat="45.31488" lon="5.83645">
        <ele>1716.57</ele>
        <time>2015-02-22T09:16:29Z</time>
      </trkpt>
      <trkpt lat="45.31492" lon="5.83646">
        <ele>1717.05</ele>
        <time>2015-02-22T09:16:37Z</time>
      </trkpt>
      <trkpt lat="45.31495" lon="5.83651">
        <ele>1718.49</ele>
        <time>2015-02-22T09:16:46Z</time>
      </trkpt>
      <trkpt lat="45.31497" lon="5.83652">
        <ele>1719.46</ele>
        <time>2015-02-22T09:16:51Z</time>
      </trkpt>
      <trkpt lat="45.31502" lon="5.83658">
        <ele>1721.38</ele>
        <time>2015-02-22T09:17:01Z</time>
      </trkpt>
      <trkpt lat="45.31506" lon="5.83658">
        <ele>1723.3</ele>
        <time>2015-02-22T09:17:11Z</time>
      </trkpt>
      <trkpt lat="45.31507" lon="5.8365">
        <ele>1724.26</ele>
        <time>2015-02-22T09:17:20Z</time>
      </trkpt>
      <trkpt lat="45.31513" lon="5.83639">
        <ele>1727.15</ele>
        <time>2015-02-22T09:17:33Z</time>
      </trkpt>
      <trkpt lat="45.31515" lon="5.83637">
        <ele>1728.11</ele>
        <time>2015-02-22T09:17:36Z</time>
      </trkpt>
      <trkpt lat="45.31528" lon="5.83636">
        <ele>1730.99</ele>
        <time>2015-02-22T09:17:50Z</time>
      </trkpt>
      <trkpt lat="45.31537" lon="5.83637">
        <ele>1733.88</ele>
        <time>2015-02-22T09:18:04Z</time>
      </trkpt>
      <trkpt lat="45.31543" lon="5.83639">
        <ele>1734.84</ele>
        <time>2015-02-22T09:18:17Z</time>
      </trkpt>
      <trkpt lat="45.31545" lon="5.83641">
        <ele>1735.32</ele>
        <time>2015-02-22T09:18:21Z</time>
      </trkpt>
      <trkpt lat="45.31546" lon="5.83648">
        <ele>1737.24</ele>
        <time>2015-02-22T09:18:28Z</time>
      </trkpt>
      <trkpt lat="45.31543" lon="5.8366">
        <ele>1738.68</ele>
        <time>2015-02-22T09:18:43Z</time>
      </trkpt>
      <trkpt lat="45.31543" lon="5.83666">
        <ele>1741.57</ele>
        <time>2015-02-22T09:18:56Z</time>
      </trkpt>
      <trkpt lat="45.31548" lon="5.8367">
        <ele>1742.53</ele>
        <time>2015-02-22T09:19:10Z</time>
      </trkpt>
      <trkpt lat="45.31555" lon="5.83675">
        <ele>1744.93</ele>
        <time>2015-02-22T09:19:24Z</time>
      </trkpt>
      <trkpt lat="45.31557" lon="5.83674">
        <ele>1745.41</ele>
        <time>2015-02-22T09:19:28Z</time>
      </trkpt>
      <trkpt lat="45.31562" lon="5.83674">
        <ele>1747.33</ele>
        <time>2015-02-22T09:19:41Z</time>
      </trkpt>
      <trkpt lat="45.31572" lon="5.83679">
        <ele>1749.74</ele>
        <time>2015-02-22T09:19:55Z</time>
      </trkpt>
      <trkpt lat="45.31579" lon="5.83681">
        <ele>1751.66</ele>
        <time>2015-02-22T09:20:05Z</time>
      </trkpt>
      <trkpt lat="45.3158" lon="5.83681">
        <ele>1752.14</ele>
        <time>2015-02-22T09:20:07Z</time>
      </trkpt>
      <trkpt lat="45.31583" lon="5.83682">
        <ele>1752.62</ele>
        <time>2015-02-22T09:20:11Z</time>
      </trkpt>
      <trkpt lat="45.31592" lon="5.83684">
        <ele>1754.06</ele>
        <time>2015-02-22T09:20:23Z</time>
      </trkpt>
      <trkpt lat="45.31599" lon="5.83687">
        <ele>1755.02</ele>
        <time>2015-02-22T09:20:33Z</time>
      </trkpt>
      <trkpt lat="45.316" lon="5.83689">
        <ele>1755.5</ele>
        <time>2015-02-22T09:20:37Z</time>
      </trkpt>
      <trkpt lat="45.31604" lon="5.837">
        <ele>1758.87</ele>
        <time>2015-02-22T09:20:54Z</time>
      </trkpt>
      <trkpt lat="45.31612" lon="5.83706">
        <ele>1760.79</ele>
        <time>2015-02-22T09:21:07Z</time>
      </trkpt>
      <trkpt lat="45.31618" lon="5.83703">
        <ele>1762.71</ele>
        <time>2015-02-22T09:21:18Z</time>
      </trkpt>
      <trkpt lat="45.31624" lon="5.83708">
        <ele>1764.16</ele>
        <time>2015-02-22T09:21:31Z</time>
      </trkpt>
      <trkpt lat="45.31633" lon="5.83717">
        <ele>1766.08</ele>
        <time>2015-02-22T09:21:46Z</time>
      </trkpt>
      <trkpt lat="45.31644" lon="5.83726">
        <ele>1767.04</ele>
        <time>2015-02-22T09:22:01Z</time>
      </trkpt>
      <trkpt lat="45.31654" lon="5.83734">
        <ele>1768.48</ele>
        <time>2015-02-22T09:22:13Z</time>
      </trkpt>
      <trkpt lat="45.31667" lon="5.8374">
        <ele>1769.44</ele>
        <time>2015-02-22T09:22:28Z</time>
      </trkpt>
      <trkpt lat="45.3168" lon="5.83747">
        <ele>1769.92</ele>
        <time>2015-02-22T09:22:42Z</time>
      </trkpt>
      <trkpt lat="45.31692" lon="5.83751">
        <ele>1771.85</ele>
        <time>2015-02-22T09:22:56Z</time>
      </trkpt>
      <trkpt lat="45.31706" lon="5.83756">
        <ele>1771.85</ele>
        <time>2015-02-22T09:23:10Z</time>
      </trkpt>
      <trkpt lat="45.31721" lon="5.83761">
        <ele>1772.33</ele>
        <time>2015-02-22T09:23:25Z</time>
      </trkpt>
      <trkpt lat="45.31737" lon="5.83766">
        <ele>1770.89</ele>
        <time>2015-02-22T09:23:41Z</time>
      </trkpt>
      <trkpt lat="45.31738" lon="5.83766">
        <ele>1770.41</ele>
        <time>2015-02-22T09:23:43Z</time>
      </trkpt>
      <trkpt lat="45.31741" lon="5.83768">
        <ele>1769.92</ele>
        <time>2015-02-22T09:23:46Z</time>
      </trkpt>
      <trkpt lat="45.3175" lon="5.83776">
        <ele>1769.44</ele>
        <time>2015-02-22T09:23:59Z</time>
      </trkpt>
      <trkpt lat="45.31755" lon="5.83786">
        <ele>1771.85</ele>
        <time>2015-02-22T09:24:13Z</time>
      </trkpt>
      <trkpt lat="45.31757" lon="5.8379">
        <ele>1771.85</ele>
        <time>2015-02-22T09:24:27Z</time>
      </trkpt>
      <trkpt lat="45.31759" lon="5.83791">
        <ele>1771.85</ele>
        <time>2015-02-22T09:24:29Z</time>
      </trkpt>
      <trkpt lat="45.31762" lon="5.83794">
        <ele>1770.89</ele>
        <time>2015-02-22T09:24:33Z</time>
      </trkpt>
      <trkpt lat="45.31771" lon="5.83789">
        <ele>1768.48</ele>
        <time>2015-02-22T09:24:43Z</time>
      </trkpt>
      <trkpt lat="45.31772" lon="5.83789">
        <ele>1768</ele>
        <time>2015-02-22T09:24:44Z</time>
      </trkpt>
      <trkpt lat="45.31774" lon="5.83788">
        <ele>1768</ele>
        <time>2015-02-22T09:24:46Z</time>
      </trkpt>
      <trkpt lat="45.31789" lon="5.83789">
        <ele>1765.12</ele>
        <time>2015-02-22T09:24:59Z</time>
      </trkpt>
      <trkpt lat="45.31801" lon="5.83795">
        <ele>1763.68</ele>
        <time>2015-02-22T09:25:08Z</time>
      </trkpt>
      <trkpt lat="45.31806" lon="5.83788">
        <ele>1761.27</ele>
        <time>2015-02-22T09:25:12Z</time>
      </trkpt>
      <trkpt lat="45.31806" lon="5.83789">
        <ele>1760.31</ele>
        <time>2015-02-22T09:25:15Z</time>
      </trkpt>
      <trkpt lat="45.31807" lon="5.8379">
        <ele>1759.35</ele>
        <time>2015-02-22T09:25:37Z</time>
      </trkpt>
      <trkpt lat="45.31809" lon="5.83791">
        <ele>1758.39</ele>
        <time>2015-02-22T09:28:23Z</time>
      </trkpt>
      <trkpt lat="45.31819" lon="5.83791">
        <ele>1756.95</ele>
        <time>2015-02-22T09:28:32Z</time>
      </trkpt>
      <trkpt lat="45.31834" lon="5.83787">
        <ele>1753.1</ele>
        <time>2015-02-22T09:28:41Z</time>
      </trkpt>
      <trkpt lat="45.31845" lon="5.83781">
        <ele>1750.7</ele>
        <time>2015-02-22T09:28:45Z</time>
      </trkpt>
      <trkpt lat="45.31861" lon="5.83773">
        <ele>1746.37</ele>
        <time>2015-02-22T09:28:49Z</time>
      </trkpt>
      <trkpt lat="45.31878" lon="5.83768">
        <ele>1742.53</ele>
        <time>2015-02-22T09:28:52Z</time>
      </trkpt>
      <trkpt lat="45.31886" lon="5.83765">
        <ele>1740.12</ele>
        <time>2015-02-22T09:28:55Z</time>
      </trkpt>
      <trkpt lat="45.31902" lon="5.8376">
        <ele>1738.68</ele>
        <time>2015-02-22T09:29:07Z</time>
      </trkpt>
      <trkpt lat="45.31908" lon="5.83757">
        <ele>1738.2</ele>
        <time>2015-02-22T09:29:12Z</time>
      </trkpt>
      <trkpt lat="45.31917" lon="5.83746">
        <ele>1737.24</ele>
        <time>2015-02-22T09:29:26Z</time>
      </trkpt>
      <trkpt lat="45.31926" lon="5.83754">
        <ele>1739.16</ele>
        <time>2015-02-22T09:29:45Z</time>
      </trkpt>
      <trkpt lat="45.3193" lon="5.83757">
        <ele>1740.12</ele>
        <time>2015-02-22T09:29:48Z</time>
      </trkpt>
      <trkpt lat="45.31946" lon="5.83761">
        <ele>1739.64</ele>
        <time>2015-02-22T09:30:00Z</time>
      </trkpt>
      <trkpt lat="45.3195" lon="5.83755">
        <ele>1736.76</ele>
        <time>2015-02-22T09:30:09Z</time>
      </trkpt>
      <trkpt lat="45.31968" lon="5.83743">
        <ele>1734.84</ele>
        <time>2015-02-22T09:30:23Z</time>
      </trkpt>
      <trkpt lat="45.3198" lon="5.83739">
        <ele>1731.47</ele>
        <time>2015-02-22T09:30:31Z</time>
      </trkpt>
      <trkpt lat="45.31992" lon="5.83732">
        <ele>1730.51</ele>
        <time>2015-02-22T09:30:45Z</time>
      </trkpt>
      <trkpt lat="45.3201" lon="5.83725">
        <ele>1727.15</ele>
        <time>2015-02-22T09:31:00Z</time>
      </trkpt>
      <trkpt lat="45.32012" lon="5.83725">
        <ele>1726.67</ele>
        <time>2015-02-22T09:31:02Z</time>
      </trkpt>
      <trkpt lat="45.32022" lon="5.83733">
        <ele>1726.18</ele>
        <time>2015-02-22T09:31:14Z</time>
      </trkpt>
      <trkpt lat="45.32025" lon="5.83733">
        <ele>1728.11</ele>
        <time>2015-02-22T09:31:20Z</time>
      </trkpt>
      <trkpt lat="45.3203" lon="5.8373">
        <ele>1725.22</ele>
        <time>2015-02-22T09:31:27Z</time>
      </trkpt>
      <trkpt lat="45.32037" lon="5.8373">
        <ele>1723.78</ele>
        <time>2015-02-22T09:31:37Z</time>
      </trkpt>
      <trkpt lat="45.32046" lon="5.8373">
        <ele>1722.34</ele>
        <time>2015-02-22T09:31:50Z</time>
      </trkpt>
      <trkpt lat="45.32058" lon="5.83717">
        <ele>1719.94</ele>
        <time>2015-02-22T09:32:03Z</time>
      </trkpt>
      <trkpt lat="45.3206" lon="5.83716">
        <ele>1717.53</ele>
        <time>2015-02-22T09:32:15Z</time>
      </trkpt>
      <trkpt lat="45.32063" lon="5.83716">
        <ele>1717.53</ele>
        <time>2015-02-22T09:32:19Z</time>
      </trkpt>
      <trkpt lat="45.32075" lon="5.83716">
        <ele>1716.09</ele>
        <time>2015-02-22T09:32:31Z</time>
      </trkpt>
      <trkpt lat="45.32081" lon="5.83716">
        <ele>1716.09</ele>
        <time>2015-02-22T09:32:46Z</time>
      </trkpt>
      <trkpt lat="45.32084" lon="5.83718">
        <ele>1716.09</ele>
        <time>2015-02-22T09:33:01Z</time>
      </trkpt>
      <trkpt lat="45.32084" lon="5.83718">
        <ele>1715.13</ele>
        <time>2015-02-22T09:33:12Z</time>
      </trkpt>
      <trkpt lat="45.32087" lon="5.83724">
        <ele>1713.69</ele>
        <time>2015-02-22T09:33:26Z</time>
      </trkpt>
      <trkpt lat="45.32087" lon="5.83722">
        <ele>1712.25</ele>
        <time>2015-02-22T09:33:45Z</time>
      </trkpt>
      <trkpt lat="45.32088" lon="5.83719">
        <ele>1712.73</ele>
        <time>2015-02-22T09:33:57Z</time>
      </trkpt>
      <trkpt lat="45.32089" lon="5.83719">
        <ele>1711.28</ele>
        <time>2015-02-22T09:34:50Z</time>
      </trkpt>
      <trkpt lat="45.32089" lon="5.83721">
        <ele>1712.25</ele>
        <time>2015-02-22T09:41:43Z</time>
      </trkpt>
      <trkpt lat="45.32088" lon="5.83722">
        <ele>1712.73</ele>
        <time>2015-02-22T09:42:01Z</time>
      </trkpt>
      <trkpt lat="45.32086" lon="5.83721">
        <ele>1712.25</ele>
        <time>2015-02-22T09:42:14Z</time>
      </trkpt>
      <trkpt lat="45.32089" lon="5.83721">
        <ele>1712.25</ele>
        <time>2015-02-22T09:42:28Z</time>
      </trkpt>
      <trkpt lat="45.32087" lon="5.83719">
        <ele>1711.76</ele>
        <time>2015-02-22T09:42:44Z</time>
      </trkpt>
      <trkpt lat="45.32089" lon="5.83716">
        <ele>1712.25</ele>
        <time>2015-02-22T09:43:08Z</time>
      </trkpt>
      <trkpt lat="45.32084" lon="5.83717">
        <ele>1711.28</ele>
        <time>2015-02-22T09:43:22Z</time>
      </trkpt>
      <trkpt lat="45.32086" lon="5.83723">
        <ele>1710.32</ele>
        <time>2015-02-22T09:43:38Z</time>
      </trkpt>
      <trkpt lat="45.32086" lon="5.83723">
        <ele>1710.32</ele>
        <time>2015-02-22T09:43:51Z</time>
      </trkpt>
      <trkpt lat="45.32087" lon="5.83725">
        <ele>1710.8</ele>
        <time>2015-02-22T09:44:05Z</time>
      </trkpt>
      <trkpt lat="45.32089" lon="5.83723">
        <ele>1710.8</ele>
        <time>2015-02-22T09:44:19Z</time>
      </trkpt>
      <trkpt lat="45.3209" lon="5.83724">
        <ele>1710.8</ele>
        <time>2015-02-22T09:44:36Z</time>
      </trkpt>
      <trkpt lat="45.32091" lon="5.83726">
        <ele>1711.76</ele>
        <time>2015-02-22T09:45:11Z</time>
      </trkpt>
      <trkpt lat="45.32093" lon="5.83725">
        <ele>1711.76</ele>
        <time>2015-02-22T09:45:36Z</time>
      </trkpt>
      <trkpt lat="45.32092" lon="5.83725">
        <ele>1711.28</ele>
        <time>2015-02-22T09:45:54Z</time>
      </trkpt>
      <trkpt lat="45.32092" lon="5.83726">
        <ele>1711.28</ele>
        <time>2015-02-22T09:46:14Z</time>
      </trkpt>
      <trkpt lat="45.32098" lon="5.83735">
        <ele>1708.88</ele>
        <time>2015-02-22T09:46:20Z</time>
      </trkpt>
      <trkpt lat="45.32107" lon="5.83753">
        <ele>1703.11</ele>
        <time>2015-02-22T09:46:24Z</time>
      </trkpt>
      <trkpt lat="45.32109" lon="5.83756">
        <ele>1703.11</ele>
        <time>2015-02-22T09:46:25Z</time>
      </trkpt>
      <trkpt lat="45.32112" lon="5.83765">
        <ele>1696.86</ele>
        <time>2015-02-22T09:46:27Z</time>
      </trkpt>
      <trkpt lat="45.32113" lon="5.8377">
        <ele>1693.5</ele>
        <time>2015-02-22T09:46:28Z</time>
      </trkpt>
      <trkpt lat="45.32115" lon="5.83775">
        <ele>1689.65</ele>
        <time>2015-02-22T09:46:29Z</time>
      </trkpt>
      <trkpt lat="45.32116" lon="5.83779">
        <ele>1685.33</ele>
        <time>2015-02-22T09:46:30Z</time>
      </trkpt>
      <trkpt lat="45.32117" lon="5.83783">
        <ele>1681.96</ele>
        <time>2015-02-22T09:46:31Z</time>
      </trkpt>
      <trkpt lat="45.32119" lon="5.83786">
        <ele>1678.12</ele>
        <time>2015-02-22T09:46:32Z</time>
      </trkpt>
      <trkpt lat="45.32121" lon="5.8379">
        <ele>1674.75</ele>
        <time>2015-02-22T09:46:33Z</time>
      </trkpt>
      <trkpt lat="45.32126" lon="5.83798">
        <ele>1671.39</ele>
        <time>2015-02-22T09:46:35Z</time>
      </trkpt>
      <trkpt lat="45.32128" lon="5.83802">
        <ele>1668.02</ele>
        <time>2015-02-22T09:46:36Z</time>
      </trkpt>
      <trkpt lat="45.32129" lon="5.83805">
        <ele>1664.18</ele>
        <time>2015-02-22T09:46:37Z</time>
      </trkpt>
      <trkpt lat="45.32132" lon="5.83807">
        <ele>1660.81</ele>
        <time>2015-02-22T09:46:38Z</time>
      </trkpt>
      <trkpt lat="45.32131" lon="5.83808">
        <ele>1655.53</ele>
        <time>2015-02-22T09:46:40Z</time>
      </trkpt>
      <trkpt lat="45.32131" lon="5.83807">
        <ele>1653.6</ele>
        <time>2015-02-22T09:46:43Z</time>
      </trkpt>
      <trkpt lat="45.32131" lon="5.83807">
        <ele>1653.6</ele>
        <time>2015-02-22T09:47:12Z</time>
      </trkpt>
      <trkpt lat="45.32135" lon="5.83812">
        <ele>1649.76</ele>
        <time>2015-02-22T09:47:45Z</time>
      </trkpt>
      <trkpt lat="45.32146" lon="5.83819">
        <ele>1645.91</ele>
        <time>2015-02-22T09:47:48Z</time>
      </trkpt>
      <trkpt lat="45.32152" lon="5.8382">
        <ele>1643.99</ele>
        <time>2015-02-22T09:47:49Z</time>
      </trkpt>
      <trkpt lat="45.3216" lon="5.83818">
        <ele>1642.07</ele>
        <time>2015-02-22T09:47:51Z</time>
      </trkpt>
      <trkpt lat="45.32165" lon="5.83815">
        <ele>1638.22</ele>
        <time>2015-02-22T09:47:53Z</time>
      </trkpt>
      <trkpt lat="45.32168" lon="5.83814">
        <ele>1636.3</ele>
        <time>2015-02-22T09:47:56Z</time>
      </trkpt>
      <trkpt lat="45.3218" lon="5.83808">
        <ele>1634.38</ele>
        <time>2015-02-22T09:48:07Z</time>
      </trkpt>
      <trkpt lat="45.32195" lon="5.83799">
        <ele>1631.01</ele>
        <time>2015-02-22T09:48:10Z</time>
      </trkpt>
      <trkpt lat="45.32209" lon="5.83798">
        <ele>1628.13</ele>
        <time>2015-02-22T09:48:13Z</time>
      </trkpt>
      <trkpt lat="45.32214" lon="5.83797">
        <ele>1625.25</ele>
        <time>2015-02-22T09:48:17Z</time>
      </trkpt>
      <trkpt lat="45.32212" lon="5.83797">
        <ele>1623.8</ele>
        <time>2015-02-22T09:49:28Z</time>
      </trkpt>
      <trkpt lat="45.32213" lon="5.83795">
        <ele>1624.28</ele>
        <time>2015-02-22T09:49:46Z</time>
      </trkpt>
      <trkpt lat="45.32213" lon="5.83792">
        <ele>1624.28</ele>
        <time>2015-02-22T09:49:48Z</time>
      </trkpt>
      <trkpt lat="45.3222" lon="5.8377">
        <ele>1620.44</ele>
        <time>2015-02-22T09:49:53Z</time>
      </trkpt>
      <trkpt lat="45.32223" lon="5.8376">
        <ele>1616.59</ele>
        <time>2015-02-22T09:49:55Z</time>
      </trkpt>
      <trkpt lat="45.3223" lon="5.8375">
        <ele>1612.27</ele>
        <time>2015-02-22T09:49:57Z</time>
      </trkpt>
      <trkpt lat="45.32236" lon="5.8374">
        <ele>1607.94</ele>
        <time>2015-02-22T09:49:59Z</time>
      </trkpt>
      <trkpt lat="45.32248" lon="5.83727">
        <ele>1603.14</ele>
        <time>2015-02-22T09:50:02Z</time>
      </trkpt>
      <trkpt lat="45.32258" lon="5.8372">
        <ele>1598.33</ele>
        <time>2015-02-22T09:50:04Z</time>
      </trkpt>
      <trkpt lat="45.3227" lon="5.83711">
        <ele>1592.56</ele>
        <time>2015-02-22T09:50:06Z</time>
      </trkpt>
      <trkpt lat="45.32278" lon="5.83704">
        <ele>1587.27</ele>
        <time>2015-02-22T09:50:08Z</time>
      </trkpt>
      <trkpt lat="45.32278" lon="5.83696">
        <ele>1581.99</ele>
        <time>2015-02-22T09:50:10Z</time>
      </trkpt>
      <trkpt lat="45.32277" lon="5.83692">
        <ele>1581.99</ele>
        <time>2015-02-22T09:50:11Z</time>
      </trkpt>
      <trkpt lat="45.32281" lon="5.83688">
        <ele>1578.62</ele>
        <time>2015-02-22T09:50:14Z</time>
      </trkpt>
      <trkpt lat="45.32285" lon="5.83688">
        <ele>1576.7</ele>
        <time>2015-02-22T09:50:29Z</time>
      </trkpt>
      <trkpt lat="45.32285" lon="5.83689">
        <ele>1577.66</ele>
        <time>2015-02-22T09:52:03Z</time>
      </trkpt>
      <trkpt lat="45.32304" lon="5.83694">
        <ele>1573.33</ele>
        <time>2015-02-22T09:52:07Z</time>
      </trkpt>
      <trkpt lat="45.3231" lon="5.83696">
        <ele>1569.01</ele>
        <time>2015-02-22T09:52:09Z</time>
      </trkpt>
      <trkpt lat="45.32307" lon="5.83693">
        <ele>1564.2</ele>
        <time>2015-02-22T09:52:17Z</time>
      </trkpt>
      <trkpt lat="45.32306" lon="5.83693">
        <ele>1564.2</ele>
        <time>2015-02-22T09:52:21Z</time>
      </trkpt>
      <trkpt lat="45.32311" lon="5.83695">
        <ele>1562.76</ele>
        <time>2015-02-22T09:52:30Z</time>
      </trkpt>
      <trkpt lat="45.32313" lon="5.83692">
        <ele>1562.28</ele>
        <time>2015-02-22T09:52:31Z</time>
      </trkpt>
      <trkpt lat="45.32322" lon="5.83695">
        <ele>1559.88</ele>
        <time>2015-02-22T09:52:33Z</time>
      </trkpt>
      <trkpt lat="45.32331" lon="5.83688">
        <ele>1554.11</ele>
        <time>2015-02-22T09:52:35Z</time>
      </trkpt>
      <trkpt lat="45.32342" lon="5.83689">
        <ele>1550.74</ele>
        <time>2015-02-22T09:52:37Z</time>
      </trkpt>
      <trkpt lat="45.32345" lon="5.8369">
        <ele>1547.86</ele>
        <time>2015-02-22T09:52:38Z</time>
      </trkpt>
      <trkpt lat="45.3235" lon="5.83688">
        <ele>1541.61</ele>
        <time>2015-02-22T09:52:41Z</time>
      </trkpt>
      <trkpt lat="45.32352" lon="5.83688">
        <ele>1540.17</ele>
        <time>2015-02-22T09:52:44Z</time>
      </trkpt>
      <trkpt lat="45.32356" lon="5.83686">
        <ele>1538.25</ele>
        <time>2015-02-22T09:52:55Z</time>
      </trkpt>
      <trkpt lat="45.32358" lon="5.83685">
        <ele>1538.73</ele>
        <time>2015-02-22T09:53:13Z</time>
      </trkpt>
      <trkpt lat="45.32357" lon="5.83684">
        <ele>1539.21</ele>
        <time>2015-02-22T09:54:28Z</time>
      </trkpt>
      <trkpt lat="45.32357" lon="5.83685">
        <ele>1539.21</ele>
        <time>2015-02-22T09:54:48Z</time>
      </trkpt>
      <trkpt lat="45.32362" lon="5.83672">
        <ele>1539.69</ele>
        <time>2015-02-22T09:55:49Z</time>
      </trkpt>
      <trkpt lat="45.32366" lon="5.83666">
        <ele>1536.32</ele>
        <time>2015-02-22T09:55:51Z</time>
      </trkpt>
      <trkpt lat="45.32367" lon="5.83662">
        <ele>1532.96</ele>
        <time>2015-02-22T09:55:53Z</time>
      </trkpt>
      <trkpt lat="45.32368" lon="5.83661">
        <ele>1531.04</ele>
        <time>2015-02-22T09:55:55Z</time>
      </trkpt>
      <trkpt lat="45.32376" lon="5.83643">
        <ele>1527.19</ele>
        <time>2015-02-22T09:56:03Z</time>
      </trkpt>
      <trkpt lat="45.32381" lon="5.83639">
        <ele>1523.83</ele>
        <time>2015-02-22T09:56:05Z</time>
      </trkpt>
      <trkpt lat="45.32388" lon="5.83637">
        <ele>1518.06</ele>
        <time>2015-02-22T09:56:08Z</time>
      </trkpt>
      <trkpt lat="45.32389" lon="5.83635">
        <ele>1515.66</ele>
        <time>2015-02-22T09:56:11Z</time>
      </trkpt>
      <trkpt lat="45.32388" lon="5.83634">
        <ele>1515.18</ele>
        <time>2015-02-22T09:56:12Z</time>
      </trkpt>
      <trkpt lat="45.32407" lon="5.8361">
        <ele>1511.81</ele>
        <time>2015-02-22T09:56:17Z</time>
      </trkpt>
      <trkpt lat="45.32416" lon="5.83604">
        <ele>1506.04</ele>
        <time>2015-02-22T09:56:19Z</time>
      </trkpt>
      <trkpt lat="45.32418" lon="5.83602">
        <ele>1500.27</ele>
        <time>2015-02-22T09:56:21Z</time>
      </trkpt>
      <trkpt lat="45.32418" lon="5.83602">
        <ele>1500.27</ele>
        <time>2015-02-22T09:56:22Z</time>
      </trkpt>
      <trkpt lat="45.32416" lon="5.83602">
        <ele>1497.87</ele>
        <time>2015-02-22T09:56:25Z</time>
      </trkpt>
      <trkpt lat="45.32417" lon="5.83603">
        <ele>1498.83</ele>
        <time>2015-02-22T09:56:55Z</time>
      </trkpt>
      <trkpt lat="45.32417" lon="5.83605">
        <ele>1498.35</ele>
        <time>2015-02-22T09:56:59Z</time>
      </trkpt>
      <trkpt lat="45.32421" lon="5.83616">
        <ele>1496.91</ele>
        <time>2015-02-22T09:57:08Z</time>
      </trkpt>
      <trkpt lat="45.32421" lon="5.83621">
        <ele>1496.91</ele>
        <time>2015-02-22T09:57:21Z</time>
      </trkpt>
      <trkpt lat="45.32424" lon="5.83633">
        <ele>1496.43</ele>
        <time>2015-02-22T09:57:33Z</time>
      </trkpt>
      <trkpt lat="45.32429" lon="5.83654">
        <ele>1494.99</ele>
        <time>2015-02-22T09:57:46Z</time>
      </trkpt>
      <trkpt lat="45.32429" lon="5.83669">
        <ele>1494.51</ele>
        <time>2015-02-22T09:58:01Z</time>
      </trkpt>
      <trkpt lat="45.32429" lon="5.8369">
        <ele>1493.06</ele>
        <time>2015-02-22T09:58:13Z</time>
      </trkpt>
      <trkpt lat="45.32433" lon="5.83703">
        <ele>1491.14</ele>
        <time>2015-02-22T09:58:22Z</time>
      </trkpt>
      <trkpt lat="45.32436" lon="5.83713">
        <ele>1489.22</ele>
        <time>2015-02-22T09:58:34Z</time>
      </trkpt>
      <trkpt lat="45.32434" lon="5.83718">
        <ele>1489.22</ele>
        <time>2015-02-22T09:58:44Z</time>
      </trkpt>
      <trkpt lat="45.32432" lon="5.8373">
        <ele>1488.26</ele>
        <time>2015-02-22T09:58:51Z</time>
      </trkpt>
      <trkpt lat="45.32429" lon="5.83748">
        <ele>1486.82</ele>
        <time>2015-02-22T09:59:07Z</time>
      </trkpt>
      <trkpt lat="45.32429" lon="5.83748">
        <ele>1486.82</ele>
        <time>2015-02-22T09:59:21Z</time>
      </trkpt>
      <trkpt lat="45.32429" lon="5.8375">
        <ele>1486.82</ele>
        <time>2015-02-22T09:59:54Z</time>
      </trkpt>
      <trkpt lat="45.32427" lon="5.83758">
        <ele>1486.34</ele>
        <time>2015-02-22T10:00:12Z</time>
      </trkpt>
      <trkpt lat="45.32426" lon="5.83767">
        <ele>1485.37</ele>
        <time>2015-02-22T10:00:13Z</time>
      </trkpt>
      <trkpt lat="45.32436" lon="5.83783">
        <ele>1479.61</ele>
        <time>2015-02-22T10:00:16Z</time>
      </trkpt>
      <trkpt lat="45.32446" lon="5.83785">
        <ele>1476.24</ele>
        <time>2015-02-22T10:00:18Z</time>
      </trkpt>
      <trkpt lat="45.32448" lon="5.83784">
        <ele>1473.36</ele>
        <time>2015-02-22T10:00:19Z</time>
      </trkpt>
      <trkpt lat="45.32452" lon="5.83781">
        <ele>1469.99</ele>
        <time>2015-02-22T10:00:20Z</time>
      </trkpt>
      <trkpt lat="45.32462" lon="5.83772">
        <ele>1463.26</ele>
        <time>2015-02-22T10:00:22Z</time>
      </trkpt>
      <trkpt lat="45.32474" lon="5.8377">
        <ele>1457.02</ele>
        <time>2015-02-22T10:00:24Z</time>
      </trkpt>
      <trkpt lat="45.3248" lon="5.83772">
        <ele>1453.17</ele>
        <time>2015-02-22T10:00:25Z</time>
      </trkpt>
      <trkpt lat="45.32484" lon="5.83775">
        <ele>1449.81</ele>
        <time>2015-02-22T10:00:26Z</time>
      </trkpt>
      <trkpt lat="45.32488" lon="5.83777">
        <ele>1446.44</ele>
        <time>2015-02-22T10:00:27Z</time>
      </trkpt>
      <trkpt lat="45.32494" lon="5.83779">
        <ele>1446.44</ele>
        <time>2015-02-22T10:00:28Z</time>
      </trkpt>
      <trkpt lat="45.32498" lon="5.83781">
        <ele>1442.6</ele>
        <time>2015-02-22T10:00:29Z</time>
      </trkpt>
      <trkpt lat="45.32508" lon="5.83782">
        <ele>1436.35</ele>
        <time>2015-02-22T10:00:31Z</time>
      </trkpt>
      <trkpt lat="45.3251" lon="5.83784">
        <ele>1432.98</ele>
        <time>2015-02-22T10:00:32Z</time>
      </trkpt>
      <trkpt lat="45.32514" lon="5.83786">
        <ele>1429.14</ele>
        <time>2015-02-22T10:00:34Z</time>
      </trkpt>
      <trkpt lat="45.32511" lon="5.83783">
        <ele>1427.21</ele>
        <time>2015-02-22T10:00:37Z</time>
      </trkpt>
      <trkpt lat="45.32512" lon="5.83781">
        <ele>1427.7</ele>
        <time>2015-02-22T10:01:15Z</time>
      </trkpt>
      <trkpt lat="45.32512" lon="5.83777">
        <ele>1427.7</ele>
        <time>2015-02-22T10:01:47Z</time>
      </trkpt>
      <trkpt lat="45.32513" lon="5.83768">
        <ele>1426.73</ele>
        <time>2015-02-22T10:02:16Z</time>
      </trkpt>
      <trkpt lat="45.32512" lon="5.83748">
        <ele>1426.25</ele>
        <time>2015-02-22T10:02:24Z</time>
      </trkpt>
      <trkpt lat="45.32511" lon="5.83727">
        <ele>1425.29</ele>
        <time>2015-02-22T10:02:35Z</time>
      </trkpt>
      <trkpt lat="45.32514" lon="5.83733">
        <ele>1423.85</ele>
        <time>2015-02-22T10:02:37Z</time>
      </trkpt>
      <trkpt lat="45.32518" lon="5.83738">
        <ele>1420</ele>
        <time>2015-02-22T10:02:39Z</time>
      </trkpt>
      <trkpt lat="45.32523" lon="5.8374">
        <ele>1416.64</ele>
        <time>2015-02-22T10:02:40Z</time>
      </trkpt>
      <trkpt lat="45.32534" lon="5.83739">
        <ele>1409.91</ele>
        <time>2015-02-22T10:02:42Z</time>
      </trkpt>
      <trkpt lat="45.32539" lon="5.83739">
        <ele>1406.07</ele>
        <time>2015-02-22T10:02:43Z</time>
      </trkpt>
      <trkpt lat="45.32544" lon="5.83741">
        <ele>1402.22</ele>
        <time>2015-02-22T10:02:44Z</time>
      </trkpt>
      <trkpt lat="45.32557" lon="5.83735">
        <ele>1394.53</ele>
        <time>2015-02-22T10:02:46Z</time>
      </trkpt>
      <trkpt lat="45.32563" lon="5.83732">
        <ele>1390.68</ele>
        <time>2015-02-22T10:02:47Z</time>
      </trkpt>
      <trkpt lat="45.32569" lon="5.83729">
        <ele>1390.68</ele>
        <time>2015-02-22T10:02:48Z</time>
      </trkpt>
      <trkpt lat="45.32571" lon="5.83726">
        <ele>1387.8</ele>
        <time>2015-02-22T10:02:49Z</time>
      </trkpt>
      <trkpt lat="45.32576" lon="5.83724">
        <ele>1384.44</ele>
        <time>2015-02-22T10:02:50Z</time>
      </trkpt>
      <trkpt lat="45.32588" lon="5.8372">
        <ele>1379.15</ele>
        <time>2015-02-22T10:02:52Z</time>
      </trkpt>
      <trkpt lat="45.32599" lon="5.8372">
        <ele>1372.42</ele>
        <time>2015-02-22T10:02:54Z</time>
      </trkpt>
      <trkpt lat="45.32603" lon="5.8372">
        <ele>1369.54</ele>
        <time>2015-02-22T10:02:55Z</time>
      </trkpt>
      <trkpt lat="45.32613" lon="5.83719">
        <ele>1362.33</ele>
        <time>2015-02-22T10:02:57Z</time>
      </trkpt>
      <trkpt lat="45.32618" lon="5.83718">
        <ele>1362.33</ele>
        <time>2015-02-22T10:02:58Z</time>
      </trkpt>
      <trkpt lat="45.32624" lon="5.83718">
        <ele>1358.96</ele>
        <time>2015-02-22T10:02:59Z</time>
      </trkpt>
      <trkpt lat="45.32634" lon="5.83719">
        <ele>1352.23</ele>
        <time>2015-02-22T10:03:01Z</time>
      </trkpt>
      <trkpt lat="45.32639" lon="5.8372">
        <ele>1347.91</ele>
        <time>2015-02-22T10:03:03Z</time>
      </trkpt>
      <trkpt lat="45.32645" lon="5.8372">
        <ele>1345.98</ele>
        <time>2015-02-22T10:03:12Z</time>
      </trkpt>
      <trkpt lat="45.32646" lon="5.8372">
        <ele>1345.5</ele>
        <time>2015-02-22T10:03:56Z</time>
      </trkpt>
      <trkpt lat="45.32646" lon="5.8372">
        <ele>1348.87</ele>
        <time>2015-02-22T10:05:14Z</time>
      </trkpt>
      <trkpt lat="45.32646" lon="5.83721">
        <ele>1349.35</ele>
        <time>2015-02-22T10:05:23Z</time>
      </trkpt>
      <trkpt lat="45.32659" lon="5.8373">
        <ele>1345.02</ele>
        <time>2015-02-22T10:05:27Z</time>
      </trkpt>
      <trkpt lat="45.3267" lon="5.83736">
        <ele>1340.7</ele>
        <time>2015-02-22T10:05:30Z</time>
      </trkpt>
      <trkpt lat="45.32672" lon="5.83735">
        <ele>1338.77</ele>
        <time>2015-02-22T10:05:31Z</time>
      </trkpt>
      <trkpt lat="45.32681" lon="5.83731">
        <ele>1333.49</ele>
        <time>2015-02-22T10:05:34Z</time>
      </trkpt>
      <trkpt lat="45.32694" lon="5.83731">
        <ele>1326.76</ele>
        <time>2015-02-22T10:05:37Z</time>
      </trkpt>
      <trkpt lat="45.32702" lon="5.83727">
        <ele>1321.95</ele>
        <time>2015-02-22T10:05:40Z</time>
      </trkpt>
      <trkpt lat="45.32708" lon="5.83719">
        <ele>1316.66</ele>
        <time>2015-02-22T10:05:42Z</time>
      </trkpt>
      <trkpt lat="45.32711" lon="5.83716">
        <ele>1314.26</ele>
        <time>2015-02-22T10:05:43Z</time>
      </trkpt>
      <trkpt lat="45.32717" lon="5.83715">
        <ele>1308.49</ele>
        <time>2015-02-22T10:05:45Z</time>
      </trkpt>
      <trkpt lat="45.3272" lon="5.83712">
        <ele>1305.13</ele>
        <time>2015-02-22T10:05:46Z</time>
      </trkpt>
      <trkpt lat="45.32724" lon="5.83709">
        <ele>1301.28</ele>
        <time>2015-02-22T10:05:47Z</time>
      </trkpt>
      <trkpt lat="45.32733" lon="5.83713">
        <ele>1297.92</ele>
        <time>2015-02-22T10:05:49Z</time>
      </trkpt>
      <trkpt lat="45.32737" lon="5.83718">
        <ele>1294.55</ele>
        <time>2015-02-22T10:05:50Z</time>
      </trkpt>
      <trkpt lat="45.32742" lon="5.83723">
        <ele>1291.67</ele>
        <time>2015-02-22T10:05:51Z</time>
      </trkpt>
      <trkpt lat="45.32751" lon="5.83733">
        <ele>1285.9</ele>
        <time>2015-02-22T10:05:53Z</time>
      </trkpt>
      <trkpt lat="45.32755" lon="5.83736">
        <ele>1283.02</ele>
        <time>2015-02-22T10:05:54Z</time>
      </trkpt>
      <trkpt lat="45.32768" lon="5.83741">
        <ele>1274.36</ele>
        <time>2015-02-22T10:05:57Z</time>
      </trkpt>
      <trkpt lat="45.32776" lon="5.83746">
        <ele>1269.08</ele>
        <time>2015-02-22T10:05:59Z</time>
      </trkpt>
      <trkpt lat="45.32778" lon="5.83748">
        <ele>1269.08</ele>
        <time>2015-02-22T10:06:00Z</time>
      </trkpt>
      <trkpt lat="45.32785" lon="5.83753">
        <ele>1263.31</ele>
        <time>2015-02-22T10:06:02Z</time>
      </trkpt>
      <trkpt lat="45.32794" lon="5.83761">
        <ele>1258.02</ele>
        <time>2015-02-22T10:06:04Z</time>
      </trkpt>
      <trkpt lat="45.32801" lon="5.83769">
        <ele>1252.74</ele>
        <time>2015-02-22T10:06:06Z</time>
      </trkpt>
      <trkpt lat="45.32805" lon="5.83773">
        <ele>1250.33</ele>
        <time>2015-02-22T10:06:07Z</time>
      </trkpt>
      <trkpt lat="45.32818" lon="5.83776">
        <ele>1242.16</ele>
        <time>2015-02-22T10:06:10Z</time>
      </trkpt>
      <trkpt lat="45.32832" lon="5.83775">
        <ele>1236.87</ele>
        <time>2015-02-22T10:06:13Z</time>
      </trkpt>
      <trkpt lat="45.32847" lon="5.83778">
        <ele>1228.7</ele>
        <time>2015-02-22T10:06:16Z</time>
      </trkpt>
      <trkpt lat="45.32853" lon="5.83787">
        <ele>1223.42</ele>
        <time>2015-02-22T10:06:18Z</time>
      </trkpt>
      <trkpt lat="45.32856" lon="5.83793">
        <ele>1221.01</ele>
        <time>2015-02-22T10:06:19Z</time>
      </trkpt>
      <trkpt lat="45.32862" lon="5.83801">
        <ele>1216.69</ele>
        <time>2015-02-22T10:06:21Z</time>
      </trkpt>
      <trkpt lat="45.32867" lon="5.83802">
        <ele>1215.24</ele>
        <time>2015-02-22T10:06:23Z</time>
      </trkpt>
      <trkpt lat="45.32871" lon="5.838">
        <ele>1210.92</ele>
        <time>2015-02-22T10:06:26Z</time>
      </trkpt>
      <trkpt lat="45.32876" lon="5.83802">
        <ele>1207.55</ele>
        <time>2015-02-22T10:06:30Z</time>
      </trkpt>
      <trkpt lat="45.32876" lon="5.83804">
        <ele>1206.11</ele>
        <time>2015-02-22T10:07:36Z</time>
      </trkpt>
      <trkpt lat="45.32876" lon="5.83804">
        <ele>1207.07</ele>
        <time>2015-02-22T10:08:09Z</time>
      </trkpt>
      <trkpt lat="45.32882" lon="5.83815">
        <ele>1205.63</ele>
        <time>2015-02-22T10:08:13Z</time>
      </trkpt>
      <trkpt lat="45.32891" lon="5.83811">
        <ele>1200.82</ele>
        <time>2015-02-22T10:08:16Z</time>
      </trkpt>
      <trkpt lat="45.32894" lon="5.8381">
        <ele>1198.9</ele>
        <time>2015-02-22T10:08:17Z</time>
      </trkpt>
      <trkpt lat="45.32904" lon="5.83812">
        <ele>1193.61</ele>
        <time>2015-02-22T10:08:20Z</time>
      </trkpt>
      <trkpt lat="45.32909" lon="5.83816">
        <ele>1191.69</ele>
        <time>2015-02-22T10:08:22Z</time>
      </trkpt>
      <trkpt lat="45.32916" lon="5.83812">
        <ele>1185.44</ele>
        <time>2015-02-22T10:08:25Z</time>
      </trkpt>
      <trkpt lat="45.32926" lon="5.83825">
        <ele>1179.67</ele>
        <time>2015-02-22T10:08:29Z</time>
      </trkpt>
      <trkpt lat="45.32929" lon="5.83828">
        <ele>1176.31</ele>
        <time>2015-02-22T10:08:31Z</time>
      </trkpt>
      <trkpt lat="45.32933" lon="5.83827">
        <ele>1173.43</ele>
        <time>2015-02-22T10:08:34Z</time>
      </trkpt>
      <trkpt lat="45.3294" lon="5.83837">
        <ele>1169.1</ele>
        <time>2015-02-22T10:08:39Z</time>
      </trkpt>
      <trkpt lat="45.32944" lon="5.83844">
        <ele>1164.77</ele>
        <time>2015-02-22T10:08:41Z</time>
      </trkpt>
      <trkpt lat="45.32948" lon="5.8385">
        <ele>1159.01</ele>
        <time>2015-02-22T10:08:43Z</time>
      </trkpt>
      <trkpt lat="45.32953" lon="5.83855">
        <ele>1156.12</ele>
        <time>2015-02-22T10:08:45Z</time>
      </trkpt>
      <trkpt lat="45.32965" lon="5.83859">
        <ele>1147.95</ele>
        <time>2015-02-22T10:08:48Z</time>
      </trkpt>
      <trkpt lat="45.32974" lon="5.83868">
        <ele>1142.66</ele>
        <time>2015-02-22T10:08:50Z</time>
      </trkpt>
      <trkpt lat="45.32977" lon="5.83872">
        <ele>1139.78</ele>
        <time>2015-02-22T10:08:51Z</time>
      </trkpt>
      <trkpt lat="45.32981" lon="5.8387">
        <ele>1133.53</ele>
        <time>2015-02-22T10:08:54Z</time>
      </trkpt>
      <trkpt lat="45.32984" lon="5.83869">
        <ele>1133.53</ele>
        <time>2015-02-22T10:08:55Z</time>
      </trkpt>
      <trkpt lat="45.32991" lon="5.83867">
        <ele>1132.57</ele>
        <time>2015-02-22T10:09:05Z</time>
      </trkpt>
      <trkpt lat="45.32991" lon="5.83869">
        <ele>1132.57</ele>
        <time>2015-02-22T10:10:23Z</time>
      </trkpt>
      <trkpt lat="45.32991" lon="5.8387">
        <ele>1134.49</ele>
        <time>2015-02-22T10:11:09Z</time>
      </trkpt>
      <trkpt lat="45.33002" lon="5.83885">
        <ele>1130.17</ele>
        <time>2015-02-22T10:11:12Z</time>
      </trkpt>
      <trkpt lat="45.33012" lon="5.83893">
        <ele>1127.28</ele>
        <time>2015-02-22T10:11:14Z</time>
      </trkpt>
      <trkpt lat="45.33017" lon="5.83894">
        <ele>1123.92</ele>
        <time>2015-02-22T10:11:15Z</time>
      </trkpt>
      <trkpt lat="45.33029" lon="5.83897">
        <ele>1113.82</ele>
        <time>2015-02-22T10:11:18Z</time>
      </trkpt>
      <trkpt lat="45.33033" lon="5.83903">
        <ele>1108.54</ele>
        <time>2015-02-22T10:11:20Z</time>
      </trkpt>
      <trkpt lat="45.33036" lon="5.83905">
        <ele>1105.65</ele>
        <time>2015-02-22T10:11:21Z</time>
      </trkpt>
      <trkpt lat="45.33044" lon="5.83909">
        <ele>1102.29</ele>
        <time>2015-02-22T10:11:24Z</time>
      </trkpt>
      <trkpt lat="45.33043" lon="5.83914">
        <ele>1101.33</ele>
        <time>2015-02-22T10:11:33Z</time>
      </trkpt>
      <trkpt lat="45.33043" lon="5.83913">
        <ele>1100.85</ele>
        <time>2015-02-22T10:11:43Z</time>
      </trkpt>
      <trkpt lat="45.33043" lon="5.83922">
        <ele>1098.92</ele>
        <time>2015-02-22T10:11:46Z</time>
      </trkpt>
      <trkpt lat="45.33045" lon="5.83931">
        <ele>1095.56</ele>
        <time>2015-02-22T10:11:48Z</time>
      </trkpt>
      <trkpt lat="45.33047" lon="5.83941">
        <ele>1091.23</ele>
        <time>2015-02-22T10:11:50Z</time>
      </trkpt>
      <trkpt lat="45.3305" lon="5.83946">
        <ele>1088.83</ele>
        <time>2015-02-22T10:11:51Z</time>
      </trkpt>
      <trkpt lat="45.33056" lon="5.83962">
        <ele>1080.66</ele>
        <time>2015-02-22T10:11:54Z</time>
      </trkpt>
      <trkpt lat="45.33061" lon="5.83967">
        <ele>1077.78</ele>
        <time>2015-02-22T10:11:55Z</time>
      </trkpt>
      <trkpt lat="45.33071" lon="5.83977">
        <ele>1072.01</ele>
        <time>2015-02-22T10:11:58Z</time>
      </trkpt>
      <trkpt lat="45.33077" lon="5.8398">
        <ele>1067.2</ele>
        <time>2015-02-22T10:12:00Z</time>
      </trkpt>
      <trkpt lat="45.33081" lon="5.83982">
        <ele>1064.8</ele>
        <time>2015-02-22T10:12:01Z</time>
      </trkpt>
      <trkpt lat="45.33092" lon="5.83985">
        <ele>1058.07</ele>
        <time>2015-02-22T10:12:04Z</time>
      </trkpt>
      <trkpt lat="45.33096" lon="5.83986">
        <ele>1055.67</ele>
        <time>2015-02-22T10:12:05Z</time>
      </trkpt>
      <trkpt lat="45.33107" lon="5.83995">
        <ele>1050.86</ele>
        <time>2015-02-22T10:12:08Z</time>
      </trkpt>
      <trkpt lat="45.33114" lon="5.84002">
        <ele>1047.01</ele>
        <time>2015-02-22T10:12:10Z</time>
      </trkpt>
      <trkpt lat="45.33127" lon="5.84008">
        <ele>1040.76</ele>
        <time>2015-02-22T10:12:13Z</time>
      </trkpt>
      <trkpt lat="45.33135" lon="5.84013">
        <ele>1036.92</ele>
        <time>2015-02-22T10:12:15Z</time>
      </trkpt>
      <trkpt lat="45.33138" lon="5.8402">
        <ele>1035</ele>
        <time>2015-02-22T10:12:17Z</time>
      </trkpt>
      <trkpt lat="45.33142" lon="5.84025">
        <ele>1031.63</ele>
        <time>2015-02-22T10:12:19Z</time>
      </trkpt>
      <trkpt lat="45.33158" lon="5.84025">
        <ele>1027.79</ele>
        <time>2015-02-22T10:12:22Z</time>
      </trkpt>
      <trkpt lat="45.33165" lon="5.84037">
        <ele>1023.46</ele>
        <time>2015-02-22T10:12:25Z</time>
      </trkpt>
      <trkpt lat="45.33167" lon="5.84044">
        <ele>1020.58</ele>
        <time>2015-02-22T10:12:27Z</time>
      </trkpt>
      <trkpt lat="45.3317" lon="5.84046">
        <ele>1020.58</ele>
        <time>2015-02-22T10:12:28Z</time>
      </trkpt>
      <trkpt lat="45.33177" lon="5.84052">
        <ele>1017.21</ele>
        <time>2015-02-22T10:12:30Z</time>
      </trkpt>
      <trkpt lat="45.33183" lon="5.84058">
        <ele>1013.85</ele>
        <time>2015-02-22T10:12:32Z</time>
      </trkpt>
      <trkpt lat="45.33189" lon="5.84065">
        <ele>1010.48</ele>
        <time>2015-02-22T10:12:34Z</time>
      </trkpt>
      <trkpt lat="45.33196" lon="5.84074">
        <ele>1007.12</ele>
        <time>2015-02-22T10:12:36Z</time>
      </trkpt>
      <trkpt lat="45.33204" lon="5.84079">
        <ele>1003.27</ele>
        <time>2015-02-22T10:12:38Z</time>
      </trkpt>
      <trkpt lat="45.33207" lon="5.84082">
        <ele>1003.27</ele>
        <time>2015-02-22T10:12:39Z</time>
      </trkpt>
      <trkpt lat="45.33214" lon="5.8409">
        <ele>999.43</ele>
        <time>2015-02-22T10:12:41Z</time>
      </trkpt>
      <trkpt lat="45.33221" lon="5.84099">
        <ele>996.06</ele>
        <time>2015-02-22T10:12:43Z</time>
      </trkpt>
      <trkpt lat="45.33229" lon="5.8411">
        <ele>990.78</ele>
        <time>2015-02-22T10:12:46Z</time>
      </trkpt>
      <trkpt lat="45.33234" lon="5.84118">
        <ele>987.89</ele>
        <time>2015-02-22T10:12:48Z</time>
      </trkpt>
      <trkpt lat="45.33239" lon="5.84126">
        <ele>986.45</ele>
        <time>2015-02-22T10:12:50Z</time>
      </trkpt>
      <trkpt lat="45.33243" lon="5.84136">
        <ele>983.09</ele>
        <time>2015-02-22T10:12:52Z</time>
      </trkpt>
      <trkpt lat="45.33248" lon="5.84144">
        <ele>980.2</ele>
        <time>2015-02-22T10:12:54Z</time>
      </trkpt>
      <trkpt lat="45.33254" lon="5.84153">
        <ele>976.84</ele>
        <time>2015-02-22T10:12:57Z</time>
      </trkpt>
      <trkpt lat="45.3326" lon="5.84164">
        <ele>973.47</ele>
        <time>2015-02-22T10:13:00Z</time>
      </trkpt>
      <trkpt lat="45.33263" lon="5.84171">
        <ele>972.51</ele>
        <time>2015-02-22T10:13:02Z</time>
      </trkpt>
      <trkpt lat="45.33266" lon="5.84184">
        <ele>968.67</ele>
        <time>2015-02-22T10:13:06Z</time>
      </trkpt>
      <trkpt lat="45.33275" lon="5.842">
        <ele>965.3</ele>
        <time>2015-02-22T10:13:13Z</time>
      </trkpt>
      <trkpt lat="45.33285" lon="5.84205">
        <ele>962.9</ele>
        <time>2015-02-22T10:13:17Z</time>
      </trkpt>
      <trkpt lat="45.33295" lon="5.84202">
        <ele>959.05</ele>
        <time>2015-02-22T10:13:22Z</time>
      </trkpt>
      <trkpt lat="45.33295" lon="5.84203">
        <ele>959.05</ele>
        <time>2015-02-22T10:13:23Z</time>
      </trkpt>
      <trkpt lat="45.33294" lon="5.84203">
        <ele>959.05</ele>
        <time>2015-02-22T10:13:24Z</time>
      </trkpt>
      <trkpt lat="45.33288" lon="5.84223">
        <ele>957.61</ele>
        <time>2015-02-22T10:13:33Z</time>
      </trkpt>
      <trkpt lat="45.33286" lon="5.84227">
        <ele>958.09</ele>
        <time>2015-02-22T10:16:51Z</time>
      </trkpt>
      <trkpt lat="45.33284" lon="5.84231">
        <ele>958.57</ele>
        <time>2015-02-22T10:18:15Z</time>
      </trkpt>
      <trkpt lat="45.33285" lon="5.84238">
        <ele>960.01</ele>
        <time>2015-02-22T10:19:26Z</time>
      </trkpt>
      <trkpt lat="45.33281" lon="5.84239">
        <ele>960.01</ele>
        <time>2015-02-22T10:19:53Z</time>
      </trkpt>
      <trkpt lat="45.33281" lon="5.84244">
        <ele>958.57</ele>
        <time>2015-02-22T10:21:38Z</time>
      </trkpt>
      <trkpt lat="45.33278" lon="5.84239">
        <ele>959.53</ele>
        <time>2015-02-22T10:23:48Z</time>
      </trkpt>
      <trkpt lat="45.3328" lon="5.84239">
        <ele>959.05</ele>
        <time>2015-02-22T10:26:33Z</time>
      </trkpt>
      <trkpt lat="45.33273" lon="5.84239">
        <ele>960.01</ele>
        <time>2015-02-22T10:28:27Z</time>
      </trkpt>
      <trkpt lat="45.33264" lon="5.84252">
        <ele>963.38</ele>
        <time>2015-02-22T10:28:47Z</time>
      </trkpt>
      <trkpt lat="45.33256" lon="5.84252">
        <ele>964.82</ele>
        <time>2015-02-22T10:28:55Z</time>
      </trkpt>
      <trkpt lat="45.33237" lon="5.84247">
        <ele>966.74</ele>
        <time>2015-02-22T10:29:16Z</time>
      </trkpt>
      <trkpt lat="45.3321" lon="5.84248">
        <ele>970.11</ele>
        <time>2015-02-22T10:29:44Z</time>
      </trkpt>
      <trkpt lat="45.33192" lon="5.84252">
        <ele>972.99</ele>
        <time>2015-02-22T10:30:09Z</time>
      </trkpt>
      <trkpt lat="45.33177" lon="5.84259">
        <ele>976.36</ele>
        <time>2015-02-22T10:30:28Z</time>
      </trkpt>
      <trkpt lat="45.33164" lon="5.84265">
        <ele>979.24</ele>
        <time>2015-02-22T10:30:48Z</time>
      </trkpt>
      <trkpt lat="45.33151" lon="5.84276">
        <ele>982.12</ele>
        <time>2015-02-22T10:31:11Z</time>
      </trkpt>
      <trkpt lat="45.33138" lon="5.84285">
        <ele>984.53</ele>
        <time>2015-02-22T10:31:27Z</time>
      </trkpt>
      <trkpt lat="45.33125" lon="5.84305">
        <ele>987.41</ele>
        <time>2015-02-22T10:31:48Z</time>
      </trkpt>
      <trkpt lat="45.33116" lon="5.84321">
        <ele>989.33</ele>
        <time>2015-02-22T10:32:03Z</time>
      </trkpt>
      <trkpt lat="45.33107" lon="5.84339">
        <ele>991.26</ele>
        <time>2015-02-22T10:32:19Z</time>
      </trkpt>
      <trkpt lat="45.33102" lon="5.84353">
        <ele>993.18</ele>
        <time>2015-02-22T10:32:33Z</time>
      </trkpt>
      <trkpt lat="45.33092" lon="5.8438">
        <ele>996.54</ele>
        <time>2015-02-22T10:32:56Z</time>
      </trkpt>
      <trkpt lat="45.33089" lon="5.84396">
        <ele>998.95</ele>
        <time>2015-02-22T10:33:10Z</time>
      </trkpt>
      <trkpt lat="45.33082" lon="5.84411">
        <ele>1000.87</ele>
        <time>2015-02-22T10:33:23Z</time>
      </trkpt>
      <trkpt lat="45.33072" lon="5.8442">
        <ele>1002.79</ele>
        <time>2015-02-22T10:33:36Z</time>
      </trkpt>
      <trkpt lat="45.33066" lon="5.84426">
        <ele>1004.72</ele>
        <time>2015-02-22T10:33:48Z</time>
      </trkpt>
      <trkpt lat="45.33047" lon="5.84438">
        <ele>1007.6</ele>
        <time>2015-02-22T10:34:11Z</time>
      </trkpt>
      <trkpt lat="45.33034" lon="5.84443">
        <ele>1009.52</ele>
        <time>2015-02-22T10:34:25Z</time>
      </trkpt>
      <trkpt lat="45.33024" lon="5.84451">
        <ele>1011.44</ele>
        <time>2015-02-22T10:34:40Z</time>
      </trkpt>
      <trkpt lat="45.33016" lon="5.84469">
        <ele>1014.81</ele>
        <time>2015-02-22T10:34:58Z</time>
      </trkpt>
      <trkpt lat="45.33009" lon="5.84482">
        <ele>1016.73</ele>
        <time>2015-02-22T10:35:15Z</time>
      </trkpt>
      <trkpt lat="45.33002" lon="5.84498">
        <ele>1019.13</ele>
        <time>2015-02-22T10:35:29Z</time>
      </trkpt>
      <trkpt lat="45.32992" lon="5.84519">
        <ele>1022.02</ele>
        <time>2015-02-22T10:35:50Z</time>
      </trkpt>
      <trkpt lat="45.32981" lon="5.84534">
        <ele>1024.9</ele>
        <time>2015-02-22T10:36:10Z</time>
      </trkpt>
      <trkpt lat="45.32972" lon="5.84542">
        <ele>1028.27</ele>
        <time>2015-02-22T10:36:28Z</time>
      </trkpt>
      <trkpt lat="45.32963" lon="5.84531">
        <ele>1031.15</ele>
        <time>2015-02-22T10:36:44Z</time>
      </trkpt>
      <trkpt lat="45.3296" lon="5.84514">
        <ele>1034.04</ele>
        <time>2015-02-22T10:37:02Z</time>
      </trkpt>
      <trkpt lat="45.32957" lon="5.84488">
        <ele>1036.92</ele>
        <time>2015-02-22T10:37:22Z</time>
      </trkpt>
      <trkpt lat="45.32955" lon="5.84453">
        <ele>1040.28</ele>
        <time>2015-02-22T10:37:49Z</time>
      </trkpt>
      <trkpt lat="45.32957" lon="5.84427">
        <ele>1043.65</ele>
        <time>2015-02-22T10:38:09Z</time>
      </trkpt>
      <trkpt lat="45.32958" lon="5.84405">
        <ele>1046.53</ele>
        <time>2015-02-22T10:38:29Z</time>
      </trkpt>
      <trkpt lat="45.32957" lon="5.84384">
        <ele>1049.42</ele>
        <time>2015-02-22T10:38:46Z</time>
      </trkpt>
      <trkpt lat="45.32956" lon="5.84359">
        <ele>1052.78</ele>
        <time>2015-02-22T10:39:05Z</time>
      </trkpt>
      <trkpt lat="45.32964" lon="5.84336">
        <ele>1055.67</ele>
        <time>2015-02-22T10:39:24Z</time>
      </trkpt>
      <trkpt lat="45.32967" lon="5.84316">
        <ele>1058.55</ele>
        <time>2015-02-22T10:39:45Z</time>
      </trkpt>
      <trkpt lat="45.32971" lon="5.84299">
        <ele>1061.91</ele>
        <time>2015-02-22T10:40:01Z</time>
      </trkpt>
      <trkpt lat="45.32974" lon="5.84277">
        <ele>1064.8</ele>
        <time>2015-02-22T10:40:20Z</time>
      </trkpt>
      <trkpt lat="45.32975" lon="5.84262">
        <ele>1068.16</ele>
        <time>2015-02-22T10:40:37Z</time>
      </trkpt>
      <trkpt lat="45.3298" lon="5.84241">
        <ele>1071.05</ele>
        <time>2015-02-22T10:40:55Z</time>
      </trkpt>
      <trkpt lat="45.32984" lon="5.84227">
        <ele>1073.93</ele>
        <time>2015-02-22T10:41:09Z</time>
      </trkpt>
      <trkpt lat="45.32986" lon="5.84213">
        <ele>1075.85</ele>
        <time>2015-02-22T10:41:26Z</time>
      </trkpt>
      <trkpt lat="45.32984" lon="5.84196">
        <ele>1078.74</ele>
        <time>2015-02-22T10:41:41Z</time>
      </trkpt>
      <trkpt lat="45.32979" lon="5.84195">
        <ele>1080.18</ele>
        <time>2015-02-22T10:41:49Z</time>
      </trkpt>
      <trkpt lat="45.32972" lon="5.84213">
        <ele>1082.58</ele>
        <time>2015-02-22T10:42:04Z</time>
      </trkpt>
      <trkpt lat="45.3297" lon="5.84217">
        <ele>1083.54</ele>
        <time>2015-02-22T10:42:09Z</time>
      </trkpt>
      <trkpt lat="45.3296" lon="5.8423">
        <ele>1085.47</ele>
        <time>2015-02-22T10:42:25Z</time>
      </trkpt>
      <trkpt lat="45.32953" lon="5.84249">
        <ele>1087.87</ele>
        <time>2015-02-22T10:42:43Z</time>
      </trkpt>
      <trkpt lat="45.32942" lon="5.84262">
        <ele>1091.23</ele>
        <time>2015-02-22T10:42:59Z</time>
      </trkpt>
      <trkpt lat="45.32927" lon="5.84281">
        <ele>1094.12</ele>
        <time>2015-02-22T10:43:19Z</time>
      </trkpt>
      <trkpt lat="45.32926" lon="5.84285">
        <ele>1094.6</ele>
        <time>2015-02-22T10:43:23Z</time>
      </trkpt>
      <trkpt lat="45.32925" lon="5.84287">
        <ele>1094.6</ele>
        <time>2015-02-22T10:43:25Z</time>
      </trkpt>
      <trkpt lat="45.3291" lon="5.84299">
        <ele>1097.96</ele>
        <time>2015-02-22T10:43:46Z</time>
      </trkpt>
      <trkpt lat="45.32904" lon="5.84312">
        <ele>1101.33</ele>
        <time>2015-02-22T10:43:59Z</time>
      </trkpt>
      <trkpt lat="45.32891" lon="5.8433">
        <ele>1104.21</ele>
        <time>2015-02-22T10:44:19Z</time>
      </trkpt>
      <trkpt lat="45.32882" lon="5.84342">
        <ele>1107.58</ele>
        <time>2015-02-22T10:44:36Z</time>
      </trkpt>
      <trkpt lat="45.32873" lon="5.84356">
        <ele>1110.46</ele>
        <time>2015-02-22T10:44:54Z</time>
      </trkpt>
      <trkpt lat="45.32856" lon="5.84377">
        <ele>1113.82</ele>
        <time>2015-02-22T10:45:19Z</time>
      </trkpt>
      <trkpt lat="45.32841" lon="5.84388">
        <ele>1116.71</ele>
        <time>2015-02-22T10:45:40Z</time>
      </trkpt>
      <trkpt lat="45.32829" lon="5.84396">
        <ele>1120.07</ele>
        <time>2015-02-22T10:45:59Z</time>
      </trkpt>
      <trkpt lat="45.32815" lon="5.84403">
        <ele>1122.96</ele>
        <time>2015-02-22T10:46:20Z</time>
      </trkpt>
      <trkpt lat="45.328" lon="5.84407">
        <ele>1125.84</ele>
        <time>2015-02-22T10:46:38Z</time>
      </trkpt>
      <trkpt lat="45.3279" lon="5.84418">
        <ele>1129.21</ele>
        <time>2015-02-22T10:46:59Z</time>
      </trkpt>
      <trkpt lat="45.32779" lon="5.84431">
        <ele>1132.09</ele>
        <time>2015-02-22T10:47:21Z</time>
      </trkpt>
      <trkpt lat="45.32766" lon="5.8444">
        <ele>1134.49</ele>
        <time>2015-02-22T10:47:38Z</time>
      </trkpt>
      <trkpt lat="45.32753" lon="5.84459">
        <ele>1137.38</ele>
        <time>2015-02-22T10:47:59Z</time>
      </trkpt>
      <trkpt lat="45.32731" lon="5.8448">
        <ele>1140.26</ele>
        <time>2015-02-22T10:48:28Z</time>
      </trkpt>
      <trkpt lat="45.32729" lon="5.8448">
        <ele>1140.26</ele>
        <time>2015-02-22T10:48:30Z</time>
      </trkpt>
      <trkpt lat="45.32715" lon="5.84474">
        <ele>1142.18</ele>
        <time>2015-02-22T10:48:48Z</time>
      </trkpt>
      <trkpt lat="45.32711" lon="5.8447">
        <ele>1144.11</ele>
        <time>2015-02-22T10:49:00Z</time>
      </trkpt>
      <trkpt lat="45.3271" lon="5.8446">
        <ele>1147.47</ele>
        <time>2015-02-22T10:49:13Z</time>
      </trkpt>
      <trkpt lat="45.32704" lon="5.84457">
        <ele>1150.35</ele>
        <time>2015-02-22T10:49:26Z</time>
      </trkpt>
      <trkpt lat="45.327" lon="5.84448">
        <ele>1153.72</ele>
        <time>2015-02-22T10:49:39Z</time>
      </trkpt>
      <trkpt lat="45.3269" lon="5.84428">
        <ele>1156.6</ele>
        <time>2015-02-22T10:49:59Z</time>
      </trkpt>
      <trkpt lat="45.32671" lon="5.84417">
        <ele>1159.01</ele>
        <time>2015-02-22T10:50:25Z</time>
      </trkpt>
      <trkpt lat="45.3266" lon="5.84412">
        <ele>1161.89</ele>
        <time>2015-02-22T10:50:40Z</time>
      </trkpt>
      <trkpt lat="45.32649" lon="5.84409">
        <ele>1163.81</ele>
        <time>2015-02-22T10:50:56Z</time>
      </trkpt>
      <trkpt lat="45.32634" lon="5.84407">
        <ele>1167.18</ele>
        <time>2015-02-22T10:51:15Z</time>
      </trkpt>
      <trkpt lat="45.32623" lon="5.84407">
        <ele>1170.06</ele>
        <time>2015-02-22T10:51:33Z</time>
      </trkpt>
      <trkpt lat="45.32609" lon="5.84408">
        <ele>1172.95</ele>
        <time>2015-02-22T10:51:56Z</time>
      </trkpt>
      <trkpt lat="45.32599" lon="5.84406">
        <ele>1174.87</ele>
        <time>2015-02-22T10:54:51Z</time>
      </trkpt>
      <trkpt lat="45.32587" lon="5.84403">
        <ele>1178.23</ele>
        <time>2015-02-22T10:55:09Z</time>
      </trkpt>
      <trkpt lat="45.32572" lon="5.84399">
        <ele>1181.12</ele>
        <time>2015-02-22T10:55:28Z</time>
      </trkpt>
      <trkpt lat="45.32556" lon="5.84394">
        <ele>1184.48</ele>
        <time>2015-02-22T10:55:48Z</time>
      </trkpt>
      <trkpt lat="45.32541" lon="5.84393">
        <ele>1187.37</ele>
        <time>2015-02-22T10:56:06Z</time>
      </trkpt>
      <trkpt lat="45.32534" lon="5.84397">
        <ele>1190.25</ele>
        <time>2015-02-22T10:56:17Z</time>
      </trkpt>
      <trkpt lat="45.32514" lon="5.84403">
        <ele>1192.17</ele>
        <time>2015-02-22T10:56:39Z</time>
      </trkpt>
      <trkpt lat="45.32502" lon="5.8441">
        <ele>1195.54</ele>
        <time>2015-02-22T10:56:54Z</time>
      </trkpt>
      <trkpt lat="45.32492" lon="5.84417">
        <ele>1198.42</ele>
        <time>2015-02-22T10:57:11Z</time>
      </trkpt>
      <trkpt lat="45.32479" lon="5.84427">
        <ele>1201.3</ele>
        <time>2015-02-22T10:57:27Z</time>
      </trkpt>
      <trkpt lat="45.32471" lon="5.84433">
        <ele>1202.75</ele>
        <time>2015-02-22T10:57:38Z</time>
      </trkpt>
      <trkpt lat="45.32451" lon="5.84454">
        <ele>1206.11</ele>
        <time>2015-02-22T10:58:04Z</time>
      </trkpt>
      <trkpt lat="45.32433" lon="5.84473">
        <ele>1209.48</ele>
        <time>2015-02-22T10:58:31Z</time>
      </trkpt>
      <trkpt lat="45.32413" lon="5.84487">
        <ele>1212.36</ele>
        <time>2015-02-22T10:58:53Z</time>
      </trkpt>
      <trkpt lat="45.32412" lon="5.84488">
        <ele>1212.36</ele>
        <time>2015-02-22T10:58:54Z</time>
      </trkpt>
      <trkpt lat="45.324" lon="5.84492">
        <ele>1215.72</ele>
        <time>2015-02-22T10:59:09Z</time>
      </trkpt>
      <trkpt lat="45.32394" lon="5.84493">
        <ele>1219.09</ele>
        <time>2015-02-22T10:59:19Z</time>
      </trkpt>
      <trkpt lat="45.32385" lon="5.845">
        <ele>1222.45</ele>
        <time>2015-02-22T10:59:36Z</time>
      </trkpt>
      <trkpt lat="45.32375" lon="5.84504">
        <ele>1225.34</ele>
        <time>2015-02-22T10:59:51Z</time>
      </trkpt>
      <trkpt lat="45.32365" lon="5.84508">
        <ele>1228.22</ele>
        <time>2015-02-22T11:00:06Z</time>
      </trkpt>
      <trkpt lat="45.32357" lon="5.84508">
        <ele>1231.59</ele>
        <time>2015-02-22T11:00:21Z</time>
      </trkpt>
      <trkpt lat="45.3235" lon="5.84501">
        <ele>1234.47</ele>
        <time>2015-02-22T11:00:37Z</time>
      </trkpt>
      <trkpt lat="45.3234" lon="5.84496">
        <ele>1237.83</ele>
        <time>2015-02-22T11:00:55Z</time>
      </trkpt>
      <trkpt lat="45.32336" lon="5.84491">
        <ele>1240.72</ele>
        <time>2015-02-22T11:01:09Z</time>
      </trkpt>
      <trkpt lat="45.32323" lon="5.84492">
        <ele>1244.08</ele>
        <time>2015-02-22T11:01:26Z</time>
      </trkpt>
      <trkpt lat="45.32309" lon="5.84494">
        <ele>1246.97</ele>
        <time>2015-02-22T11:01:45Z</time>
      </trkpt>
      <trkpt lat="45.32292" lon="5.84496">
        <ele>1250.33</ele>
        <time>2015-02-22T11:02:07Z</time>
      </trkpt>
      <trkpt lat="45.32271" lon="5.84497">
        <ele>1252.74</ele>
        <time>2015-02-22T11:02:30Z</time>
      </trkpt>
      <trkpt lat="45.32255" lon="5.84494">
        <ele>1256.1</ele>
        <time>2015-02-22T11:02:51Z</time>
      </trkpt>
      <trkpt lat="45.32241" lon="5.84493">
        <ele>1258.98</ele>
        <time>2015-02-22T11:03:07Z</time>
      </trkpt>
      <trkpt lat="45.32232" lon="5.84491">
        <ele>1262.35</ele>
        <time>2015-02-22T11:03:22Z</time>
      </trkpt>
      <trkpt lat="45.32218" lon="5.8449">
        <ele>1265.71</ele>
        <time>2015-02-22T11:03:40Z</time>
      </trkpt>
      <trkpt lat="45.32216" lon="5.84489">
        <ele>1266.19</ele>
        <time>2015-02-22T11:04:01Z</time>
      </trkpt>
      <trkpt lat="45.32202" lon="5.84493">
        <ele>1269.08</ele>
        <time>2015-02-22T11:04:26Z</time>
      </trkpt>
      <trkpt lat="45.32192" lon="5.84497">
        <ele>1271.96</ele>
        <time>2015-02-22T11:04:43Z</time>
      </trkpt>
      <trkpt lat="45.32186" lon="5.84497">
        <ele>1274.85</ele>
        <time>2015-02-22T11:04:58Z</time>
      </trkpt>
      <trkpt lat="45.32178" lon="5.845">
        <ele>1277.73</ele>
        <time>2015-02-22T11:05:13Z</time>
      </trkpt>
      <trkpt lat="45.32171" lon="5.84505">
        <ele>1281.09</ele>
        <time>2015-02-22T11:05:30Z</time>
      </trkpt>
      <trkpt lat="45.32161" lon="5.84508">
        <ele>1283.98</ele>
        <time>2015-02-22T11:05:49Z</time>
      </trkpt>
      <trkpt lat="45.32144" lon="5.84511">
        <ele>1286.86</ele>
        <time>2015-02-22T11:06:09Z</time>
      </trkpt>
      <trkpt lat="45.32135" lon="5.84507">
        <ele>1289.75</ele>
        <time>2015-02-22T11:06:26Z</time>
      </trkpt>
      <trkpt lat="45.32123" lon="5.84507">
        <ele>1293.11</ele>
        <time>2015-02-22T11:06:43Z</time>
      </trkpt>
      <trkpt lat="45.32113" lon="5.84506">
        <ele>1295.99</ele>
        <time>2015-02-22T11:07:00Z</time>
      </trkpt>
      <trkpt lat="45.32099" lon="5.84505">
        <ele>1299.36</ele>
        <time>2015-02-22T11:07:17Z</time>
      </trkpt>
      <trkpt lat="45.32096" lon="5.84504">
        <ele>1299.84</ele>
        <time>2015-02-22T11:07:20Z</time>
      </trkpt>
      <trkpt lat="45.32086" lon="5.84497">
        <ele>1302.72</ele>
        <time>2015-02-22T11:07:34Z</time>
      </trkpt>
      <trkpt lat="45.32082" lon="5.84486">
        <ele>1306.09</ele>
        <time>2015-02-22T11:07:49Z</time>
      </trkpt>
      <trkpt lat="45.32073" lon="5.8448">
        <ele>1308.97</ele>
        <time>2015-02-22T11:08:06Z</time>
      </trkpt>
      <trkpt lat="45.32058" lon="5.84475">
        <ele>1312.34</ele>
        <time>2015-02-22T11:08:27Z</time>
      </trkpt>
      <trkpt lat="45.32043" lon="5.84472">
        <ele>1315.22</ele>
        <time>2015-02-22T11:08:47Z</time>
      </trkpt>
      <trkpt lat="45.32029" lon="5.8447">
        <ele>1318.1</ele>
        <time>2015-02-22T11:09:07Z</time>
      </trkpt>
      <trkpt lat="45.32011" lon="5.84465">
        <ele>1321.47</ele>
        <time>2015-02-22T11:09:28Z</time>
      </trkpt>
      <trkpt lat="45.31998" lon="5.84459">
        <ele>1323.87</ele>
        <time>2015-02-22T11:09:45Z</time>
      </trkpt>
      <trkpt lat="45.3198" lon="5.84462">
        <ele>1325.8</ele>
        <time>2015-02-22T11:10:03Z</time>
      </trkpt>
      <trkpt lat="45.3196" lon="5.84458">
        <ele>1328.2</ele>
        <time>2015-02-22T11:10:29Z</time>
      </trkpt>
      <trkpt lat="45.31937" lon="5.84453">
        <ele>1330.12</ele>
        <time>2015-02-22T11:10:52Z</time>
      </trkpt>
      <trkpt lat="45.31918" lon="5.84449">
        <ele>1333.49</ele>
        <time>2015-02-22T11:11:13Z</time>
      </trkpt>
      <trkpt lat="45.31906" lon="5.84445">
        <ele>1336.37</ele>
        <time>2015-02-22T11:11:29Z</time>
      </trkpt>
      <trkpt lat="45.31893" lon="5.84442">
        <ele>1339.73</ele>
        <time>2015-02-22T11:11:46Z</time>
      </trkpt>
      <trkpt lat="45.31886" lon="5.84432">
        <ele>1342.62</ele>
        <time>2015-02-22T11:12:08Z</time>
      </trkpt>
      <trkpt lat="45.31877" lon="5.84429">
        <ele>1345.98</ele>
        <time>2015-02-22T11:12:24Z</time>
      </trkpt>
      <trkpt lat="45.31866" lon="5.84426">
        <ele>1348.87</ele>
        <time>2015-02-22T11:12:41Z</time>
      </trkpt>
      <trkpt lat="45.31851" lon="5.84417">
        <ele>1351.75</ele>
        <time>2015-02-22T11:13:03Z</time>
      </trkpt>
      <trkpt lat="45.31843" lon="5.84408">
        <ele>1353.19</ele>
        <time>2015-02-22T11:13:16Z</time>
      </trkpt>
      <trkpt lat="45.31822" lon="5.84391">
        <ele>1354.63</ele>
        <time>2015-02-22T11:13:39Z</time>
      </trkpt>
      <trkpt lat="45.318" lon="5.84379">
        <ele>1355.6</ele>
        <time>2015-02-22T11:14:00Z</time>
      </trkpt>
      <trkpt lat="45.31785" lon="5.84369">
        <ele>1358.96</ele>
        <time>2015-02-22T11:14:22Z</time>
      </trkpt>
      <trkpt lat="45.3177" lon="5.84363">
        <ele>1361.84</ele>
        <time>2015-02-22T11:14:42Z</time>
      </trkpt>
      <trkpt lat="45.31751" lon="5.84367">
        <ele>1362.81</ele>
        <time>2015-02-22T11:14:59Z</time>
      </trkpt>
      <trkpt lat="45.3174" lon="5.84364">
        <ele>1363.29</ele>
        <time>2015-02-22T11:15:11Z</time>
      </trkpt>
      <trkpt lat="45.31722" lon="5.84356">
        <ele>1366.17</ele>
        <time>2015-02-22T11:15:35Z</time>
      </trkpt>
      <trkpt lat="45.31716" lon="5.84353">
        <ele>1369.54</ele>
        <time>2015-02-22T11:15:47Z</time>
      </trkpt>
      <trkpt lat="45.31707" lon="5.84352">
        <ele>1372.42</ele>
        <time>2015-02-22T11:15:59Z</time>
      </trkpt>
      <trkpt lat="45.31694" lon="5.84354">
        <ele>1375.78</ele>
        <time>2015-02-22T11:16:16Z</time>
      </trkpt>
      <trkpt lat="45.31684" lon="5.84354">
        <ele>1378.67</ele>
        <time>2015-02-22T11:16:28Z</time>
      </trkpt>
      <trkpt lat="45.31676" lon="5.84354">
        <ele>1380.59</ele>
        <time>2015-02-22T11:16:40Z</time>
      </trkpt>
      <trkpt lat="45.31666" lon="5.84355">
        <ele>1383.47</ele>
        <time>2015-02-22T11:16:55Z</time>
      </trkpt>
      <trkpt lat="45.31661" lon="5.84355">
        <ele>1386.84</ele>
        <time>2015-02-22T11:17:10Z</time>
      </trkpt>
      <trkpt lat="45.31655" lon="5.84355">
        <ele>1389.24</ele>
        <time>2015-02-22T11:17:23Z</time>
      </trkpt>
      <trkpt lat="45.31646" lon="5.84357">
        <ele>1391.65</ele>
        <time>2015-02-22T11:17:33Z</time>
      </trkpt>
      <trkpt lat="45.31639" lon="5.84354">
        <ele>1393.57</ele>
        <time>2015-02-22T11:17:45Z</time>
      </trkpt>
      <trkpt lat="45.31631" lon="5.84355">
        <ele>1395.49</ele>
        <time>2015-02-22T11:17:56Z</time>
      </trkpt>
      <trkpt lat="45.31628" lon="5.84351">
        <ele>1397.41</ele>
        <time>2015-02-22T11:18:06Z</time>
      </trkpt>
      <trkpt lat="45.31625" lon="5.84347">
        <ele>1398.86</ele>
        <time>2015-02-22T11:18:14Z</time>
      </trkpt>
      <trkpt lat="45.31624" lon="5.84345">
        <ele>1399.34</ele>
        <time>2015-02-22T11:18:17Z</time>
      </trkpt>
      <trkpt lat="45.3162" lon="5.84345">
        <ele>1400.78</ele>
        <time>2015-02-22T11:18:24Z</time>
      </trkpt>
      <trkpt lat="45.31614" lon="5.84344">
        <ele>1402.7</ele>
        <time>2015-02-22T11:18:35Z</time>
      </trkpt>
      <trkpt lat="45.31609" lon="5.8434">
        <ele>1405.58</ele>
        <time>2015-02-22T11:18:46Z</time>
      </trkpt>
      <trkpt lat="45.31608" lon="5.84326">
        <ele>1408.47</ele>
        <time>2015-02-22T11:18:59Z</time>
      </trkpt>
      <trkpt lat="45.31619" lon="5.84321">
        <ele>1411.35</ele>
        <time>2015-02-22T11:19:18Z</time>
      </trkpt>
      <trkpt lat="45.31629" lon="5.84315">
        <ele>1414.72</ele>
        <time>2015-02-22T11:19:36Z</time>
      </trkpt>
      <trkpt lat="45.31624" lon="5.84306">
        <ele>1417.6</ele>
        <time>2015-02-22T11:19:53Z</time>
      </trkpt>
      <trkpt lat="45.31617" lon="5.84303">
        <ele>1419.04</ele>
        <time>2015-02-22T11:20:07Z</time>
      </trkpt>
      <trkpt lat="45.31609" lon="5.843">
        <ele>1421.93</ele>
        <time>2015-02-22T11:20:26Z</time>
      </trkpt>
      <trkpt lat="45.31607" lon="5.8429">
        <ele>1424.81</ele>
        <time>2015-02-22T11:20:54Z</time>
      </trkpt>
      <trkpt lat="45.31601" lon="5.84282">
        <ele>1428.18</ele>
        <time>2015-02-22T11:21:07Z</time>
      </trkpt>
      <trkpt lat="45.31593" lon="5.84275">
        <ele>1431.06</ele>
        <time>2015-02-22T11:21:24Z</time>
      </trkpt>
      <trkpt lat="45.31586" lon="5.8427">
        <ele>1434.42</ele>
        <time>2015-02-22T11:21:37Z</time>
      </trkpt>
      <trkpt lat="45.31574" lon="5.84257">
        <ele>1437.31</ele>
        <time>2015-02-22T11:21:58Z</time>
      </trkpt>
      <trkpt lat="45.31568" lon="5.84251">
        <ele>1440.19</ele>
        <time>2015-02-22T11:22:11Z</time>
      </trkpt>
      <trkpt lat="45.31564" lon="5.84243">
        <ele>1443.56</ele>
        <time>2015-02-22T11:22:27Z</time>
      </trkpt>
      <trkpt lat="45.31563" lon="5.84232">
        <ele>1445.96</ele>
        <time>2015-02-22T11:22:42Z</time>
      </trkpt>
      <trkpt lat="45.31559" lon="5.8422">
        <ele>1449.32</ele>
        <time>2015-02-22T11:22:53Z</time>
      </trkpt>
      <trkpt lat="45.31552" lon="5.84213">
        <ele>1451.25</ele>
        <time>2015-02-22T11:23:08Z</time>
      </trkpt>
      <trkpt lat="45.31541" lon="5.84204">
        <ele>1454.61</ele>
        <time>2015-02-22T11:23:26Z</time>
      </trkpt>
      <trkpt lat="45.31535" lon="5.84197">
        <ele>1457.5</ele>
        <time>2015-02-22T11:23:42Z</time>
      </trkpt>
      <trkpt lat="45.31529" lon="5.84188">
        <ele>1459.9</ele>
        <time>2015-02-22T11:23:58Z</time>
      </trkpt>
      <trkpt lat="45.31522" lon="5.84184">
        <ele>1461.82</ele>
        <time>2015-02-22T11:24:09Z</time>
      </trkpt>
      <trkpt lat="45.31512" lon="5.84182">
        <ele>1464.23</ele>
        <time>2015-02-22T11:24:22Z</time>
      </trkpt>
      <trkpt lat="45.31505" lon="5.84185">
        <ele>1465.67</ele>
        <time>2015-02-22T11:24:30Z</time>
      </trkpt>
      <trkpt lat="45.31496" lon="5.84183">
        <ele>1468.07</ele>
        <time>2015-02-22T11:24:43Z</time>
      </trkpt>
      <trkpt lat="45.31488" lon="5.84179">
        <ele>1470.95</ele>
        <time>2015-02-22T11:24:57Z</time>
      </trkpt>
      <trkpt lat="45.31474" lon="5.84183">
        <ele>1473.84</ele>
        <time>2015-02-22T11:25:20Z</time>
      </trkpt>
      <trkpt lat="45.31453" lon="5.84182">
        <ele>1477.2</ele>
        <time>2015-02-22T11:25:45Z</time>
      </trkpt>
      <trkpt lat="45.31443" lon="5.84183">
        <ele>1478.65</ele>
        <time>2015-02-22T11:25:57Z</time>
      </trkpt>
      <trkpt lat="45.31425" lon="5.84179">
        <ele>1481.53</ele>
        <time>2015-02-22T11:26:19Z</time>
      </trkpt>
      <trkpt lat="45.31416" lon="5.84169">
        <ele>1484.41</ele>
        <time>2015-02-22T11:26:35Z</time>
      </trkpt>
      <trkpt lat="45.31399" lon="5.84165">
        <ele>1487.3</ele>
        <time>2015-02-22T11:26:57Z</time>
      </trkpt>
      <trkpt lat="45.31383" lon="5.84161">
        <ele>1490.66</ele>
        <time>2015-02-22T11:27:16Z</time>
      </trkpt>
      <trkpt lat="45.31375" lon="5.84158">
        <ele>1492.58</ele>
        <time>2015-02-22T11:27:30Z</time>
      </trkpt>
      <trkpt lat="45.31368" lon="5.84155">
        <ele>1494.99</ele>
        <time>2015-02-22T11:27:54Z</time>
      </trkpt>
      <trkpt lat="45.31371" lon="5.84155">
        <ele>1494.51</ele>
        <time>2015-02-22T11:28:23Z</time>
      </trkpt>
      <trkpt lat="45.31368" lon="5.84158">
        <ele>1493.06</ele>
        <time>2015-02-22T11:28:46Z</time>
      </trkpt>
      <trkpt lat="45.31365" lon="5.84159">
        <ele>1493.55</ele>
        <time>2015-02-22T11:29:16Z</time>
      </trkpt>
      <trkpt lat="45.31361" lon="5.84166">
        <ele>1493.55</ele>
        <time>2015-02-22T11:29:25Z</time>
      </trkpt>
      <trkpt lat="45.31358" lon="5.84165">
        <ele>1493.55</ele>
        <time>2015-02-22T11:29:29Z</time>
      </trkpt>
      <trkpt lat="45.31343" lon="5.84164">
        <ele>1497.39</ele>
        <time>2015-02-22T11:29:49Z</time>
      </trkpt>
      <trkpt lat="45.31328" lon="5.84157">
        <ele>1500.27</ele>
        <time>2015-02-22T11:30:06Z</time>
      </trkpt>
      <trkpt lat="45.31316" lon="5.84143">
        <ele>1503.64</ele>
        <time>2015-02-22T11:30:26Z</time>
      </trkpt>
      <trkpt lat="45.31304" lon="5.84137">
        <ele>1506.52</ele>
        <time>2015-02-22T11:30:43Z</time>
      </trkpt>
      <trkpt lat="45.31295" lon="5.8413">
        <ele>1509.89</ele>
        <time>2015-02-22T11:30:57Z</time>
      </trkpt>
      <trkpt lat="45.31285" lon="5.84127">
        <ele>1512.29</ele>
        <time>2015-02-22T11:31:15Z</time>
      </trkpt>
      <trkpt lat="45.3127" lon="5.84123">
        <ele>1514.21</ele>
        <time>2015-02-22T11:31:33Z</time>
      </trkpt>
      <trkpt lat="45.31252" lon="5.84132">
        <ele>1517.58</ele>
        <time>2015-02-22T11:31:56Z</time>
      </trkpt>
      <trkpt lat="45.31251" lon="5.84131">
        <ele>1517.58</ele>
        <time>2015-02-22T11:31:57Z</time>
      </trkpt>
      <trkpt lat="45.31234" lon="5.84119">
        <ele>1519.02</ele>
        <time>2015-02-22T11:32:15Z</time>
      </trkpt>
      <trkpt lat="45.31224" lon="5.84111">
        <ele>1520.46</ele>
        <time>2015-02-22T11:32:29Z</time>
      </trkpt>
      <trkpt lat="45.3121" lon="5.84102">
        <ele>1521.9</ele>
        <time>2015-02-22T11:32:46Z</time>
      </trkpt>
      <trkpt lat="45.31195" lon="5.84089">
        <ele>1523.83</ele>
        <time>2015-02-22T11:33:05Z</time>
      </trkpt>
      <trkpt lat="45.31183" lon="5.84087">
        <ele>1526.23</ele>
        <time>2015-02-22T11:33:18Z</time>
      </trkpt>
      <trkpt lat="45.31171" lon="5.84084">
        <ele>1528.15</ele>
        <time>2015-02-22T11:33:33Z</time>
      </trkpt>
      <trkpt lat="45.31159" lon="5.84085">
        <ele>1531.04</ele>
        <time>2015-02-22T11:33:49Z</time>
      </trkpt>
      <trkpt lat="45.31142" lon="5.84098">
        <ele>1534.4</ele>
        <time>2015-02-22T11:34:11Z</time>
      </trkpt>
      <trkpt lat="45.31128" lon="5.84105">
        <ele>1537.77</ele>
        <time>2015-02-22T11:34:31Z</time>
      </trkpt>
      <trkpt lat="45.31121" lon="5.84109">
        <ele>1540.17</ele>
        <time>2015-02-22T11:34:42Z</time>
      </trkpt>
      <trkpt lat="45.31119" lon="5.84116">
        <ele>1541.61</ele>
        <time>2015-02-22T11:34:48Z</time>
      </trkpt>
      <trkpt lat="45.31108" lon="5.84137">
        <ele>1544.5</ele>
        <time>2015-02-22T11:35:08Z</time>
      </trkpt>
      <trkpt lat="45.31093" lon="5.84155">
        <ele>1545.94</ele>
        <time>2015-02-22T11:35:36Z</time>
      </trkpt>
      <trkpt lat="45.31082" lon="5.84175">
        <ele>1548.34</ele>
        <time>2015-02-22T11:35:52Z</time>
      </trkpt>
      <trkpt lat="45.31081" lon="5.84175">
        <ele>1548.34</ele>
        <time>2015-02-22T11:35:53Z</time>
      </trkpt>
      <trkpt lat="45.31073" lon="5.84183">
        <ele>1550.26</ele>
        <time>2015-02-22T11:36:04Z</time>
      </trkpt>
      <trkpt lat="45.31067" lon="5.84186">
        <ele>1553.63</ele>
        <time>2015-02-22T11:36:15Z</time>
      </trkpt>
      <trkpt lat="45.31065" lon="5.84185">
        <ele>1555.07</ele>
        <time>2015-02-22T11:36:28Z</time>
      </trkpt>
      <trkpt lat="45.31065" lon="5.84183">
        <ele>1554.11</ele>
        <time>2015-02-22T11:37:04Z</time>
      </trkpt>
      <trkpt lat="45.31062" lon="5.84186">
        <ele>1554.59</ele>
        <time>2015-02-22T11:37:37Z</time>
      </trkpt>
      <trkpt lat="45.31061" lon="5.84185">
        <ele>1555.07</ele>
        <time>2015-02-22T11:38:05Z</time>
      </trkpt>
      <trkpt lat="45.31061" lon="5.84185">
        <ele>1554.11</ele>
        <time>2015-02-22T11:39:15Z</time>
      </trkpt>
      <trkpt lat="45.31062" lon="5.84178">
        <ele>1554.59</ele>
        <time>2015-02-22T11:40:30Z</time>
      </trkpt>
      <trkpt lat="45.31063" lon="5.84173">
        <ele>1555.55</ele>
        <time>2015-02-22T11:40:37Z</time>
      </trkpt>
      <trkpt lat="45.31064" lon="5.84156">
        <ele>1556.99</ele>
        <time>2015-02-22T11:40:52Z</time>
      </trkpt>
      <trkpt lat="45.31065" lon="5.8414">
        <ele>1558.43</ele>
        <time>2015-02-22T11:41:06Z</time>
      </trkpt>
      <trkpt lat="45.31065" lon="5.84135">
        <ele>1558.43</ele>
        <time>2015-02-22T11:41:09Z</time>
      </trkpt>
      <trkpt lat="45.31064" lon="5.8412">
        <ele>1559.4</ele>
        <time>2015-02-22T11:41:21Z</time>
      </trkpt>
      <trkpt lat="45.31062" lon="5.84103">
        <ele>1561.32</ele>
        <time>2015-02-22T11:41:35Z</time>
      </trkpt>
      <trkpt lat="45.31061" lon="5.84089">
        <ele>1562.76</ele>
        <time>2015-02-22T11:41:48Z</time>
      </trkpt>
      <trkpt lat="45.31059" lon="5.84073">
        <ele>1566.12</ele>
        <time>2015-02-22T11:42:03Z</time>
      </trkpt>
      <trkpt lat="45.31057" lon="5.84063">
        <ele>1567.57</ele>
        <time>2015-02-22T11:42:16Z</time>
      </trkpt>
      <trkpt lat="45.31056" lon="5.84059">
        <ele>1568.53</ele>
        <time>2015-02-22T11:42:19Z</time>
      </trkpt>
      <trkpt lat="45.31054" lon="5.84044">
        <ele>1570.45</ele>
        <time>2015-02-22T11:42:33Z</time>
      </trkpt>
      <trkpt lat="45.31054" lon="5.84042">
        <ele>1572.85</ele>
        <time>2015-02-22T11:42:44Z</time>
      </trkpt>
      <trkpt lat="45.31054" lon="5.84042">
        <ele>1572.85</ele>
        <time>2015-02-22T11:42:45Z</time>
      </trkpt>
      <trkpt lat="45.31054" lon="5.84036">
        <ele>1573.82</ele>
        <time>2015-02-22T11:42:57Z</time>
      </trkpt>
      <trkpt lat="45.31054" lon="5.84027">
        <ele>1574.78</ele>
        <time>2015-02-22T11:43:07Z</time>
      </trkpt>
      <trkpt lat="45.31059" lon="5.84022">
        <ele>1576.7</ele>
        <time>2015-02-22T11:43:19Z</time>
      </trkpt>
      <trkpt lat="45.31063" lon="5.84021">
        <ele>1578.62</ele>
        <time>2015-02-22T11:43:24Z</time>
      </trkpt>
      <trkpt lat="45.31068" lon="5.84015">
        <ele>1581.03</ele>
        <time>2015-02-22T11:43:36Z</time>
      </trkpt>
      <trkpt lat="45.31069" lon="5.84009">
        <ele>1582.95</ele>
        <time>2015-02-22T11:43:49Z</time>
      </trkpt>
      <trkpt lat="45.31066" lon="5.84003">
        <ele>1584.39</ele>
        <time>2015-02-22T11:44:01Z</time>
      </trkpt>
      <trkpt lat="45.31063" lon="5.83995">
        <ele>1587.27</ele>
        <time>2015-02-22T11:44:12Z</time>
      </trkpt>
      <trkpt lat="45.3106" lon="5.8399">
        <ele>1588.72</ele>
        <time>2015-02-22T11:44:22Z</time>
      </trkpt>
      <trkpt lat="45.31056" lon="5.83982">
        <ele>1589.68</ele>
        <time>2015-02-22T11:44:33Z</time>
      </trkpt>
      <trkpt lat="45.31054" lon="5.83976">
        <ele>1591.6</ele>
        <time>2015-02-22T11:44:42Z</time>
      </trkpt>
      <trkpt lat="45.31053" lon="5.83968">
        <ele>1592.56</ele>
        <time>2015-02-22T11:44:52Z</time>
      </trkpt>
      <trkpt lat="45.31053" lon="5.83968">
        <ele>1592.56</ele>
        <time>2015-02-22T11:44:53Z</time>
      </trkpt>
      <trkpt lat="45.3105" lon="5.83962">
        <ele>1593.52</ele>
        <time>2015-02-22T11:45:01Z</time>
      </trkpt>
      <trkpt lat="45.31049" lon="5.83959">
        <ele>1594.48</ele>
        <time>2015-02-22T11:45:05Z</time>
      </trkpt>
      <trkpt lat="45.31046" lon="5.83951">
        <ele>1594.48</ele>
        <time>2015-02-22T11:45:16Z</time>
      </trkpt>
      <trkpt lat="45.31042" lon="5.83948">
        <ele>1594</ele>
        <time>2015-02-22T11:45:34Z</time>
      </trkpt>
      <trkpt lat="45.31038" lon="5.83942">
        <ele>1594.96</ele>
        <time>2015-02-22T11:45:50Z</time>
      </trkpt>
      <trkpt lat="45.31037" lon="5.83941">
        <ele>1595.93</ele>
        <time>2015-02-22T11:45:53Z</time>
      </trkpt>
      <trkpt lat="45.31031" lon="5.83933">
        <ele>1596.41</ele>
        <time>2015-02-22T11:46:05Z</time>
      </trkpt>
      <trkpt lat="45.31027" lon="5.83929">
        <ele>1596.41</ele>
        <time>2015-02-22T11:46:18Z</time>
      </trkpt>
      <trkpt lat="45.31022" lon="5.83922">
        <ele>1596.41</ele>
        <time>2015-02-22T11:46:30Z</time>
      </trkpt>
      <trkpt lat="45.31017" lon="5.83917">
        <ele>1596.41</ele>
        <time>2015-02-22T11:46:40Z</time>
      </trkpt>
      <trkpt lat="45.31008" lon="5.83906">
        <ele>1597.37</ele>
        <time>2015-02-22T11:46:56Z</time>
      </trkpt>
      <trkpt lat="45.31002" lon="5.83898">
        <ele>1597.85</ele>
        <time>2015-02-22T11:47:09Z</time>
      </trkpt>
      <trkpt lat="45.30996" lon="5.83889">
        <ele>1598.81</ele>
        <time>2015-02-22T11:47:21Z</time>
      </trkpt>
      <trkpt lat="45.30995" lon="5.83887">
        <ele>1598.33</ele>
        <time>2015-02-22T11:47:38Z</time>
      </trkpt>
      <trkpt lat="45.30993" lon="5.83883">
        <ele>1598.81</ele>
        <time>2015-02-22T11:47:56Z</time>
      </trkpt>
      <trkpt lat="45.30985" lon="5.83873">
        <ele>1599.77</ele>
        <time>2015-02-22T11:48:09Z</time>
      </trkpt>
      <trkpt lat="45.30978" lon="5.83861">
        <ele>1600.73</ele>
        <time>2015-02-22T11:48:25Z</time>
      </trkpt>
      <trkpt lat="45.30972" lon="5.83853">
        <ele>1601.69</ele>
        <time>2015-02-22T11:48:38Z</time>
      </trkpt>
      <trkpt lat="45.30964" lon="5.83843">
        <ele>1602.17</ele>
        <time>2015-02-22T11:48:53Z</time>
      </trkpt>
      <trkpt lat="45.30958" lon="5.83835">
        <ele>1603.62</ele>
        <time>2015-02-22T11:49:06Z</time>
      </trkpt>
      <trkpt lat="45.30952" lon="5.83826">
        <ele>1605.06</ele>
        <time>2015-02-22T11:49:19Z</time>
      </trkpt>
      <trkpt lat="45.30946" lon="5.83815">
        <ele>1606.02</ele>
        <time>2015-02-22T11:49:33Z</time>
      </trkpt>
      <trkpt lat="45.30941" lon="5.83807">
        <ele>1608.42</ele>
        <time>2015-02-22T11:49:46Z</time>
      </trkpt>
      <trkpt lat="45.30947" lon="5.83806">
        <ele>1608.9</ele>
        <time>2015-02-22T11:50:00Z</time>
      </trkpt>
      <trkpt lat="45.30952" lon="5.83805">
        <ele>1610.35</ele>
        <time>2015-02-22T11:50:10Z</time>
      </trkpt>
      <trkpt lat="45.30953" lon="5.83805">
        <ele>1612.27</ele>
        <time>2015-02-22T11:50:23Z</time>
      </trkpt>
      <trkpt lat="45.3095" lon="5.83799">
        <ele>1613.23</ele>
        <time>2015-02-22T11:50:33Z</time>
      </trkpt>
      <trkpt lat="45.30946" lon="5.83791">
        <ele>1615.63</ele>
        <time>2015-02-22T11:50:46Z</time>
      </trkpt>
      <trkpt lat="45.30944" lon="5.83787">
        <ele>1616.11</ele>
        <time>2015-02-22T11:50:51Z</time>
      </trkpt>
      <trkpt lat="45.3094" lon="5.8378">
        <ele>1617.56</ele>
        <time>2015-02-22T11:51:00Z</time>
      </trkpt>
      <trkpt lat="45.30939" lon="5.83779">
        <ele>1618.04</ele>
        <time>2015-02-22T11:51:03Z</time>
      </trkpt>
      <trkpt lat="45.30936" lon="5.83774">
        <ele>1619.48</ele>
        <time>2015-02-22T11:51:12Z</time>
      </trkpt>
      <trkpt lat="45.30935" lon="5.83769">
        <ele>1621.4</ele>
        <time>2015-02-22T11:51:22Z</time>
      </trkpt>
      <trkpt lat="45.3093" lon="5.83763">
        <ele>1623.32</ele>
        <time>2015-02-22T11:51:35Z</time>
      </trkpt>
      <trkpt lat="45.30927" lon="5.83757">
        <ele>1625.25</ele>
        <time>2015-02-22T11:51:45Z</time>
      </trkpt>
      <trkpt lat="45.30924" lon="5.83748">
        <ele>1627.17</ele>
        <time>2015-02-22T11:51:56Z</time>
      </trkpt>
      <trkpt lat="45.3092" lon="5.83742">
        <ele>1629.09</ele>
        <time>2015-02-22T11:52:07Z</time>
      </trkpt>
      <trkpt lat="45.30919" lon="5.83738">
        <ele>1629.57</ele>
        <time>2015-02-22T11:52:13Z</time>
      </trkpt>
      <trkpt lat="45.30917" lon="5.83731">
        <ele>1631.01</ele>
        <time>2015-02-22T11:52:20Z</time>
      </trkpt>
      <trkpt lat="45.30914" lon="5.83723">
        <ele>1633.42</ele>
        <time>2015-02-22T11:52:33Z</time>
      </trkpt>
      <trkpt lat="45.30911" lon="5.83716">
        <ele>1635.34</ele>
        <time>2015-02-22T11:52:43Z</time>
      </trkpt>
      <trkpt lat="45.30908" lon="5.83708">
        <ele>1636.3</ele>
        <time>2015-02-22T11:52:55Z</time>
      </trkpt>
      <trkpt lat="45.30905" lon="5.83704">
        <ele>1638.22</ele>
        <time>2015-02-22T11:53:05Z</time>
      </trkpt>
      <trkpt lat="45.30903" lon="5.83696">
        <ele>1639.67</ele>
        <time>2015-02-22T11:53:14Z</time>
      </trkpt>
      <trkpt lat="45.30908" lon="5.83694">
        <ele>1641.11</ele>
        <time>2015-02-22T11:53:24Z</time>
      </trkpt>
      <trkpt lat="45.30915" lon="5.83695">
        <ele>1643.03</ele>
        <time>2015-02-22T11:53:35Z</time>
      </trkpt>
      <trkpt lat="45.30921" lon="5.83696">
        <ele>1645.43</ele>
        <time>2015-02-22T11:53:47Z</time>
      </trkpt>
      <trkpt lat="45.30927" lon="5.83696">
        <ele>1647.84</ele>
        <time>2015-02-22T11:53:59Z</time>
      </trkpt>
      <trkpt lat="45.30935" lon="5.83697">
        <ele>1649.28</ele>
        <time>2015-02-22T11:54:12Z</time>
      </trkpt>
      <trkpt lat="45.30941" lon="5.83699">
        <ele>1652.16</ele>
        <time>2015-02-22T11:54:23Z</time>
      </trkpt>
      <trkpt lat="45.3094" lon="5.83699">
        <ele>1652.16</ele>
        <time>2015-02-22T11:54:29Z</time>
      </trkpt>
      <trkpt lat="45.30939" lon="5.83692">
        <ele>1653.6</ele>
        <time>2015-02-22T11:54:39Z</time>
      </trkpt>
      <trkpt lat="45.30934" lon="5.83685">
        <ele>1655.53</ele>
        <time>2015-02-22T11:54:52Z</time>
      </trkpt>
      <trkpt lat="45.30933" lon="5.83682">
        <ele>1656.01</ele>
        <time>2015-02-22T11:54:55Z</time>
      </trkpt>
      <trkpt lat="45.30929" lon="5.83678">
        <ele>1657.45</ele>
        <time>2015-02-22T11:55:04Z</time>
      </trkpt>
      <trkpt lat="45.30924" lon="5.83671">
        <ele>1657.45</ele>
        <time>2015-02-22T11:55:13Z</time>
      </trkpt>
      <trkpt lat="45.30923" lon="5.83669">
        <ele>1657.93</ele>
        <time>2015-02-22T11:55:16Z</time>
      </trkpt>
      <trkpt lat="45.30918" lon="5.83658">
        <ele>1660.33</ele>
        <time>2015-02-22T11:55:29Z</time>
      </trkpt>
      <trkpt lat="45.30913" lon="5.83651">
        <ele>1662.26</ele>
        <time>2015-02-22T11:55:37Z</time>
      </trkpt>
      <trkpt lat="45.3091" lon="5.83643">
        <ele>1664.66</ele>
        <time>2015-02-22T11:55:48Z</time>
      </trkpt>
      <trkpt lat="45.30908" lon="5.83634">
        <ele>1667.54</ele>
        <time>2015-02-22T11:56:01Z</time>
      </trkpt>
      <trkpt lat="45.30906" lon="5.83629">
        <ele>1668.99</ele>
        <time>2015-02-22T11:56:12Z</time>
      </trkpt>
      <trkpt lat="45.3091" lon="5.83624">
        <ele>1670.43</ele>
        <time>2015-02-22T11:56:23Z</time>
      </trkpt>
      <trkpt lat="45.30918" lon="5.83625">
        <ele>1672.35</ele>
        <time>2015-02-22T11:56:35Z</time>
      </trkpt>
      <trkpt lat="45.30925" lon="5.83629">
        <ele>1674.75</ele>
        <time>2015-02-22T11:56:47Z</time>
      </trkpt>
      <trkpt lat="45.30933" lon="5.8363">
        <ele>1676.68</ele>
        <time>2015-02-22T11:56:59Z</time>
      </trkpt>
      <trkpt lat="45.3093" lon="5.83627">
        <ele>1677.16</ele>
        <time>2015-02-22T11:57:09Z</time>
      </trkpt>
      <trkpt lat="45.30926" lon="5.8362">
        <ele>1679.08</ele>
        <time>2015-02-22T11:57:20Z</time>
      </trkpt>
      <trkpt lat="45.30922" lon="5.83612">
        <ele>1681.48</ele>
        <time>2015-02-22T11:57:33Z</time>
      </trkpt>
      <trkpt lat="45.3092" lon="5.83606">
        <ele>1682.44</ele>
        <time>2015-02-22T11:57:42Z</time>
      </trkpt>
      <trkpt lat="45.30916" lon="5.836">
        <ele>1684.37</ele>
        <time>2015-02-22T11:57:51Z</time>
      </trkpt>
      <trkpt lat="45.30916" lon="5.83594">
        <ele>1686.77</ele>
        <time>2015-02-22T11:58:03Z</time>
      </trkpt>
      <trkpt lat="45.30921" lon="5.83596">
        <ele>1687.73</ele>
        <time>2015-02-22T11:58:16Z</time>
      </trkpt>
      <trkpt lat="45.30928" lon="5.83594">
        <ele>1689.17</ele>
        <time>2015-02-22T11:58:27Z</time>
      </trkpt>
      <trkpt lat="45.30928" lon="5.83594">
        <ele>1689.65</ele>
        <time>2015-02-22T11:58:39Z</time>
      </trkpt>
      <trkpt lat="45.30933" lon="5.83594">
        <ele>1691.58</ele>
        <time>2015-02-22T11:58:50Z</time>
      </trkpt>
      <trkpt lat="45.3094" lon="5.83592">
        <ele>1693.02</ele>
        <time>2015-02-22T11:59:01Z</time>
      </trkpt>
      <trkpt lat="45.30937" lon="5.83593">
        <ele>1693.98</ele>
        <time>2015-02-22T11:59:12Z</time>
      </trkpt>
      <trkpt lat="45.30932" lon="5.83586">
        <ele>1695.42</ele>
        <time>2015-02-22T11:59:24Z</time>
      </trkpt>
      <trkpt lat="45.30929" lon="5.83582">
        <ele>1697.34</ele>
        <time>2015-02-22T11:59:34Z</time>
      </trkpt>
      <trkpt lat="45.30931" lon="5.8358">
        <ele>1698.79</ele>
        <time>2015-02-22T11:59:45Z</time>
      </trkpt>
      <trkpt lat="45.30937" lon="5.83576">
        <ele>1700.71</ele>
        <time>2015-02-22T11:59:58Z</time>
      </trkpt>
      <trkpt lat="45.30942" lon="5.83574">
        <ele>1703.59</ele>
        <time>2015-02-22T12:00:11Z</time>
      </trkpt>
      <trkpt lat="45.3094" lon="5.83575">
        <ele>1703.59</ele>
        <time>2015-02-22T12:00:24Z</time>
      </trkpt>
      <trkpt lat="45.3094" lon="5.83571">
        <ele>1705.04</ele>
        <time>2015-02-22T12:00:35Z</time>
      </trkpt>
      <trkpt lat="45.30942" lon="5.83571">
        <ele>1705.52</ele>
        <time>2015-02-22T12:00:39Z</time>
      </trkpt>
      <trkpt lat="45.30945" lon="5.83568">
        <ele>1706.96</ele>
        <time>2015-02-22T12:00:50Z</time>
      </trkpt>
      <trkpt lat="45.3095" lon="5.83567">
        <ele>1708.88</ele>
        <time>2015-02-22T12:01:01Z</time>
      </trkpt>
      <trkpt lat="45.30954" lon="5.83568">
        <ele>1710.32</ele>
        <time>2015-02-22T12:01:08Z</time>
      </trkpt>
      <trkpt lat="45.30956" lon="5.83568">
        <ele>1710.8</ele>
        <time>2015-02-22T12:01:10Z</time>
      </trkpt>
      <trkpt lat="45.3096" lon="5.8357">
        <ele>1712.73</ele>
        <time>2015-02-22T12:01:20Z</time>
      </trkpt>
      <trkpt lat="45.30965" lon="5.83572">
        <ele>1715.13</ele>
        <time>2015-02-22T12:01:31Z</time>
      </trkpt>
      <trkpt lat="45.30967" lon="5.83572">
        <ele>1715.61</ele>
        <time>2015-02-22T12:01:34Z</time>
      </trkpt>
      <trkpt lat="45.30972" lon="5.83567">
        <ele>1718.01</ele>
        <time>2015-02-22T12:01:47Z</time>
      </trkpt>
      <trkpt lat="45.30975" lon="5.83567">
        <ele>1720.42</ele>
        <time>2015-02-22T12:01:59Z</time>
      </trkpt>
      <trkpt lat="45.30976" lon="5.83567">
        <ele>1720.9</ele>
        <time>2015-02-22T12:02:15Z</time>
      </trkpt>
      <trkpt lat="45.30975" lon="5.83568">
        <ele>1721.38</ele>
        <time>2015-02-22T12:02:35Z</time>
      </trkpt>
      <trkpt lat="45.30976" lon="5.83568">
        <ele>1721.38</ele>
        <time>2015-02-22T12:03:01Z</time>
      </trkpt>
      <trkpt lat="45.30977" lon="5.83567">
        <ele>1720.9</ele>
        <time>2015-02-22T12:03:48Z</time>
      </trkpt>
      <trkpt lat="45.30977" lon="5.83568">
        <ele>1719.94</ele>
        <time>2015-02-22T12:05:35Z</time>
      </trkpt>
      <trkpt lat="45.30977" lon="5.83568">
        <ele>1719.94</ele>
        <time>2015-02-22T12:06:38Z</time>
      </trkpt>
      <trkpt lat="45.30977" lon="5.83567">
        <ele>1719.46</ele>
        <time>2015-02-22T12:07:32Z</time>
      </trkpt>
      <trkpt lat="45.30978" lon="5.83569">
        <ele>1719.46</ele>
        <time>2015-02-22T12:11:56Z</time>
      </trkpt>
      <trkpt lat="45.30978" lon="5.83567">
        <ele>1719.46</ele>
        <time>2015-02-22T12:11:59Z</time>
      </trkpt>
      <trkpt lat="45.30982" lon="5.83546">
        <ele>1716.57</ele>
        <time>2015-02-22T12:12:04Z</time>
      </trkpt>
      <trkpt lat="45.30982" lon="5.83532">
        <ele>1712.25</ele>
        <time>2015-02-22T12:12:06Z</time>
      </trkpt>
      <trkpt lat="45.30981" lon="5.83519">
        <ele>1706.48</ele>
        <time>2015-02-22T12:12:08Z</time>
      </trkpt>
      <trkpt lat="45.3097" lon="5.8351">
        <ele>1697.34</ele>
        <time>2015-02-22T12:12:11Z</time>
      </trkpt>
      <trkpt lat="45.30968" lon="5.83504">
        <ele>1693.98</ele>
        <time>2015-02-22T12:12:12Z</time>
      </trkpt>
      <trkpt lat="45.30965" lon="5.83499">
        <ele>1693.98</ele>
        <time>2015-02-22T12:12:13Z</time>
      </trkpt>
      <trkpt lat="45.30961" lon="5.83494">
        <ele>1691.1</ele>
        <time>2015-02-22T12:12:14Z</time>
      </trkpt>
      <trkpt lat="45.30963" lon="5.83487">
        <ele>1686.77</ele>
        <time>2015-02-22T12:12:15Z</time>
      </trkpt>
      <trkpt lat="45.30965" lon="5.8348">
        <ele>1677.16</ele>
        <time>2015-02-22T12:12:18Z</time>
      </trkpt>
      <trkpt lat="45.30962" lon="5.83478">
        <ele>1674.27</ele>
        <time>2015-02-22T12:12:26Z</time>
      </trkpt>
      <trkpt lat="45.30961" lon="5.83479">
        <ele>1671.87</ele>
        <time>2015-02-22T12:12:30Z</time>
      </trkpt>
      <trkpt lat="45.30961" lon="5.83479">
        <ele>1671.87</ele>
        <time>2015-02-22T12:12:36Z</time>
      </trkpt>
      <trkpt lat="45.30955" lon="5.83479">
        <ele>1670.91</ele>
        <time>2015-02-22T12:12:39Z</time>
      </trkpt>
      <trkpt lat="45.30951" lon="5.83469">
        <ele>1669.47</ele>
        <time>2015-02-22T12:12:41Z</time>
      </trkpt>
      <trkpt lat="45.30949" lon="5.83457">
        <ele>1665.14</ele>
        <time>2015-02-22T12:12:43Z</time>
      </trkpt>
      <trkpt lat="45.30945" lon="5.83449">
        <ele>1659.85</ele>
        <time>2015-02-22T12:12:45Z</time>
      </trkpt>
      <trkpt lat="45.30937" lon="5.8344">
        <ele>1653.6</ele>
        <time>2015-02-22T12:12:47Z</time>
      </trkpt>
      <trkpt lat="45.30926" lon="5.8343">
        <ele>1646.4</ele>
        <time>2015-02-22T12:12:49Z</time>
      </trkpt>
      <trkpt lat="45.30918" lon="5.83417">
        <ele>1643.03</ele>
        <time>2015-02-22T12:12:51Z</time>
      </trkpt>
      <trkpt lat="45.30915" lon="5.83401">
        <ele>1634.38</ele>
        <time>2015-02-22T12:12:53Z</time>
      </trkpt>
      <trkpt lat="45.30913" lon="5.83394">
        <ele>1631.01</ele>
        <time>2015-02-22T12:12:54Z</time>
      </trkpt>
      <trkpt lat="45.3091" lon="5.83386">
        <ele>1627.17</ele>
        <time>2015-02-22T12:12:55Z</time>
      </trkpt>
      <trkpt lat="45.30903" lon="5.83373">
        <ele>1619.96</ele>
        <time>2015-02-22T12:12:57Z</time>
      </trkpt>
      <trkpt lat="45.30899" lon="5.83366">
        <ele>1616.59</ele>
        <time>2015-02-22T12:12:58Z</time>
      </trkpt>
      <trkpt lat="45.30897" lon="5.83357">
        <ele>1616.59</ele>
        <time>2015-02-22T12:12:59Z</time>
      </trkpt>
      <trkpt lat="45.30888" lon="5.83339">
        <ele>1605.06</ele>
        <time>2015-02-22T12:13:02Z</time>
      </trkpt>
      <trkpt lat="45.30887" lon="5.83336">
        <ele>1601.69</ele>
        <time>2015-02-22T12:13:03Z</time>
      </trkpt>
      <trkpt lat="45.30886" lon="5.83335">
        <ele>1598.81</ele>
        <time>2015-02-22T12:13:04Z</time>
      </trkpt>
      <trkpt lat="45.30887" lon="5.83334">
        <ele>1594.96</ele>
        <time>2015-02-22T12:13:06Z</time>
      </trkpt>
      <trkpt lat="45.30886" lon="5.83334">
        <ele>1594</ele>
        <time>2015-02-22T12:13:08Z</time>
      </trkpt>
      <trkpt lat="45.30886" lon="5.83335">
        <ele>1594.48</ele>
        <time>2015-02-22T12:13:56Z</time>
      </trkpt>
      <trkpt lat="45.30896" lon="5.83293">
        <ele>1591.12</ele>
        <time>2015-02-22T12:14:07Z</time>
      </trkpt>
      <trkpt lat="45.30894" lon="5.83281">
        <ele>1588.72</ele>
        <time>2015-02-22T12:14:09Z</time>
      </trkpt>
      <trkpt lat="45.30887" lon="5.83266">
        <ele>1581.99</ele>
        <time>2015-02-22T12:14:12Z</time>
      </trkpt>
      <trkpt lat="45.30883" lon="5.83255">
        <ele>1576.22</ele>
        <time>2015-02-22T12:14:14Z</time>
      </trkpt>
      <trkpt lat="45.30875" lon="5.83251">
        <ele>1573.33</ele>
        <time>2015-02-22T12:14:16Z</time>
      </trkpt>
      <trkpt lat="45.30869" lon="5.83251">
        <ele>1570.45</ele>
        <time>2015-02-22T12:14:17Z</time>
      </trkpt>
      <trkpt lat="45.30862" lon="5.83235">
        <ele>1560.84</ele>
        <time>2015-02-22T12:14:20Z</time>
      </trkpt>
      <trkpt lat="45.30856" lon="5.83221">
        <ele>1554.59</ele>
        <time>2015-02-22T12:14:22Z</time>
      </trkpt>
      <trkpt lat="45.30854" lon="5.83213">
        <ele>1550.74</ele>
        <time>2015-02-22T12:14:23Z</time>
      </trkpt>
      <trkpt lat="45.30853" lon="5.83205">
        <ele>1550.74</ele>
        <time>2015-02-22T12:14:24Z</time>
      </trkpt>
      <trkpt lat="45.30853" lon="5.83198">
        <ele>1547.38</ele>
        <time>2015-02-22T12:14:25Z</time>
      </trkpt>
      <trkpt lat="45.30853" lon="5.83188">
        <ele>1542.09</ele>
        <time>2015-02-22T12:14:27Z</time>
      </trkpt>
      <trkpt lat="45.30853" lon="5.83176">
        <ele>1538.25</ele>
        <time>2015-02-22T12:14:29Z</time>
      </trkpt>
      <trkpt lat="45.30848" lon="5.83158">
        <ele>1532.48</ele>
        <time>2015-02-22T12:14:31Z</time>
      </trkpt>
      <trkpt lat="45.30847" lon="5.8314">
        <ele>1529.11</ele>
        <time>2015-02-22T12:14:33Z</time>
      </trkpt>
      <trkpt lat="45.30839" lon="5.83124">
        <ele>1520.46</ele>
        <time>2015-02-22T12:14:36Z</time>
      </trkpt>
      <trkpt lat="45.30825" lon="5.83099">
        <ele>1515.18</ele>
        <time>2015-02-22T12:14:40Z</time>
      </trkpt>
      <trkpt lat="45.30823" lon="5.83094">
        <ele>1514.21</ele>
        <time>2015-02-22T12:14:41Z</time>
      </trkpt>
      <trkpt lat="45.30818" lon="5.83078">
        <ele>1513.25</ele>
        <time>2015-02-22T12:14:43Z</time>
      </trkpt>
      <trkpt lat="45.30815" lon="5.83071">
        <ele>1511.81</ele>
        <time>2015-02-22T12:14:44Z</time>
      </trkpt>
      <trkpt lat="45.30801" lon="5.8306">
        <ele>1507</ele>
        <time>2015-02-22T12:14:47Z</time>
      </trkpt>
      <trkpt lat="45.30794" lon="5.83054">
        <ele>1502.2</ele>
        <time>2015-02-22T12:14:49Z</time>
      </trkpt>
      <trkpt lat="45.30792" lon="5.83053">
        <ele>1498.35</ele>
        <time>2015-02-22T12:14:51Z</time>
      </trkpt>
      <trkpt lat="45.30794" lon="5.83051">
        <ele>1497.87</ele>
        <time>2015-02-22T12:14:53Z</time>
      </trkpt>
      <trkpt lat="45.30795" lon="5.8305">
        <ele>1498.35</ele>
        <time>2015-02-22T12:16:43Z</time>
      </trkpt>
      <trkpt lat="45.30795" lon="5.83048">
        <ele>1498.35</ele>
        <time>2015-02-22T12:17:12Z</time>
      </trkpt>
      <trkpt lat="45.30793" lon="5.83051">
        <ele>1496.43</ele>
        <time>2015-02-22T12:17:40Z</time>
      </trkpt>
      <trkpt lat="45.30792" lon="5.8306">
        <ele>1497.39</ele>
        <time>2015-02-22T12:20:52Z</time>
      </trkpt>
      <trkpt lat="45.30788" lon="5.83066">
        <ele>1500.27</ele>
        <time>2015-02-22T12:26:30Z</time>
      </trkpt>
      <trkpt lat="45.30788" lon="5.83066">
        <ele>1503.64</ele>
        <time>2015-02-22T12:33:26Z</time>
      </trkpt>
      <trkpt lat="45.30787" lon="5.83068">
        <ele>1504.6</ele>
        <time>2015-02-22T12:48:04Z</time>
      </trkpt>
      <trkpt lat="45.30787" lon="5.83088">
        <ele>1502.2</ele>
        <time>2015-02-22T12:48:08Z</time>
      </trkpt>
      <trkpt lat="45.30783" lon="5.83103">
        <ele>1498.83</ele>
        <time>2015-02-22T12:48:11Z</time>
      </trkpt>
      <trkpt lat="45.30782" lon="5.83107">
        <ele>1496.43</ele>
        <time>2015-02-22T12:48:15Z</time>
      </trkpt>
      <trkpt lat="45.30777" lon="5.83113">
        <ele>1497.39</ele>
        <time>2015-02-22T12:49:11Z</time>
      </trkpt>
      <trkpt lat="45.30767" lon="5.83113">
        <ele>1493.06</ele>
        <time>2015-02-22T12:49:15Z</time>
      </trkpt>
      <trkpt lat="45.30758" lon="5.83119">
        <ele>1488.74</ele>
        <time>2015-02-22T12:49:17Z</time>
      </trkpt>
      <trkpt lat="45.3075" lon="5.83121">
        <ele>1484.89</ele>
        <time>2015-02-22T12:49:19Z</time>
      </trkpt>
      <trkpt lat="45.30742" lon="5.83119">
        <ele>1483.45</ele>
        <time>2015-02-22T12:49:21Z</time>
      </trkpt>
      <trkpt lat="45.30732" lon="5.83118">
        <ele>1479.13</ele>
        <time>2015-02-22T12:49:23Z</time>
      </trkpt>
      <trkpt lat="45.30722" lon="5.83115">
        <ele>1473.36</ele>
        <time>2015-02-22T12:49:25Z</time>
      </trkpt>
      <trkpt lat="45.30712" lon="5.83111">
        <ele>1467.59</ele>
        <time>2015-02-22T12:49:27Z</time>
      </trkpt>
      <trkpt lat="45.30707" lon="5.8311">
        <ele>1464.23</ele>
        <time>2015-02-22T12:49:28Z</time>
      </trkpt>
      <trkpt lat="45.30702" lon="5.83107">
        <ele>1461.34</ele>
        <time>2015-02-22T12:49:29Z</time>
      </trkpt>
      <trkpt lat="45.30697" lon="5.83105">
        <ele>1458.46</ele>
        <time>2015-02-22T12:49:30Z</time>
      </trkpt>
      <trkpt lat="45.30692" lon="5.83104">
        <ele>1458.46</ele>
        <time>2015-02-22T12:49:31Z</time>
      </trkpt>
      <trkpt lat="45.30687" lon="5.83101">
        <ele>1454.61</ele>
        <time>2015-02-22T12:49:32Z</time>
      </trkpt>
      <trkpt lat="45.30682" lon="5.831">
        <ele>1451.25</ele>
        <time>2015-02-22T12:49:33Z</time>
      </trkpt>
      <trkpt lat="45.30677" lon="5.83098">
        <ele>1448.84</ele>
        <time>2015-02-22T12:49:34Z</time>
      </trkpt>
      <trkpt lat="45.30664" lon="5.83092">
        <ele>1441.15</ele>
        <time>2015-02-22T12:49:37Z</time>
      </trkpt>
      <trkpt lat="45.30651" lon="5.83084">
        <ele>1432.98</ele>
        <time>2015-02-22T12:49:40Z</time>
      </trkpt>
      <trkpt lat="45.30642" lon="5.83082">
        <ele>1430.58</ele>
        <time>2015-02-22T12:49:42Z</time>
      </trkpt>
      <trkpt lat="45.30634" lon="5.83082">
        <ele>1425.29</ele>
        <time>2015-02-22T12:49:44Z</time>
      </trkpt>
      <trkpt lat="45.30624" lon="5.83073">
        <ele>1420.49</ele>
        <time>2015-02-22T12:49:46Z</time>
      </trkpt>
      <trkpt lat="45.30619" lon="5.83073">
        <ele>1416.64</ele>
        <time>2015-02-22T12:49:48Z</time>
      </trkpt>
      <trkpt lat="45.3061" lon="5.83069">
        <ele>1413.28</ele>
        <time>2015-02-22T12:49:50Z</time>
      </trkpt>
      <trkpt lat="45.30602" lon="5.83066">
        <ele>1409.43</ele>
        <time>2015-02-22T12:49:52Z</time>
      </trkpt>
      <trkpt lat="45.30598" lon="5.83064">
        <ele>1409.43</ele>
        <time>2015-02-22T12:49:53Z</time>
      </trkpt>
      <trkpt lat="45.30595" lon="5.83058">
        <ele>1405.58</ele>
        <time>2015-02-22T12:49:56Z</time>
      </trkpt>
      <trkpt lat="45.30595" lon="5.83054">
        <ele>1404.62</ele>
        <time>2015-02-22T12:50:19Z</time>
      </trkpt>
      <trkpt lat="45.30595" lon="5.83055">
        <ele>1404.14</ele>
        <time>2015-02-22T12:50:37Z</time>
      </trkpt>
      <trkpt lat="45.30588" lon="5.8307">
        <ele>1403.18</ele>
        <time>2015-02-22T12:50:42Z</time>
      </trkpt>
      <trkpt lat="45.30578" lon="5.83064">
        <ele>1400.3</ele>
        <time>2015-02-22T12:50:47Z</time>
      </trkpt>
      <trkpt lat="45.3057" lon="5.83061">
        <ele>1396.45</ele>
        <time>2015-02-22T12:50:49Z</time>
      </trkpt>
      <trkpt lat="45.30563" lon="5.83059">
        <ele>1392.61</ele>
        <time>2015-02-22T12:50:51Z</time>
      </trkpt>
      <trkpt lat="45.30555" lon="5.83056">
        <ele>1388.76</ele>
        <time>2015-02-22T12:50:53Z</time>
      </trkpt>
      <trkpt lat="45.30547" lon="5.83052">
        <ele>1384.92</ele>
        <time>2015-02-22T12:50:55Z</time>
      </trkpt>
      <trkpt lat="45.30541" lon="5.83052">
        <ele>1381.55</ele>
        <time>2015-02-22T12:50:57Z</time>
      </trkpt>
      <trkpt lat="45.30538" lon="5.83054">
        <ele>1381.55</ele>
        <time>2015-02-22T12:50:58Z</time>
      </trkpt>
      <trkpt lat="45.30524" lon="5.83055">
        <ele>1376.75</ele>
        <time>2015-02-22T12:51:01Z</time>
      </trkpt>
      <trkpt lat="45.30516" lon="5.83056">
        <ele>1372.9</ele>
        <time>2015-02-22T12:51:03Z</time>
      </trkpt>
      <trkpt lat="45.30509" lon="5.83056">
        <ele>1369.05</ele>
        <time>2015-02-22T12:51:06Z</time>
      </trkpt>
      <trkpt lat="45.30505" lon="5.8306">
        <ele>1366.65</ele>
        <time>2015-02-22T12:51:10Z</time>
      </trkpt>
      <trkpt lat="45.30477" lon="5.83063">
        <ele>1362.81</ele>
        <time>2015-02-22T12:51:21Z</time>
      </trkpt>
      <trkpt lat="45.30459" lon="5.83064">
        <ele>1359.44</ele>
        <time>2015-02-22T12:51:25Z</time>
      </trkpt>
      <trkpt lat="45.3044" lon="5.83067">
        <ele>1355.6</ele>
        <time>2015-02-22T12:51:29Z</time>
      </trkpt>
      <trkpt lat="45.30434" lon="5.83071">
        <ele>1353.19</ele>
        <time>2015-02-22T12:51:36Z</time>
      </trkpt>
      <trkpt lat="45.30433" lon="5.83075">
        <ele>1352.23</ele>
        <time>2015-02-22T12:56:05Z</time>
      </trkpt>
      <trkpt lat="45.30421" lon="5.83074">
        <ele>1351.27</ele>
        <time>2015-02-22T12:56:17Z</time>
      </trkpt>
      <trkpt lat="45.30415" lon="5.83076">
        <ele>1351.75</ele>
        <time>2015-02-22T12:56:26Z</time>
      </trkpt>
      <trkpt lat="45.30406" lon="5.83086">
        <ele>1353.67</ele>
        <time>2015-02-22T12:56:43Z</time>
      </trkpt>
      <trkpt lat="45.30401" lon="5.83091">
        <ele>1355.12</ele>
        <time>2015-02-22T12:56:57Z</time>
      </trkpt>
      <trkpt lat="45.30395" lon="5.831">
        <ele>1357.04</ele>
        <time>2015-02-22T12:57:15Z</time>
      </trkpt>
      <trkpt lat="45.30384" lon="5.83115">
        <ele>1359.92</ele>
        <time>2015-02-22T12:57:39Z</time>
      </trkpt>
      <trkpt lat="45.30372" lon="5.83116">
        <ele>1363.29</ele>
        <time>2015-02-22T12:57:57Z</time>
      </trkpt>
      <trkpt lat="45.3037" lon="5.83112">
        <ele>1363.77</ele>
        <time>2015-02-22T12:58:01Z</time>
      </trkpt>
      <trkpt lat="45.30362" lon="5.83114">
        <ele>1365.69</ele>
        <time>2015-02-22T12:58:17Z</time>
      </trkpt>
      <trkpt lat="45.30357" lon="5.83119">
        <ele>1367.13</ele>
        <time>2015-02-22T12:58:29Z</time>
      </trkpt>
      <trkpt lat="45.30344" lon="5.83126">
        <ele>1370.5</ele>
        <time>2015-02-22T12:58:49Z</time>
      </trkpt>
      <trkpt lat="45.30337" lon="5.83132">
        <ele>1371.94</ele>
        <time>2015-02-22T12:59:01Z</time>
      </trkpt>
      <trkpt lat="45.30331" lon="5.8314">
        <ele>1373.86</ele>
        <time>2015-02-22T12:59:13Z</time>
      </trkpt>
      <trkpt lat="45.30326" lon="5.83147">
        <ele>1374.82</ele>
        <time>2015-02-22T12:59:25Z</time>
      </trkpt>
      <trkpt lat="45.30318" lon="5.83158">
        <ele>1377.23</ele>
        <time>2015-02-22T12:59:40Z</time>
      </trkpt>
      <trkpt lat="45.30313" lon="5.83165">
        <ele>1378.67</ele>
        <time>2015-02-22T12:59:50Z</time>
      </trkpt>
      <trkpt lat="45.30306" lon="5.83173">
        <ele>1381.07</ele>
        <time>2015-02-22T13:00:02Z</time>
      </trkpt>
      <trkpt lat="45.30298" lon="5.83184">
        <ele>1382.99</ele>
        <time>2015-02-22T13:00:17Z</time>
      </trkpt>
      <trkpt lat="45.30294" lon="5.83193">
        <ele>1384.92</ele>
        <time>2015-02-22T13:00:37Z</time>
      </trkpt>
      <trkpt lat="45.30286" lon="5.83207">
        <ele>1388.28</ele>
        <time>2015-02-22T13:00:56Z</time>
      </trkpt>
      <trkpt lat="45.30277" lon="5.83222">
        <ele>1391.17</ele>
        <time>2015-02-22T13:01:17Z</time>
      </trkpt>
      <trkpt lat="45.30269" lon="5.83235">
        <ele>1393.09</ele>
        <time>2015-02-22T13:01:32Z</time>
      </trkpt>
      <trkpt lat="45.30262" lon="5.83244">
        <ele>1394.53</ele>
        <time>2015-02-22T13:01:43Z</time>
      </trkpt>
      <trkpt lat="45.30252" lon="5.83248">
        <ele>1395.97</ele>
        <time>2015-02-22T13:01:58Z</time>
      </trkpt>
      <trkpt lat="45.3024" lon="5.8325">
        <ele>1397.41</ele>
        <time>2015-02-22T13:02:11Z</time>
      </trkpt>
      <trkpt lat="45.30227" lon="5.83259">
        <ele>1399.34</ele>
        <time>2015-02-22T13:02:27Z</time>
      </trkpt>
      <trkpt lat="45.30218" lon="5.83263">
        <ele>1399.82</ele>
        <time>2015-02-22T13:02:37Z</time>
      </trkpt>
      <trkpt lat="45.30217" lon="5.83264">
        <ele>1399.82</ele>
        <time>2015-02-22T13:02:39Z</time>
      </trkpt>
      <trkpt lat="45.30206" lon="5.83271">
        <ele>1399.82</ele>
        <time>2015-02-22T13:02:53Z</time>
      </trkpt>
      <trkpt lat="45.30188" lon="5.83275">
        <ele>1400.3</ele>
        <time>2015-02-22T13:03:12Z</time>
      </trkpt>
      <trkpt lat="45.30174" lon="5.83286">
        <ele>1403.18</ele>
        <time>2015-02-22T13:03:35Z</time>
      </trkpt>
      <trkpt lat="45.30171" lon="5.8329">
        <ele>1403.66</ele>
        <time>2015-02-22T13:03:38Z</time>
      </trkpt>
      <trkpt lat="45.30167" lon="5.83299">
        <ele>1404.14</ele>
        <time>2015-02-22T13:03:47Z</time>
      </trkpt>
      <trkpt lat="45.30163" lon="5.83308">
        <ele>1405.58</ele>
        <time>2015-02-22T13:03:58Z</time>
      </trkpt>
      <trkpt lat="45.3016" lon="5.83312">
        <ele>1407.51</ele>
        <time>2015-02-22T13:04:07Z</time>
      </trkpt>
      <trkpt lat="45.30155" lon="5.83322">
        <ele>1409.43</ele>
        <time>2015-02-22T13:04:18Z</time>
      </trkpt>
      <trkpt lat="45.30149" lon="5.8333">
        <ele>1412.31</ele>
        <time>2015-02-22T13:04:34Z</time>
      </trkpt>
      <trkpt lat="45.30145" lon="5.83336">
        <ele>1414.72</ele>
        <time>2015-02-22T13:04:44Z</time>
      </trkpt>
      <trkpt lat="45.30136" lon="5.83336">
        <ele>1418.08</ele>
        <time>2015-02-22T13:05:02Z</time>
      </trkpt>
      <trkpt lat="45.30128" lon="5.83335">
        <ele>1420.97</ele>
        <time>2015-02-22T13:05:18Z</time>
      </trkpt>
      <trkpt lat="45.3012" lon="5.83338">
        <ele>1424.33</ele>
        <time>2015-02-22T13:05:37Z</time>
      </trkpt>
      <trkpt lat="45.30118" lon="5.83349">
        <ele>1426.73</ele>
        <time>2015-02-22T13:05:53Z</time>
      </trkpt>
      <trkpt lat="45.30111" lon="5.83354">
        <ele>1428.66</ele>
        <time>2015-02-22T13:06:05Z</time>
      </trkpt>
      <trkpt lat="45.30105" lon="5.83357">
        <ele>1430.1</ele>
        <time>2015-02-22T13:06:14Z</time>
      </trkpt>
      <trkpt lat="45.30097" lon="5.83359">
        <ele>1432.5</ele>
        <time>2015-02-22T13:06:31Z</time>
      </trkpt>
      <trkpt lat="45.30089" lon="5.83364">
        <ele>1434.42</ele>
        <time>2015-02-22T13:06:43Z</time>
      </trkpt>
      <trkpt lat="45.30081" lon="5.83369">
        <ele>1435.87</ele>
        <time>2015-02-22T13:06:56Z</time>
      </trkpt>
      <trkpt lat="45.3007" lon="5.83376">
        <ele>1439.23</ele>
        <time>2015-02-22T13:07:17Z</time>
      </trkpt>
      <trkpt lat="45.30061" lon="5.83383">
        <ele>1442.11</ele>
        <time>2015-02-22T13:07:35Z</time>
      </trkpt>
      <trkpt lat="45.30054" lon="5.83384">
        <ele>1445.48</ele>
        <time>2015-02-22T13:07:48Z</time>
      </trkpt>
      <trkpt lat="45.30045" lon="5.83388">
        <ele>1448.36</ele>
        <time>2015-02-22T13:08:02Z</time>
      </trkpt>
      <trkpt lat="45.30034" lon="5.83389">
        <ele>1451.73</ele>
        <time>2015-02-22T13:08:21Z</time>
      </trkpt>
      <trkpt lat="45.30025" lon="5.83385">
        <ele>1455.09</ele>
        <time>2015-02-22T13:08:37Z</time>
      </trkpt>
      <trkpt lat="45.30018" lon="5.83374">
        <ele>1457.98</ele>
        <time>2015-02-22T13:08:53Z</time>
      </trkpt>
      <trkpt lat="45.30013" lon="5.83366">
        <ele>1461.34</ele>
        <time>2015-02-22T13:09:08Z</time>
      </trkpt>
      <trkpt lat="45.3001" lon="5.83358">
        <ele>1464.23</ele>
        <time>2015-02-22T13:09:21Z</time>
      </trkpt>
      <trkpt lat="45.30002" lon="5.83349">
        <ele>1467.59</ele>
        <time>2015-02-22T13:09:39Z</time>
      </trkpt>
      <trkpt lat="45.30002" lon="5.83338">
        <ele>1467.59</ele>
        <time>2015-02-22T13:10:17Z</time>
      </trkpt>
      <trkpt lat="45.29993" lon="5.83337">
        <ele>1468.07</ele>
        <time>2015-02-22T13:11:13Z</time>
      </trkpt>
      <trkpt lat="45.29989" lon="5.83336">
        <ele>1468.07</ele>
        <time>2015-02-22T13:11:16Z</time>
      </trkpt>
      <trkpt lat="45.29966" lon="5.83329">
        <ele>1467.11</ele>
        <time>2015-02-22T13:11:33Z</time>
      </trkpt>
      <trkpt lat="45.29949" lon="5.83322">
        <ele>1467.11</ele>
        <time>2015-02-22T13:11:50Z</time>
      </trkpt>
      <trkpt lat="45.29936" lon="5.83317">
        <ele>1469.03</ele>
        <time>2015-02-22T13:12:08Z</time>
      </trkpt>
      <trkpt lat="45.29925" lon="5.83314">
        <ele>1471.92</ele>
        <time>2015-02-22T13:12:24Z</time>
      </trkpt>
      <trkpt lat="45.29914" lon="5.83315">
        <ele>1474.8</ele>
        <time>2015-02-22T13:12:42Z</time>
      </trkpt>
      <trkpt lat="45.29906" lon="5.8332">
        <ele>1478.16</ele>
        <time>2015-02-22T13:13:02Z</time>
      </trkpt>
      <trkpt lat="45.29898" lon="5.83317">
        <ele>1481.05</ele>
        <time>2015-02-22T13:13:17Z</time>
      </trkpt>
      <trkpt lat="45.29892" lon="5.83304">
        <ele>1483.93</ele>
        <time>2015-02-22T13:13:39Z</time>
      </trkpt>
      <trkpt lat="45.29886" lon="5.8329">
        <ele>1487.3</ele>
        <time>2015-02-22T13:14:01Z</time>
      </trkpt>
      <trkpt lat="45.29875" lon="5.83285">
        <ele>1490.18</ele>
        <time>2015-02-22T13:14:27Z</time>
      </trkpt>
      <trkpt lat="45.29872" lon="5.83277">
        <ele>1493.55</ele>
        <time>2015-02-22T13:14:47Z</time>
      </trkpt>
      <trkpt lat="45.29874" lon="5.8326">
        <ele>1496.43</ele>
        <time>2015-02-22T13:15:07Z</time>
      </trkpt>
      <trkpt lat="45.29869" lon="5.83244">
        <ele>1498.83</ele>
        <time>2015-02-22T13:15:24Z</time>
      </trkpt>
      <trkpt lat="45.2986" lon="5.83218">
        <ele>1501.72</ele>
        <time>2015-02-22T13:15:49Z</time>
      </trkpt>
      <trkpt lat="45.29859" lon="5.83206">
        <ele>1504.6</ele>
        <time>2015-02-22T13:16:05Z</time>
      </trkpt>
      <trkpt lat="45.2986" lon="5.832">
        <ele>1506.52</ele>
        <time>2015-02-22T13:16:16Z</time>
      </trkpt>
      <trkpt lat="45.29862" lon="5.83195">
        <ele>1507.97</ele>
        <time>2015-02-22T13:16:27Z</time>
      </trkpt>
      <trkpt lat="45.29863" lon="5.83192">
        <ele>1507.97</ele>
        <time>2015-02-22T13:16:31Z</time>
      </trkpt>
      <trkpt lat="45.29865" lon="5.8318">
        <ele>1510.37</ele>
        <time>2015-02-22T13:16:45Z</time>
      </trkpt>
      <trkpt lat="45.29867" lon="5.8317">
        <ele>1511.81</ele>
        <time>2015-02-22T13:16:57Z</time>
      </trkpt>
      <trkpt lat="45.29868" lon="5.83163">
        <ele>1513.73</ele>
        <time>2015-02-22T13:17:07Z</time>
      </trkpt>
      <trkpt lat="45.29872" lon="5.83153">
        <ele>1517.1</ele>
        <time>2015-02-22T13:17:23Z</time>
      </trkpt>
      <trkpt lat="45.29874" lon="5.83146">
        <ele>1518.54</ele>
        <time>2015-02-22T13:17:35Z</time>
      </trkpt>
      <trkpt lat="45.29876" lon="5.83141">
        <ele>1518.06</ele>
        <time>2015-02-22T13:19:49Z</time>
      </trkpt>
      <trkpt lat="45.29877" lon="5.83135">
        <ele>1519.5</ele>
        <time>2015-02-22T13:20:00Z</time>
      </trkpt>
      <trkpt lat="45.29878" lon="5.83125">
        <ele>1520.46</ele>
        <time>2015-02-22T13:20:11Z</time>
      </trkpt>
      <trkpt lat="45.29882" lon="5.83114">
        <ele>1522.87</ele>
        <time>2015-02-22T13:20:22Z</time>
      </trkpt>
      <trkpt lat="45.29887" lon="5.831">
        <ele>1525.75</ele>
        <time>2015-02-22T13:20:38Z</time>
      </trkpt>
      <trkpt lat="45.29887" lon="5.83083">
        <ele>1528.63</ele>
        <time>2015-02-22T13:20:58Z</time>
      </trkpt>
      <trkpt lat="45.29884" lon="5.83078">
        <ele>1531.04</ele>
        <time>2015-02-22T13:21:10Z</time>
      </trkpt>
      <trkpt lat="45.29883" lon="5.83065">
        <ele>1533.92</ele>
        <time>2015-02-22T13:21:27Z</time>
      </trkpt>
      <trkpt lat="45.29886" lon="5.83058">
        <ele>1537.29</ele>
        <time>2015-02-22T13:21:46Z</time>
      </trkpt>
      <trkpt lat="45.29887" lon="5.83052">
        <ele>1539.69</ele>
        <time>2015-02-22T13:22:05Z</time>
      </trkpt>
      <trkpt lat="45.2989" lon="5.83046">
        <ele>1542.57</ele>
        <time>2015-02-22T13:22:21Z</time>
      </trkpt>
      <trkpt lat="45.29892" lon="5.83045">
        <ele>1544.01</ele>
        <time>2015-02-22T13:22:56Z</time>
      </trkpt>
      <trkpt lat="45.29894" lon="5.83038">
        <ele>1546.9</ele>
        <time>2015-02-22T13:23:34Z</time>
      </trkpt>
      <trkpt lat="45.29889" lon="5.83034">
        <ele>1548.82</ele>
        <time>2015-02-22T13:24:07Z</time>
      </trkpt>
      <trkpt lat="45.29891" lon="5.8303">
        <ele>1551.71</ele>
        <time>2015-02-22T13:24:26Z</time>
      </trkpt>
      <trkpt lat="45.29898" lon="5.83018">
        <ele>1555.07</ele>
        <time>2015-02-22T13:24:48Z</time>
      </trkpt>
      <trkpt lat="45.29903" lon="5.83012">
        <ele>1557.95</ele>
        <time>2015-02-22T13:25:04Z</time>
      </trkpt>
      <trkpt lat="45.29897" lon="5.83007">
        <ele>1561.32</ele>
        <time>2015-02-22T13:25:28Z</time>
      </trkpt>
      <trkpt lat="45.29893" lon="5.83007">
        <ele>1563.72</ele>
        <time>2015-02-22T13:25:46Z</time>
      </trkpt>
      <trkpt lat="45.29887" lon="5.83005">
        <ele>1564.68</ele>
        <time>2015-02-22T13:26:08Z</time>
      </trkpt>
      <trkpt lat="45.29882" lon="5.83005">
        <ele>1565.16</ele>
        <time>2015-02-22T13:26:19Z</time>
      </trkpt>
      <trkpt lat="45.29885" lon="5.83002">
        <ele>1566.61</ele>
        <time>2015-02-22T13:26:33Z</time>
      </trkpt>
      <trkpt lat="45.29886" lon="5.83001">
        <ele>1568.53</ele>
        <time>2015-02-22T13:26:37Z</time>
      </trkpt>
      <trkpt lat="45.29886" lon="5.82998">
        <ele>1570.45</ele>
        <time>2015-02-22T13:27:07Z</time>
      </trkpt>
      <trkpt lat="45.29886" lon="5.82996">
        <ele>1571.41</ele>
        <time>2015-02-22T13:27:22Z</time>
      </trkpt>
      <trkpt lat="45.29882" lon="5.82993">
        <ele>1574.3</ele>
        <time>2015-02-22T13:28:00Z</time>
      </trkpt>
      <trkpt lat="45.29888" lon="5.82988">
        <ele>1577.66</ele>
        <time>2015-02-22T13:28:18Z</time>
      </trkpt>
      <trkpt lat="45.29893" lon="5.82981">
        <ele>1580.06</ele>
        <time>2015-02-22T13:28:37Z</time>
      </trkpt>
      <trkpt lat="45.29891" lon="5.82978">
        <ele>1582.47</ele>
        <time>2015-02-22T13:29:06Z</time>
      </trkpt>
      <trkpt lat="45.29885" lon="5.82972">
        <ele>1584.39</ele>
        <time>2015-02-22T13:29:27Z</time>
      </trkpt>
      <trkpt lat="45.29879" lon="5.82959">
        <ele>1587.75</ele>
        <time>2015-02-22T13:29:46Z</time>
      </trkpt>
      <trkpt lat="45.29886" lon="5.82961">
        <ele>1589.68</ele>
        <time>2015-02-22T13:30:07Z</time>
      </trkpt>
      <trkpt lat="45.29894" lon="5.82956">
        <ele>1593.04</ele>
        <time>2015-02-22T13:30:25Z</time>
      </trkpt>
      <trkpt lat="45.299" lon="5.82954">
        <ele>1595.45</ele>
        <time>2015-02-22T13:30:48Z</time>
      </trkpt>
      <trkpt lat="45.29901" lon="5.82952">
        <ele>1596.89</ele>
        <time>2015-02-22T13:31:07Z</time>
      </trkpt>
      <trkpt lat="45.29903" lon="5.82949">
        <ele>1598.81</ele>
        <time>2015-02-22T13:31:20Z</time>
      </trkpt>
      <trkpt lat="45.29907" lon="5.82945">
        <ele>1600.73</ele>
        <time>2015-02-22T13:31:33Z</time>
      </trkpt>
      <trkpt lat="45.29911" lon="5.82935">
        <ele>1602.66</ele>
        <time>2015-02-22T13:31:48Z</time>
      </trkpt>
      <trkpt lat="45.29908" lon="5.82937">
        <ele>1604.58</ele>
        <time>2015-02-22T13:32:08Z</time>
      </trkpt>
      <trkpt lat="45.29901" lon="5.82938">
        <ele>1606.98</ele>
        <time>2015-02-22T13:32:26Z</time>
      </trkpt>
      <trkpt lat="45.29896" lon="5.82938">
        <ele>1609.38</ele>
        <time>2015-02-22T13:32:40Z</time>
      </trkpt>
      <trkpt lat="45.29895" lon="5.82937">
        <ele>1609.86</ele>
        <time>2015-02-22T13:32:50Z</time>
      </trkpt>
      <trkpt lat="45.29896" lon="5.82935">
        <ele>1610.83</ele>
        <time>2015-02-22T13:33:02Z</time>
      </trkpt>
      <trkpt lat="45.29893" lon="5.82935">
        <ele>1611.79</ele>
        <time>2015-02-22T13:33:12Z</time>
      </trkpt>
      <trkpt lat="45.29892" lon="5.82935">
        <ele>1612.27</ele>
        <time>2015-02-22T13:33:14Z</time>
      </trkpt>
      <trkpt lat="45.29887" lon="5.82936">
        <ele>1614.19</ele>
        <time>2015-02-22T13:33:22Z</time>
      </trkpt>
      <trkpt lat="45.29883" lon="5.82934">
        <ele>1615.63</ele>
        <time>2015-02-22T13:33:33Z</time>
      </trkpt>
      <trkpt lat="45.29881" lon="5.82928">
        <ele>1618.04</ele>
        <time>2015-02-22T13:33:45Z</time>
      </trkpt>
      <trkpt lat="45.29882" lon="5.82918">
        <ele>1619.96</ele>
        <time>2015-02-22T13:33:59Z</time>
      </trkpt>
      <trkpt lat="45.2988" lon="5.82911">
        <ele>1623.32</ele>
        <time>2015-02-22T13:34:12Z</time>
      </trkpt>
      <trkpt lat="45.29876" lon="5.82912">
        <ele>1625.73</ele>
        <time>2015-02-22T13:34:30Z</time>
      </trkpt>
      <trkpt lat="45.29872" lon="5.82895">
        <ele>1628.61</ele>
        <time>2015-02-22T13:34:52Z</time>
      </trkpt>
      <trkpt lat="45.29868" lon="5.82887">
        <ele>1631.49</ele>
        <time>2015-02-22T13:35:15Z</time>
      </trkpt>
      <trkpt lat="45.29866" lon="5.8289">
        <ele>1633.9</ele>
        <time>2015-02-22T13:35:34Z</time>
      </trkpt>
      <trkpt lat="45.29864" lon="5.82883">
        <ele>1635.34</ele>
        <time>2015-02-22T13:35:54Z</time>
      </trkpt>
      <trkpt lat="45.29859" lon="5.8288">
        <ele>1638.7</ele>
        <time>2015-02-22T13:36:16Z</time>
      </trkpt>
      <trkpt lat="45.29856" lon="5.82871">
        <ele>1641.59</ele>
        <time>2015-02-22T13:36:42Z</time>
      </trkpt>
      <trkpt lat="45.2985" lon="5.82858">
        <ele>1644.47</ele>
        <time>2015-02-22T13:37:00Z</time>
      </trkpt>
      <trkpt lat="45.29843" lon="5.82845">
        <ele>1644.95</ele>
        <time>2015-02-22T13:37:19Z</time>
      </trkpt>
      <trkpt lat="45.29836" lon="5.82843">
        <ele>1648.32</ele>
        <time>2015-02-22T13:37:38Z</time>
      </trkpt>
      <trkpt lat="45.29833" lon="5.82851">
        <ele>1649.76</ele>
        <time>2015-02-22T13:38:06Z</time>
      </trkpt>
      <trkpt lat="45.29829" lon="5.82846">
        <ele>1653.12</ele>
        <time>2015-02-22T13:38:21Z</time>
      </trkpt>
      <trkpt lat="45.29821" lon="5.82846">
        <ele>1656.01</ele>
        <time>2015-02-22T13:38:40Z</time>
      </trkpt>
      <trkpt lat="45.29816" lon="5.82843">
        <ele>1659.37</ele>
        <time>2015-02-22T13:38:55Z</time>
      </trkpt>
      <trkpt lat="45.29812" lon="5.82849">
        <ele>1662.26</ele>
        <time>2015-02-22T13:39:15Z</time>
      </trkpt>
      <trkpt lat="45.29806" lon="5.82838">
        <ele>1665.14</ele>
        <time>2015-02-22T13:39:35Z</time>
      </trkpt>
      <trkpt lat="45.298" lon="5.8283">
        <ele>1668.02</ele>
        <time>2015-02-22T13:39:58Z</time>
      </trkpt>
      <trkpt lat="45.29797" lon="5.82827">
        <ele>1670.91</ele>
        <time>2015-02-22T13:40:22Z</time>
      </trkpt>
      <trkpt lat="45.29793" lon="5.82827">
        <ele>1673.79</ele>
        <time>2015-02-22T13:40:44Z</time>
      </trkpt>
      <trkpt lat="45.29788" lon="5.82833">
        <ele>1677.16</ele>
        <time>2015-02-22T13:40:59Z</time>
      </trkpt>
      <trkpt lat="45.2979" lon="5.82827">
        <ele>1679.08</ele>
        <time>2015-02-22T13:41:12Z</time>
      </trkpt>
      <trkpt lat="45.2979" lon="5.82831">
        <ele>1680.04</ele>
        <time>2015-02-22T13:41:23Z</time>
      </trkpt>
      <trkpt lat="45.29788" lon="5.82832">
        <ele>1681.48</ele>
        <time>2015-02-22T13:41:34Z</time>
      </trkpt>
      <trkpt lat="45.29778" lon="5.82821">
        <ele>1684.85</ele>
        <time>2015-02-22T13:42:42Z</time>
      </trkpt>
      <trkpt lat="45.29769" lon="5.82816">
        <ele>1687.73</ele>
        <time>2015-02-22T13:42:56Z</time>
      </trkpt>
      <trkpt lat="45.29761" lon="5.82824">
        <ele>1691.1</ele>
        <time>2015-02-22T13:43:13Z</time>
      </trkpt>
      <trkpt lat="45.29758" lon="5.82831">
        <ele>1694.46</ele>
        <time>2015-02-22T13:43:30Z</time>
      </trkpt>
      <trkpt lat="45.29754" lon="5.82825">
        <ele>1697.34</ele>
        <time>2015-02-22T13:43:48Z</time>
      </trkpt>
      <trkpt lat="45.29749" lon="5.82826">
        <ele>1700.23</ele>
        <time>2015-02-22T13:44:10Z</time>
      </trkpt>
      <trkpt lat="45.29749" lon="5.82826">
        <ele>1700.23</ele>
        <time>2015-02-22T13:44:11Z</time>
      </trkpt>
      <trkpt lat="45.29746" lon="5.82825">
        <ele>1702.15</ele>
        <time>2015-02-22T13:44:22Z</time>
      </trkpt>
      <trkpt lat="45.29738" lon="5.82817">
        <ele>1705.52</ele>
        <time>2015-02-22T13:44:38Z</time>
      </trkpt>
      <trkpt lat="45.29731" lon="5.8281">
        <ele>1708.4</ele>
        <time>2015-02-22T13:45:01Z</time>
      </trkpt>
      <trkpt lat="45.29727" lon="5.82803">
        <ele>1711.28</ele>
        <time>2015-02-22T13:45:14Z</time>
      </trkpt>
      <trkpt lat="45.29722" lon="5.8279">
        <ele>1714.17</ele>
        <time>2015-02-22T13:45:32Z</time>
      </trkpt>
      <trkpt lat="45.29721" lon="5.82788">
        <ele>1714.17</ele>
        <time>2015-02-22T13:45:35Z</time>
      </trkpt>
      <trkpt lat="45.29715" lon="5.82783">
        <ele>1716.09</ele>
        <time>2015-02-22T13:45:48Z</time>
      </trkpt>
      <trkpt lat="45.29702" lon="5.82782">
        <ele>1719.46</ele>
        <time>2015-02-22T13:46:08Z</time>
      </trkpt>
      <trkpt lat="45.29693" lon="5.82785">
        <ele>1722.34</ele>
        <time>2015-02-22T13:46:27Z</time>
      </trkpt>
      <trkpt lat="45.2968" lon="5.82788">
        <ele>1725.22</ele>
        <time>2015-02-22T13:46:47Z</time>
      </trkpt>
      <trkpt lat="45.29673" lon="5.82798">
        <ele>1728.59</ele>
        <time>2015-02-22T13:47:05Z</time>
      </trkpt>
      <trkpt lat="45.29669" lon="5.8281">
        <ele>1729.55</ele>
        <time>2015-02-22T13:47:18Z</time>
      </trkpt>
      <trkpt lat="45.29667" lon="5.82824">
        <ele>1731.47</ele>
        <time>2015-02-22T13:47:33Z</time>
      </trkpt>
      <trkpt lat="45.29668" lon="5.82828">
        <ele>1731.95</ele>
        <time>2015-02-22T13:47:52Z</time>
      </trkpt>
      <trkpt lat="45.29669" lon="5.82829">
        <ele>1732.43</ele>
        <time>2015-02-22T13:48:53Z</time>
      </trkpt>
      <trkpt lat="45.29668" lon="5.8283">
        <ele>1731.47</ele>
        <time>2015-02-22T13:50:47Z</time>
      </trkpt>
      <trkpt lat="45.29668" lon="5.82831">
        <ele>1730.99</ele>
        <time>2015-02-22T13:52:59Z</time>
      </trkpt>
      <trkpt lat="45.29667" lon="5.82831">
        <ele>1730.99</ele>
        <time>2015-02-22T13:53:54Z</time>
      </trkpt>
      <trkpt lat="45.29667" lon="5.82827">
        <ele>1732.43</ele>
        <time>2015-02-22T13:54:10Z</time>
      </trkpt>
      <trkpt lat="45.29672" lon="5.82798">
        <ele>1729.07</ele>
        <time>2015-02-22T13:54:22Z</time>
      </trkpt>
      <trkpt lat="45.29665" lon="5.82757">
        <ele>1725.7</ele>
        <time>2015-02-22T13:54:28Z</time>
      </trkpt>
      <trkpt lat="45.29661" lon="5.82751">
        <ele>1724.74</ele>
        <time>2015-02-22T13:54:29Z</time>
      </trkpt>
      <trkpt lat="45.29651" lon="5.82732">
        <ele>1719.46</ele>
        <time>2015-02-22T13:54:33Z</time>
      </trkpt>
      <trkpt lat="45.29649" lon="5.82727">
        <ele>1719.46</ele>
        <time>2015-02-22T13:54:34Z</time>
      </trkpt>
      <trkpt lat="45.29646" lon="5.82716">
        <ele>1714.65</ele>
        <time>2015-02-22T13:54:37Z</time>
      </trkpt>
      <trkpt lat="45.29645" lon="5.82713">
        <ele>1710.8</ele>
        <time>2015-02-22T13:54:40Z</time>
      </trkpt>
      <trkpt lat="45.29645" lon="5.82714">
        <ele>1709.84</ele>
        <time>2015-02-22T13:54:42Z</time>
      </trkpt>
      <trkpt lat="45.29644" lon="5.82715">
        <ele>1708.4</ele>
        <time>2015-02-22T13:55:10Z</time>
      </trkpt>
      <trkpt lat="45.29638" lon="5.82703">
        <ele>1704.07</ele>
        <time>2015-02-22T13:55:14Z</time>
      </trkpt>
      <trkpt lat="45.29636" lon="5.827">
        <ele>1700.23</ele>
        <time>2015-02-22T13:55:18Z</time>
      </trkpt>
      <trkpt lat="45.29635" lon="5.82698">
        <ele>1699.27</ele>
        <time>2015-02-22T13:55:23Z</time>
      </trkpt>
      <trkpt lat="45.29616" lon="5.82682">
        <ele>1696.86</ele>
        <time>2015-02-22T13:55:30Z</time>
      </trkpt>
      <trkpt lat="45.29601" lon="5.82669">
        <ele>1692.54</ele>
        <time>2015-02-22T13:55:34Z</time>
      </trkpt>
      <trkpt lat="45.29595" lon="5.82661">
        <ele>1690.62</ele>
        <time>2015-02-22T13:55:36Z</time>
      </trkpt>
      <trkpt lat="45.29592" lon="5.82659">
        <ele>1686.77</ele>
        <time>2015-02-22T13:55:39Z</time>
      </trkpt>
      <trkpt lat="45.29589" lon="5.82654">
        <ele>1683.41</ele>
        <time>2015-02-22T13:55:43Z</time>
      </trkpt>
      <trkpt lat="45.29589" lon="5.82651">
        <ele>1681</ele>
        <time>2015-02-22T13:55:46Z</time>
      </trkpt>
      <trkpt lat="45.29588" lon="5.8265">
        <ele>1679.56</ele>
        <time>2015-02-22T13:55:49Z</time>
      </trkpt>
      <trkpt lat="45.29588" lon="5.82649">
        <ele>1679.56</ele>
        <time>2015-02-22T13:56:14Z</time>
      </trkpt>
      <trkpt lat="45.29599" lon="5.8264">
        <ele>1675.23</ele>
        <time>2015-02-22T13:56:19Z</time>
      </trkpt>
      <trkpt lat="45.29607" lon="5.82635">
        <ele>1670.91</ele>
        <time>2015-02-22T13:56:21Z</time>
      </trkpt>
      <trkpt lat="45.29614" lon="5.8263">
        <ele>1667.06</ele>
        <time>2015-02-22T13:56:23Z</time>
      </trkpt>
      <trkpt lat="45.29618" lon="5.82617">
        <ele>1664.66</ele>
        <time>2015-02-22T13:56:26Z</time>
      </trkpt>
      <trkpt lat="45.29624" lon="5.82611">
        <ele>1660.81</ele>
        <time>2015-02-22T13:56:28Z</time>
      </trkpt>
      <trkpt lat="45.29628" lon="5.82608">
        <ele>1656.49</ele>
        <time>2015-02-22T13:56:30Z</time>
      </trkpt>
      <trkpt lat="45.29631" lon="5.82606">
        <ele>1653.6</ele>
        <time>2015-02-22T13:56:34Z</time>
      </trkpt>
      <trkpt lat="45.29632" lon="5.82597">
        <ele>1651.68</ele>
        <time>2015-02-22T13:56:46Z</time>
      </trkpt>
      <trkpt lat="45.29634" lon="5.82598">
        <ele>1652.64</ele>
        <time>2015-02-22T13:56:57Z</time>
      </trkpt>
      <trkpt lat="45.29647" lon="5.82583">
        <ele>1648.32</ele>
        <time>2015-02-22T13:57:02Z</time>
      </trkpt>
      <trkpt lat="45.29654" lon="5.82579">
        <ele>1643.99</ele>
        <time>2015-02-22T13:57:04Z</time>
      </trkpt>
      <trkpt lat="45.29656" lon="5.82579">
        <ele>1641.59</ele>
        <time>2015-02-22T13:57:07Z</time>
      </trkpt>
      <trkpt lat="45.29661" lon="5.82581">
        <ele>1641.59</ele>
        <time>2015-02-22T13:57:29Z</time>
      </trkpt>
      <trkpt lat="45.29672" lon="5.82568">
        <ele>1637.26</ele>
        <time>2015-02-22T13:57:36Z</time>
      </trkpt>
      <trkpt lat="45.29679" lon="5.82553">
        <ele>1631.01</ele>
        <time>2015-02-22T13:57:38Z</time>
      </trkpt>
      <trkpt lat="45.2968" lon="5.82547">
        <ele>1626.69</ele>
        <time>2015-02-22T13:57:39Z</time>
      </trkpt>
      <trkpt lat="45.2968" lon="5.82541">
        <ele>1626.69</ele>
        <time>2015-02-22T13:57:40Z</time>
      </trkpt>
      <trkpt lat="45.29682" lon="5.8253">
        <ele>1619.96</ele>
        <time>2015-02-22T13:57:42Z</time>
      </trkpt>
      <trkpt lat="45.29681" lon="5.82523">
        <ele>1617.07</ele>
        <time>2015-02-22T13:57:43Z</time>
      </trkpt>
      <trkpt lat="45.29678" lon="5.82511">
        <ele>1609.86</ele>
        <time>2015-02-22T13:57:45Z</time>
      </trkpt>
      <trkpt lat="45.29676" lon="5.82504">
        <ele>1606.02</ele>
        <time>2015-02-22T13:57:46Z</time>
      </trkpt>
      <trkpt lat="45.29677" lon="5.8249">
        <ele>1598.33</ele>
        <time>2015-02-22T13:57:48Z</time>
      </trkpt>
      <trkpt lat="45.2968" lon="5.82484">
        <ele>1594</ele>
        <time>2015-02-22T13:57:49Z</time>
      </trkpt>
      <trkpt lat="45.29683" lon="5.82478">
        <ele>1590.16</ele>
        <time>2015-02-22T13:57:50Z</time>
      </trkpt>
      <trkpt lat="45.2969" lon="5.82466">
        <ele>1586.31</ele>
        <time>2015-02-22T13:57:52Z</time>
      </trkpt>
      <trkpt lat="45.29694" lon="5.8246">
        <ele>1582.47</ele>
        <time>2015-02-22T13:57:53Z</time>
      </trkpt>
      <trkpt lat="45.297" lon="5.82447">
        <ele>1574.3</ele>
        <time>2015-02-22T13:57:55Z</time>
      </trkpt>
      <trkpt lat="45.29702" lon="5.82441">
        <ele>1570.45</ele>
        <time>2015-02-22T13:57:56Z</time>
      </trkpt>
      <trkpt lat="45.29703" lon="5.82436">
        <ele>1566.61</ele>
        <time>2015-02-22T13:57:57Z</time>
      </trkpt>
      <trkpt lat="45.29703" lon="5.8243">
        <ele>1563.24</ele>
        <time>2015-02-22T13:57:58Z</time>
      </trkpt>
      <trkpt lat="45.297" lon="5.82423">
        <ele>1559.88</ele>
        <time>2015-02-22T13:57:59Z</time>
      </trkpt>
      <trkpt lat="45.29694" lon="5.82407">
        <ele>1551.71</ele>
        <time>2015-02-22T13:58:02Z</time>
      </trkpt>
      <trkpt lat="45.29693" lon="5.82405">
        <ele>1552.19</ele>
        <time>2015-02-22T13:58:03Z</time>
      </trkpt>
      <trkpt lat="45.29682" lon="5.82413">
        <ele>1549.78</ele>
        <time>2015-02-22T13:58:14Z</time>
      </trkpt>
      <trkpt lat="45.29682" lon="5.8241">
        <ele>1549.78</ele>
        <time>2015-02-22T13:58:56Z</time>
      </trkpt>
      <trkpt lat="45.29683" lon="5.82401">
        <ele>1545.94</ele>
        <time>2015-02-22T13:59:00Z</time>
      </trkpt>
      <trkpt lat="45.29678" lon="5.82397">
        <ele>1542.57</ele>
        <time>2015-02-22T13:59:12Z</time>
      </trkpt>
      <trkpt lat="45.29667" lon="5.8239">
        <ele>1539.69</ele>
        <time>2015-02-22T13:59:25Z</time>
      </trkpt>
      <trkpt lat="45.29653" lon="5.82381">
        <ele>1535.84</ele>
        <time>2015-02-22T13:59:32Z</time>
      </trkpt>
      <trkpt lat="45.29642" lon="5.82372">
        <ele>1533.44</ele>
        <time>2015-02-22T13:59:46Z</time>
      </trkpt>
      <trkpt lat="45.29649" lon="5.82376">
        <ele>1532.48</ele>
        <time>2015-02-22T14:00:23Z</time>
      </trkpt>
      <trkpt lat="45.2965" lon="5.82371">
        <ele>1528.15</ele>
        <time>2015-02-22T14:00:26Z</time>
      </trkpt>
      <trkpt lat="45.2965" lon="5.82364">
        <ele>1525.27</ele>
        <time>2015-02-22T14:00:28Z</time>
      </trkpt>
      <trkpt lat="45.29649" lon="5.82365">
        <ele>1525.27</ele>
        <time>2015-02-22T14:00:29Z</time>
      </trkpt>
      <trkpt lat="45.29651" lon="5.82358">
        <ele>1521.9</ele>
        <time>2015-02-22T14:00:33Z</time>
      </trkpt>
      <trkpt lat="45.29651" lon="5.82355">
        <ele>1520.46</ele>
        <time>2015-02-22T14:00:34Z</time>
      </trkpt>
      <trkpt lat="45.29643" lon="5.82347">
        <ele>1514.21</ele>
        <time>2015-02-22T14:00:37Z</time>
      </trkpt>
      <trkpt lat="45.29643" lon="5.82345">
        <ele>1510.85</ele>
        <time>2015-02-22T14:00:39Z</time>
      </trkpt>
      <trkpt lat="45.29642" lon="5.82342">
        <ele>1509.89</ele>
        <time>2015-02-22T14:00:41Z</time>
      </trkpt>
      <trkpt lat="45.29635" lon="5.82335">
        <ele>1506.52</ele>
        <time>2015-02-22T14:00:45Z</time>
      </trkpt>
      <trkpt lat="45.29632" lon="5.82326">
        <ele>1502.68</ele>
        <time>2015-02-22T14:00:49Z</time>
      </trkpt>
      <trkpt lat="45.29633" lon="5.82318">
        <ele>1498.35</ele>
        <time>2015-02-22T14:00:51Z</time>
      </trkpt>
      <trkpt lat="45.29635" lon="5.82311">
        <ele>1496.43</ele>
        <time>2015-02-22T14:00:53Z</time>
      </trkpt>
      <trkpt lat="45.29636" lon="5.82309">
        <ele>1492.58</ele>
        <time>2015-02-22T14:00:55Z</time>
      </trkpt>
      <trkpt lat="45.29636" lon="5.82308">
        <ele>1491.14</ele>
        <time>2015-02-22T14:00:56Z</time>
      </trkpt>
      <trkpt lat="45.29634" lon="5.82307">
        <ele>1489.7</ele>
        <time>2015-02-22T14:00:59Z</time>
      </trkpt>
      <trkpt lat="45.29624" lon="5.82297">
        <ele>1486.82</ele>
        <time>2015-02-22T14:01:28Z</time>
      </trkpt>
      <trkpt lat="45.29621" lon="5.82297">
        <ele>1486.34</ele>
        <time>2015-02-22T14:01:31Z</time>
      </trkpt>
      <trkpt lat="45.2961" lon="5.82298">
        <ele>1483.93</ele>
        <time>2015-02-22T14:01:53Z</time>
      </trkpt>
      <trkpt lat="45.2961" lon="5.82298">
        <ele>1483.93</ele>
        <time>2015-02-22T14:01:54Z</time>
      </trkpt>
      <trkpt lat="45.29608" lon="5.8227">
        <ele>1480.09</ele>
        <time>2015-02-22T14:01:59Z</time>
      </trkpt>
      <trkpt lat="45.29613" lon="5.82255">
        <ele>1474.8</ele>
        <time>2015-02-22T14:02:01Z</time>
      </trkpt>
      <trkpt lat="45.29615" lon="5.8225">
        <ele>1471.44</ele>
        <time>2015-02-22T14:02:02Z</time>
      </trkpt>
      <trkpt lat="45.29617" lon="5.82244">
        <ele>1471.44</ele>
        <time>2015-02-22T14:02:03Z</time>
      </trkpt>
      <trkpt lat="45.2962" lon="5.8224">
        <ele>1468.07</ele>
        <time>2015-02-22T14:02:04Z</time>
      </trkpt>
      <trkpt lat="45.29619" lon="5.82235">
        <ele>1465.19</ele>
        <time>2015-02-22T14:02:05Z</time>
      </trkpt>
      <trkpt lat="45.29621" lon="5.82223">
        <ele>1459.42</ele>
        <time>2015-02-22T14:02:07Z</time>
      </trkpt>
      <trkpt lat="45.2962" lon="5.82209">
        <ele>1453.17</ele>
        <time>2015-02-22T14:02:09Z</time>
      </trkpt>
      <trkpt lat="45.29626" lon="5.82198">
        <ele>1446.44</ele>
        <time>2015-02-22T14:02:11Z</time>
      </trkpt>
      <trkpt lat="45.29628" lon="5.82193">
        <ele>1443.08</ele>
        <time>2015-02-22T14:02:12Z</time>
      </trkpt>
      <trkpt lat="45.29629" lon="5.82187">
        <ele>1440.19</ele>
        <time>2015-02-22T14:02:13Z</time>
      </trkpt>
      <trkpt lat="45.29631" lon="5.82174">
        <ele>1437.31</ele>
        <time>2015-02-22T14:02:15Z</time>
      </trkpt>
      <trkpt lat="45.29633" lon="5.82165">
        <ele>1431.06</ele>
        <time>2015-02-22T14:02:17Z</time>
      </trkpt>
      <trkpt lat="45.29632" lon="5.8216">
        <ele>1428.18</ele>
        <time>2015-02-22T14:02:18Z</time>
      </trkpt>
      <trkpt lat="45.2963" lon="5.82154">
        <ele>1424.81</ele>
        <time>2015-02-22T14:02:19Z</time>
      </trkpt>
      <trkpt lat="45.29624" lon="5.82143">
        <ele>1419.04</ele>
        <time>2015-02-22T14:02:21Z</time>
      </trkpt>
      <trkpt lat="45.29623" lon="5.82128">
        <ele>1412.79</ele>
        <time>2015-02-22T14:02:23Z</time>
      </trkpt>
      <trkpt lat="45.29625" lon="5.82119">
        <ele>1409.43</ele>
        <time>2015-02-22T14:02:24Z</time>
      </trkpt>
      <trkpt lat="45.29626" lon="5.82112">
        <ele>1405.58</ele>
        <time>2015-02-22T14:02:25Z</time>
      </trkpt>
      <trkpt lat="45.29624" lon="5.821">
        <ele>1402.22</ele>
        <time>2015-02-22T14:02:27Z</time>
      </trkpt>
      <trkpt lat="45.29624" lon="5.82096">
        <ele>1398.86</ele>
        <time>2015-02-22T14:02:28Z</time>
      </trkpt>
      <trkpt lat="45.29624" lon="5.82087">
        <ele>1393.57</ele>
        <time>2015-02-22T14:02:30Z</time>
      </trkpt>
      <trkpt lat="45.29623" lon="5.82084">
        <ele>1390.2</ele>
        <time>2015-02-22T14:02:32Z</time>
      </trkpt>
      <trkpt lat="45.29618" lon="5.82075">
        <ele>1386.84</ele>
        <time>2015-02-22T14:02:37Z</time>
      </trkpt>
      <trkpt lat="45.29618" lon="5.82071">
        <ele>1386.84</ele>
        <time>2015-02-22T14:02:38Z</time>
      </trkpt>
      <trkpt lat="45.29623" lon="5.82062">
        <ele>1384.44</ele>
        <time>2015-02-22T14:02:49Z</time>
      </trkpt>
      <trkpt lat="45.29624" lon="5.82062">
        <ele>1386.36</ele>
        <time>2015-02-22T14:03:45Z</time>
      </trkpt>
      <trkpt lat="45.29661" lon="5.8207">
        <ele>1384.44</ele>
        <time>2015-02-22T14:03:56Z</time>
      </trkpt>
      <trkpt lat="45.29665" lon="5.8207">
        <ele>1384.44</ele>
        <time>2015-02-22T14:04:09Z</time>
      </trkpt>
      <trkpt lat="45.29665" lon="5.8207">
        <ele>1387.32</ele>
        <time>2015-02-22T14:04:55Z</time>
      </trkpt>
      <trkpt lat="45.29696" lon="5.82077">
        <ele>1387.32</ele>
        <time>2015-02-22T14:05:18Z</time>
      </trkpt>
      <trkpt lat="45.29723" lon="5.82079">
        <ele>1386.36</ele>
        <time>2015-02-22T14:05:28Z</time>
      </trkpt>
      <trkpt lat="45.29748" lon="5.82081">
        <ele>1384.92</ele>
        <time>2015-02-22T14:05:41Z</time>
      </trkpt>
      <trkpt lat="45.29774" lon="5.82088">
        <ele>1383.47</ele>
        <time>2015-02-22T14:05:46Z</time>
      </trkpt>
      <trkpt lat="45.29824" lon="5.82082">
        <ele>1380.11</ele>
        <time>2015-02-22T14:05:54Z</time>
      </trkpt>
      <trkpt lat="45.29861" lon="5.82073">
        <ele>1376.75</ele>
        <time>2015-02-22T14:06:00Z</time>
      </trkpt>
      <trkpt lat="45.29881" lon="5.82067">
        <ele>1374.34</ele>
        <time>2015-02-22T14:06:03Z</time>
      </trkpt>
      <trkpt lat="45.29915" lon="5.82057">
        <ele>1371.94</ele>
        <time>2015-02-22T14:06:08Z</time>
      </trkpt>
      <trkpt lat="45.29954" lon="5.82051">
        <ele>1367.61</ele>
        <time>2015-02-22T14:06:14Z</time>
      </trkpt>
      <trkpt lat="45.29986" lon="5.82054">
        <ele>1363.77</ele>
        <time>2015-02-22T14:06:19Z</time>
      </trkpt>
      <trkpt lat="45.30004" lon="5.82075">
        <ele>1362.33</ele>
        <time>2015-02-22T14:06:23Z</time>
      </trkpt>
      <trkpt lat="45.30025" lon="5.82109">
        <ele>1358.48</ele>
        <time>2015-02-22T14:06:29Z</time>
      </trkpt>
      <trkpt lat="45.30034" lon="5.8213">
        <ele>1357.04</ele>
        <time>2015-02-22T14:06:32Z</time>
      </trkpt>
      <trkpt lat="45.30054" lon="5.82154">
        <ele>1350.79</ele>
        <time>2015-02-22T14:06:36Z</time>
      </trkpt>
      <trkpt lat="45.30072" lon="5.82169">
        <ele>1346.94</ele>
        <time>2015-02-22T14:06:39Z</time>
      </trkpt>
      <trkpt lat="45.30091" lon="5.8219">
        <ele>1345.5</ele>
        <time>2015-02-22T14:06:42Z</time>
      </trkpt>
      <trkpt lat="45.30103" lon="5.82203">
        <ele>1343.58</ele>
        <time>2015-02-22T14:06:44Z</time>
      </trkpt>
      <trkpt lat="45.30121" lon="5.82219">
        <ele>1339.25</ele>
        <time>2015-02-22T14:06:47Z</time>
      </trkpt>
      <trkpt lat="45.30155" lon="5.82236">
        <ele>1334.93</ele>
        <time>2015-02-22T14:06:52Z</time>
      </trkpt>
      <trkpt lat="45.30169" lon="5.82242">
        <ele>1334.45</ele>
        <time>2015-02-22T14:06:54Z</time>
      </trkpt>
      <trkpt lat="45.30176" lon="5.82245">
        <ele>1333.49</ele>
        <time>2015-02-22T14:06:55Z</time>
      </trkpt>
      <trkpt lat="45.30209" lon="5.82247">
        <ele>1329.16</ele>
        <time>2015-02-22T14:06:59Z</time>
      </trkpt>
      <trkpt lat="45.30226" lon="5.82245">
        <ele>1327.24</ele>
        <time>2015-02-22T14:07:01Z</time>
      </trkpt>
      <trkpt lat="45.30264" lon="5.82237">
        <ele>1323.87</ele>
        <time>2015-02-22T14:07:06Z</time>
      </trkpt>
      <trkpt lat="45.30299" lon="5.8223">
        <ele>1320.99</ele>
        <time>2015-02-22T14:07:11Z</time>
      </trkpt>
      <trkpt lat="45.30321" lon="5.82244">
        <ele>1321.47</ele>
        <time>2015-02-22T14:07:16Z</time>
      </trkpt>
      <trkpt lat="45.30332" lon="5.82272">
        <ele>1319.07</ele>
        <time>2015-02-22T14:07:23Z</time>
      </trkpt>
      <trkpt lat="45.30347" lon="5.82297">
        <ele>1316.18</ele>
        <time>2015-02-22T14:07:27Z</time>
      </trkpt>
      <trkpt lat="45.30358" lon="5.82309">
        <ele>1315.22</ele>
        <time>2015-02-22T14:07:29Z</time>
      </trkpt>
      <trkpt lat="45.30379" lon="5.82332">
        <ele>1311.86</ele>
        <time>2015-02-22T14:07:34Z</time>
      </trkpt>
      <trkpt lat="45.30399" lon="5.82372">
        <ele>1310.41</ele>
        <time>2015-02-22T14:07:46Z</time>
      </trkpt>
      <trkpt lat="45.3041" lon="5.82424">
        <ele>1307.53</ele>
        <time>2015-02-22T14:07:57Z</time>
      </trkpt>
      <trkpt lat="45.30413" lon="5.82438">
        <ele>1306.57</ele>
        <time>2015-02-22T14:07:59Z</time>
      </trkpt>
      <trkpt lat="45.30425" lon="5.82467">
        <ele>1304.65</ele>
        <time>2015-02-22T14:08:03Z</time>
      </trkpt>
      <trkpt lat="45.3043" lon="5.82515">
        <ele>1301.28</ele>
        <time>2015-02-22T14:08:10Z</time>
      </trkpt>
      <trkpt lat="45.3041" lon="5.82571">
        <ele>1297.44</ele>
        <time>2015-02-22T14:08:18Z</time>
      </trkpt>
      <trkpt lat="45.30408" lon="5.82579">
        <ele>1296.48</ele>
        <time>2015-02-22T14:08:19Z</time>
      </trkpt>
      <trkpt lat="45.30405" lon="5.82605">
        <ele>1293.59</ele>
        <time>2015-02-22T14:08:22Z</time>
      </trkpt>
      <trkpt lat="45.30419" lon="5.8266">
        <ele>1289.75</ele>
        <time>2015-02-22T14:08:31Z</time>
      </trkpt>
      <trkpt lat="45.30429" lon="5.82688">
        <ele>1287.82</ele>
        <time>2015-02-22T14:08:40Z</time>
      </trkpt>
      <trkpt lat="45.30429" lon="5.82693">
        <ele>1290.71</ele>
        <time>2015-02-22T14:11:58Z</time>
      </trkpt>
      <trkpt lat="45.30431" lon="5.82696">
        <ele>1291.19</ele>
        <time>2015-02-22T14:14:55Z</time>
      </trkpt>
      <trkpt lat="45.30428" lon="5.82693">
        <ele>1292.15</ele>
        <time>2015-02-22T14:16:02Z</time>
      </trkpt>
      <trkpt lat="45.30428" lon="5.82699">
        <ele>1295.03</ele>
        <time>2015-02-22T14:19:04Z</time>
      </trkpt>
      <trkpt lat="45.30428" lon="5.82702">
        <ele>1295.51</ele>
        <time>2015-02-22T14:19:07Z</time>
      </trkpt>
      <trkpt lat="45.30416" lon="5.82727">
        <ele>1298.4</ele>
        <time>2015-02-22T14:19:34Z</time>
      </trkpt>
      <trkpt lat="45.30407" lon="5.82746">
        <ele>1301.28</ele>
        <time>2015-02-22T14:19:54Z</time>
      </trkpt>
      <trkpt lat="45.30394" lon="5.82772">
        <ele>1304.17</ele>
        <time>2015-02-22T14:20:18Z</time>
      </trkpt>
      <trkpt lat="45.30379" lon="5.82792">
        <ele>1307.53</ele>
        <time>2015-02-22T14:20:40Z</time>
      </trkpt>
      <trkpt lat="45.30379" lon="5.82793">
        <ele>1307.53</ele>
        <time>2015-02-22T14:20:41Z</time>
      </trkpt>
      <trkpt lat="45.30365" lon="5.82812">
        <ele>1310.41</ele>
        <time>2015-02-22T14:21:05Z</time>
      </trkpt>
      <trkpt lat="45.30352" lon="5.8284">
        <ele>1313.3</ele>
        <time>2015-02-22T14:21:32Z</time>
      </trkpt>
      <trkpt lat="45.3035" lon="5.82867">
        <ele>1316.18</ele>
        <time>2015-02-22T14:21:56Z</time>
      </trkpt>
      <trkpt lat="45.30352" lon="5.82889">
        <ele>1319.55</ele>
        <time>2015-02-22T14:22:19Z</time>
      </trkpt>
      <trkpt lat="45.3036" lon="5.82907">
        <ele>1322.91</ele>
        <time>2015-02-22T14:22:42Z</time>
      </trkpt>
      <trkpt lat="45.30374" lon="5.82921">
        <ele>1325.31</ele>
        <time>2015-02-22T14:23:08Z</time>
      </trkpt>
      <trkpt lat="45.30385" lon="5.82934">
        <ele>1328.2</ele>
        <time>2015-02-22T14:23:28Z</time>
      </trkpt>
      <trkpt lat="45.30383" lon="5.82943">
        <ele>1331.08</ele>
        <time>2015-02-22T14:23:42Z</time>
      </trkpt>
      <trkpt lat="45.30373" lon="5.8296">
        <ele>1333.49</ele>
        <time>2015-02-22T14:24:03Z</time>
      </trkpt>
      <trkpt lat="45.30367" lon="5.82976">
        <ele>1336.37</ele>
        <time>2015-02-22T14:24:22Z</time>
      </trkpt>
      <trkpt lat="45.30361" lon="5.82992">
        <ele>1339.73</ele>
        <time>2015-02-22T14:24:44Z</time>
      </trkpt>
      <trkpt lat="45.30351" lon="5.83008">
        <ele>1342.14</ele>
        <time>2015-02-22T14:25:09Z</time>
      </trkpt>
      <trkpt lat="45.30343" lon="5.8302">
        <ele>1345.5</ele>
        <time>2015-02-22T14:25:30Z</time>
      </trkpt>
      <trkpt lat="45.30336" lon="5.83034">
        <ele>1348.87</ele>
        <time>2015-02-22T14:25:54Z</time>
      </trkpt>
      <trkpt lat="45.30323" lon="5.83048">
        <ele>1351.75</ele>
        <time>2015-02-22T14:26:19Z</time>
      </trkpt>
      <trkpt lat="45.3031" lon="5.83065">
        <ele>1353.67</ele>
        <time>2015-02-22T14:26:42Z</time>
      </trkpt>
      <trkpt lat="45.30297" lon="5.83086">
        <ele>1356.08</ele>
        <time>2015-02-22T14:27:09Z</time>
      </trkpt>
      <trkpt lat="45.30283" lon="5.83099">
        <ele>1358.96</ele>
        <time>2015-02-22T14:27:32Z</time>
      </trkpt>
      <trkpt lat="45.30275" lon="5.83108">
        <ele>1361.84</ele>
        <time>2015-02-22T14:27:50Z</time>
      </trkpt>
      <trkpt lat="45.30265" lon="5.83118">
        <ele>1364.73</ele>
        <time>2015-02-22T14:28:10Z</time>
      </trkpt>
      <trkpt lat="45.30258" lon="5.83125">
        <ele>1367.61</ele>
        <time>2015-02-22T14:28:28Z</time>
      </trkpt>
      <trkpt lat="45.30249" lon="5.83128">
        <ele>1369.54</ele>
        <time>2015-02-22T14:28:47Z</time>
      </trkpt>
      <trkpt lat="45.30241" lon="5.83131">
        <ele>1372.42</ele>
        <time>2015-02-22T14:29:07Z</time>
      </trkpt>
      <trkpt lat="45.30231" lon="5.83132">
        <ele>1375.78</ele>
        <time>2015-02-22T14:29:26Z</time>
      </trkpt>
      <trkpt lat="45.30219" lon="5.83132">
        <ele>1378.67</ele>
        <time>2015-02-22T14:29:46Z</time>
      </trkpt>
      <trkpt lat="45.30205" lon="5.83131">
        <ele>1382.03</ele>
        <time>2015-02-22T14:30:08Z</time>
      </trkpt>
      <trkpt lat="45.30195" lon="5.83137">
        <ele>1385.4</ele>
        <time>2015-02-22T14:30:28Z</time>
      </trkpt>
      <trkpt lat="45.30186" lon="5.83142">
        <ele>1387.8</ele>
        <time>2015-02-22T14:30:46Z</time>
      </trkpt>
      <trkpt lat="45.30176" lon="5.83151">
        <ele>1390.68</ele>
        <time>2015-02-22T14:31:10Z</time>
      </trkpt>
      <trkpt lat="45.30168" lon="5.83176">
        <ele>1392.13</ele>
        <time>2015-02-22T14:31:36Z</time>
      </trkpt>
      <trkpt lat="45.30177" lon="5.83191">
        <ele>1395.01</ele>
        <time>2015-02-22T14:31:55Z</time>
      </trkpt>
      <trkpt lat="45.30183" lon="5.83215">
        <ele>1397.41</ele>
        <time>2015-02-22T14:32:22Z</time>
      </trkpt>
      <trkpt lat="45.30182" lon="5.83244">
        <ele>1399.34</ele>
        <time>2015-02-22T14:32:49Z</time>
      </trkpt>
      <trkpt lat="45.30177" lon="5.83274">
        <ele>1401.26</ele>
        <time>2015-02-22T14:33:19Z</time>
      </trkpt>
      <trkpt lat="45.30174" lon="5.83284">
        <ele>1402.22</ele>
        <time>2015-02-22T14:33:42Z</time>
      </trkpt>
      <trkpt lat="45.30161" lon="5.83296">
        <ele>1405.58</ele>
        <time>2015-02-22T14:34:05Z</time>
      </trkpt>
      <trkpt lat="45.30157" lon="5.83306">
        <ele>1407.99</ele>
        <time>2015-02-22T14:34:21Z</time>
      </trkpt>
      <trkpt lat="45.30149" lon="5.83318">
        <ele>1410.87</ele>
        <time>2015-02-22T14:34:39Z</time>
      </trkpt>
      <trkpt lat="45.30146" lon="5.8332">
        <ele>1411.35</ele>
        <time>2015-02-22T14:34:41Z</time>
      </trkpt>
      <trkpt lat="45.30142" lon="5.83328">
        <ele>1413.76</ele>
        <time>2015-02-22T14:34:54Z</time>
      </trkpt>
      <trkpt lat="45.30136" lon="5.83337">
        <ele>1416.64</ele>
        <time>2015-02-22T14:35:12Z</time>
      </trkpt>
      <trkpt lat="45.3013" lon="5.83339">
        <ele>1419.52</ele>
        <time>2015-02-22T14:35:36Z</time>
      </trkpt>
      <trkpt lat="45.30122" lon="5.83339">
        <ele>1422.89</ele>
        <time>2015-02-22T14:35:55Z</time>
      </trkpt>
      <trkpt lat="45.30113" lon="5.83338">
        <ele>1425.77</ele>
        <time>2015-02-22T14:36:14Z</time>
      </trkpt>
      <trkpt lat="45.30108" lon="5.83342">
        <ele>1428.18</ele>
        <time>2015-02-22T14:36:37Z</time>
      </trkpt>
      <trkpt lat="45.30104" lon="5.83351">
        <ele>1430.58</ele>
        <time>2015-02-22T14:36:48Z</time>
      </trkpt>
      <trkpt lat="45.30097" lon="5.83356">
        <ele>1432.5</ele>
        <time>2015-02-22T14:37:04Z</time>
      </trkpt>
      <trkpt lat="45.30087" lon="5.83362">
        <ele>1435.87</ele>
        <time>2015-02-22T14:37:24Z</time>
      </trkpt>
      <trkpt lat="45.30081" lon="5.83368">
        <ele>1437.79</ele>
        <time>2015-02-22T14:37:42Z</time>
      </trkpt>
      <trkpt lat="45.30076" lon="5.83371">
        <ele>1439.23</ele>
        <time>2015-02-22T14:37:53Z</time>
      </trkpt>
      <trkpt lat="45.3007" lon="5.83373">
        <ele>1440.67</ele>
        <time>2015-02-22T14:38:04Z</time>
      </trkpt>
      <trkpt lat="45.3006" lon="5.83378">
        <ele>1444.04</ele>
        <time>2015-02-22T14:38:25Z</time>
      </trkpt>
      <trkpt lat="45.30052" lon="5.83385">
        <ele>1447.4</ele>
        <time>2015-02-22T14:38:44Z</time>
      </trkpt>
      <trkpt lat="45.30045" lon="5.83386">
        <ele>1450.29</ele>
        <time>2015-02-22T14:38:59Z</time>
      </trkpt>
      <trkpt lat="45.30038" lon="5.83391">
        <ele>1453.17</ele>
        <time>2015-02-22T14:39:14Z</time>
      </trkpt>
      <trkpt lat="45.30033" lon="5.83391">
        <ele>1456.05</ele>
        <time>2015-02-22T14:39:35Z</time>
      </trkpt>
      <trkpt lat="45.30015" lon="5.83386">
        <ele>1458.94</ele>
        <time>2015-02-22T14:39:57Z</time>
      </trkpt>
      <trkpt lat="45.30008" lon="5.83379">
        <ele>1462.3</ele>
        <time>2015-02-22T14:40:14Z</time>
      </trkpt>
      <trkpt lat="45.30006" lon="5.83374">
        <ele>1465.19</ele>
        <time>2015-02-22T14:40:28Z</time>
      </trkpt>
      <trkpt lat="45.30002" lon="5.83363">
        <ele>1468.55</ele>
        <time>2015-02-22T14:40:59Z</time>
      </trkpt>
      <trkpt lat="45.29997" lon="5.83352">
        <ele>1471.44</ele>
        <time>2015-02-22T14:41:16Z</time>
      </trkpt>
      <trkpt lat="45.2998" lon="5.83341">
        <ele>1474.32</ele>
        <time>2015-02-22T14:41:44Z</time>
      </trkpt>
      <trkpt lat="45.29958" lon="5.83327">
        <ele>1472.4</ele>
        <time>2015-02-22T14:42:03Z</time>
      </trkpt>
      <trkpt lat="45.29942" lon="5.83321">
        <ele>1472.88</ele>
        <time>2015-02-22T14:42:19Z</time>
      </trkpt>
      <trkpt lat="45.29931" lon="5.83318">
        <ele>1475.76</ele>
        <time>2015-02-22T14:42:37Z</time>
      </trkpt>
      <trkpt lat="45.29918" lon="5.83317">
        <ele>1479.13</ele>
        <time>2015-02-22T14:42:56Z</time>
      </trkpt>
      <trkpt lat="45.2991" lon="5.83319">
        <ele>1482.01</ele>
        <time>2015-02-22T14:43:13Z</time>
      </trkpt>
      <trkpt lat="45.299" lon="5.83322">
        <ele>1485.37</ele>
        <time>2015-02-22T14:43:30Z</time>
      </trkpt>
      <trkpt lat="45.2989" lon="5.83314">
        <ele>1488.74</ele>
        <time>2015-02-22T14:43:48Z</time>
      </trkpt>
      <trkpt lat="45.29884" lon="5.83305">
        <ele>1491.62</ele>
        <time>2015-02-22T14:44:05Z</time>
      </trkpt>
      <trkpt lat="45.29878" lon="5.83295">
        <ele>1494.51</ele>
        <time>2015-02-22T14:44:21Z</time>
      </trkpt>
      <trkpt lat="45.2987" lon="5.8329">
        <ele>1497.39</ele>
        <time>2015-02-22T14:44:41Z</time>
      </trkpt>
      <trkpt lat="45.29865" lon="5.83286">
        <ele>1500.76</ele>
        <time>2015-02-22T14:44:57Z</time>
      </trkpt>
      <trkpt lat="45.29864" lon="5.83273">
        <ele>1503.64</ele>
        <time>2015-02-22T14:45:14Z</time>
      </trkpt>
      <trkpt lat="45.29864" lon="5.83257">
        <ele>1506.52</ele>
        <time>2015-02-22T14:45:30Z</time>
      </trkpt>
      <trkpt lat="45.29856" lon="5.83237">
        <ele>1509.89</ele>
        <time>2015-02-22T14:45:51Z</time>
      </trkpt>
      <trkpt lat="45.29852" lon="5.83221">
        <ele>1513.25</ele>
        <time>2015-02-22T14:46:09Z</time>
      </trkpt>
      <trkpt lat="45.29856" lon="5.83205">
        <ele>1516.14</ele>
        <time>2015-02-22T14:46:27Z</time>
      </trkpt>
      <trkpt lat="45.29861" lon="5.83187">
        <ele>1519.5</ele>
        <time>2015-02-22T14:46:45Z</time>
      </trkpt>
      <trkpt lat="45.29863" lon="5.83171">
        <ele>1522.39</ele>
        <time>2015-02-22T14:47:03Z</time>
      </trkpt>
      <trkpt lat="45.29866" lon="5.83157">
        <ele>1525.75</ele>
        <time>2015-02-22T14:47:18Z</time>
      </trkpt>
      <trkpt lat="45.29871" lon="5.83141">
        <ele>1528.63</ele>
        <time>2015-02-22T14:47:36Z</time>
      </trkpt>
      <trkpt lat="45.29874" lon="5.83128">
        <ele>1532</ele>
        <time>2015-02-22T14:47:50Z</time>
      </trkpt>
      <trkpt lat="45.29878" lon="5.83114">
        <ele>1535.36</ele>
        <time>2015-02-22T14:48:09Z</time>
      </trkpt>
      <trkpt lat="45.29882" lon="5.83101">
        <ele>1536.8</ele>
        <time>2015-02-22T14:48:35Z</time>
      </trkpt>
      <trkpt lat="45.29881" lon="5.83084">
        <ele>1540.17</ele>
        <time>2015-02-22T14:52:42Z</time>
      </trkpt>
      <trkpt lat="45.29878" lon="5.83072">
        <ele>1543.05</ele>
        <time>2015-02-22T14:52:56Z</time>
      </trkpt>
      <trkpt lat="45.2987" lon="5.83066">
        <ele>1546.42</ele>
        <time>2015-02-22T14:53:15Z</time>
      </trkpt>
      <trkpt lat="45.29867" lon="5.83062">
        <ele>1548.82</ele>
        <time>2015-02-22T14:53:43Z</time>
      </trkpt>
      <trkpt lat="45.29865" lon="5.83057">
        <ele>1551.71</ele>
        <time>2015-02-22T14:54:00Z</time>
      </trkpt>
      <trkpt lat="45.29864" lon="5.83049">
        <ele>1554.59</ele>
        <time>2015-02-22T14:54:23Z</time>
      </trkpt>
      <trkpt lat="45.29872" lon="5.83041">
        <ele>1556.99</ele>
        <time>2015-02-22T14:54:49Z</time>
      </trkpt>
      <trkpt lat="45.29867" lon="5.83036">
        <ele>1559.88</ele>
        <time>2015-02-22T14:55:05Z</time>
      </trkpt>
      <trkpt lat="45.29858" lon="5.83024">
        <ele>1562.76</ele>
        <time>2015-02-22T14:55:23Z</time>
      </trkpt>
      <trkpt lat="45.29858" lon="5.83021">
        <ele>1566.12</ele>
        <time>2015-02-22T14:55:47Z</time>
      </trkpt>
      <trkpt lat="45.29855" lon="5.83016">
        <ele>1567.09</ele>
        <time>2015-02-22T14:55:59Z</time>
      </trkpt>
      <trkpt lat="45.29849" lon="5.83007">
        <ele>1569.97</ele>
        <time>2015-02-22T14:56:16Z</time>
      </trkpt>
      <trkpt lat="45.29853" lon="5.83006">
        <ele>1572.85</ele>
        <time>2015-02-22T14:56:38Z</time>
      </trkpt>
      <trkpt lat="45.29848" lon="5.82998">
        <ele>1574.78</ele>
        <time>2015-02-22T14:56:54Z</time>
      </trkpt>
      <trkpt lat="45.29843" lon="5.82993">
        <ele>1577.66</ele>
        <time>2015-02-22T14:57:08Z</time>
      </trkpt>
      <trkpt lat="45.29837" lon="5.8299">
        <ele>1580.06</ele>
        <time>2015-02-22T14:57:27Z</time>
      </trkpt>
      <trkpt lat="45.29844" lon="5.82985">
        <ele>1582.95</ele>
        <time>2015-02-22T14:57:46Z</time>
      </trkpt>
      <trkpt lat="45.29844" lon="5.82978">
        <ele>1585.83</ele>
        <time>2015-02-22T14:58:06Z</time>
      </trkpt>
      <trkpt lat="45.29838" lon="5.8297">
        <ele>1588.72</ele>
        <time>2015-02-22T14:58:22Z</time>
      </trkpt>
      <trkpt lat="45.2984" lon="5.82967">
        <ele>1591.6</ele>
        <time>2015-02-22T14:58:42Z</time>
      </trkpt>
      <trkpt lat="45.29851" lon="5.82966">
        <ele>1594.48</ele>
        <time>2015-02-22T14:59:02Z</time>
      </trkpt>
      <trkpt lat="45.29863" lon="5.82968">
        <ele>1596.89</ele>
        <time>2015-02-22T14:59:26Z</time>
      </trkpt>
      <trkpt lat="45.2987" lon="5.82966">
        <ele>1598.81</ele>
        <time>2015-02-22T14:59:44Z</time>
      </trkpt>
      <trkpt lat="45.29882" lon="5.82969">
        <ele>1601.69</ele>
        <time>2015-02-22T15:00:05Z</time>
      </trkpt>
      <trkpt lat="45.29889" lon="5.82964">
        <ele>1604.58</ele>
        <time>2015-02-22T15:00:24Z</time>
      </trkpt>
      <trkpt lat="45.29895" lon="5.82961">
        <ele>1607.46</ele>
        <time>2015-02-22T15:00:45Z</time>
      </trkpt>
      <trkpt lat="45.29899" lon="5.82954">
        <ele>1610.83</ele>
        <time>2015-02-22T15:01:06Z</time>
      </trkpt>
      <trkpt lat="45.29908" lon="5.82938">
        <ele>1613.71</ele>
        <time>2015-02-22T15:01:30Z</time>
      </trkpt>
      <trkpt lat="45.29904" lon="5.82938">
        <ele>1616.11</ele>
        <time>2015-02-22T15:01:47Z</time>
      </trkpt>
      <trkpt lat="45.29894" lon="5.82941">
        <ele>1619</ele>
        <time>2015-02-22T15:02:10Z</time>
      </trkpt>
      <trkpt lat="45.29892" lon="5.8294">
        <ele>1620.92</ele>
        <time>2015-02-22T15:02:29Z</time>
      </trkpt>
      <trkpt lat="45.29891" lon="5.82938">
        <ele>1622.36</ele>
        <time>2015-02-22T15:02:46Z</time>
      </trkpt>
      <trkpt lat="45.29884" lon="5.82937">
        <ele>1625.73</ele>
        <time>2015-02-22T15:03:01Z</time>
      </trkpt>
      <trkpt lat="45.2988" lon="5.82931">
        <ele>1628.61</ele>
        <time>2015-02-22T15:03:14Z</time>
      </trkpt>
      <trkpt lat="45.29879" lon="5.82916">
        <ele>1631.01</ele>
        <time>2015-02-22T15:03:35Z</time>
      </trkpt>
      <trkpt lat="45.29875" lon="5.82916">
        <ele>1634.38</ele>
        <time>2015-02-22T15:03:53Z</time>
      </trkpt>
      <trkpt lat="45.29873" lon="5.82904">
        <ele>1636.3</ele>
        <time>2015-02-22T15:04:14Z</time>
      </trkpt>
      <trkpt lat="45.29868" lon="5.82895">
        <ele>1639.67</ele>
        <time>2015-02-22T15:04:29Z</time>
      </trkpt>
      <trkpt lat="45.29864" lon="5.82891">
        <ele>1641.11</ele>
        <time>2015-02-22T15:04:50Z</time>
      </trkpt>
      <trkpt lat="45.29863" lon="5.82888">
        <ele>1644.47</ele>
        <time>2015-02-22T15:05:08Z</time>
      </trkpt>
      <trkpt lat="45.29862" lon="5.8288">
        <ele>1646.88</ele>
        <time>2015-02-22T15:05:28Z</time>
      </trkpt>
      <trkpt lat="45.29856" lon="5.82878">
        <ele>1649.76</ele>
        <time>2015-02-22T15:05:56Z</time>
      </trkpt>
      <trkpt lat="45.29852" lon="5.82871">
        <ele>1653.12</ele>
        <time>2015-02-22T15:06:10Z</time>
      </trkpt>
      <trkpt lat="45.29846" lon="5.82855">
        <ele>1655.05</ele>
        <time>2015-02-22T15:06:29Z</time>
      </trkpt>
      <trkpt lat="45.2983" lon="5.82845">
        <ele>1657.45</ele>
        <time>2015-02-22T15:06:51Z</time>
      </trkpt>
      <trkpt lat="45.29825" lon="5.8285">
        <ele>1659.85</ele>
        <time>2015-02-22T15:07:11Z</time>
      </trkpt>
      <trkpt lat="45.29826" lon="5.82845">
        <ele>1662.74</ele>
        <time>2015-02-22T15:07:31Z</time>
      </trkpt>
      <trkpt lat="45.29819" lon="5.82846">
        <ele>1665.62</ele>
        <time>2015-02-22T15:07:45Z</time>
      </trkpt>
      <trkpt lat="45.29811" lon="5.82844">
        <ele>1668.51</ele>
        <time>2015-02-22T15:08:06Z</time>
      </trkpt>
      <trkpt lat="45.29809" lon="5.82847">
        <ele>1671.87</ele>
        <time>2015-02-22T15:08:21Z</time>
      </trkpt>
      <trkpt lat="45.29805" lon="5.82831">
        <ele>1675.23</ele>
        <time>2015-02-22T15:08:42Z</time>
      </trkpt>
      <trkpt lat="45.29801" lon="5.82834">
        <ele>1677.16</ele>
        <time>2015-02-22T15:09:02Z</time>
      </trkpt>
      <trkpt lat="45.29797" lon="5.82829">
        <ele>1680.04</ele>
        <time>2015-02-22T15:09:21Z</time>
      </trkpt>
      <trkpt lat="45.29794" lon="5.82826">
        <ele>1682.93</ele>
        <time>2015-02-22T15:09:42Z</time>
      </trkpt>
      <trkpt lat="45.29789" lon="5.82834">
        <ele>1685.81</ele>
        <time>2015-02-22T15:09:58Z</time>
      </trkpt>
      <trkpt lat="45.29789" lon="5.82832">
        <ele>1687.73</ele>
        <time>2015-02-22T15:10:17Z</time>
      </trkpt>
      <trkpt lat="45.29786" lon="5.82824">
        <ele>1690.62</ele>
        <time>2015-02-22T15:10:35Z</time>
      </trkpt>
      <trkpt lat="45.29784" lon="5.82818">
        <ele>1693.5</ele>
        <time>2015-02-22T15:10:51Z</time>
      </trkpt>
      <trkpt lat="45.29774" lon="5.82814">
        <ele>1696.38</ele>
        <time>2015-02-22T15:11:15Z</time>
      </trkpt>
      <trkpt lat="45.29761" lon="5.82821">
        <ele>1699.75</ele>
        <time>2015-02-22T15:11:34Z</time>
      </trkpt>
      <trkpt lat="45.2976" lon="5.82827">
        <ele>1702.63</ele>
        <time>2015-02-22T15:11:51Z</time>
      </trkpt>
      <trkpt lat="45.29756" lon="5.82823">
        <ele>1706</ele>
        <time>2015-02-22T15:12:02Z</time>
      </trkpt>
      <trkpt lat="45.29753" lon="5.82823">
        <ele>1708.88</ele>
        <time>2015-02-22T15:12:33Z</time>
      </trkpt>
      <trkpt lat="45.29747" lon="5.82816">
        <ele>1711.76</ele>
        <time>2015-02-22T15:12:52Z</time>
      </trkpt>
      <trkpt lat="45.29742" lon="5.82812">
        <ele>1715.13</ele>
        <time>2015-02-22T15:13:06Z</time>
      </trkpt>
      <trkpt lat="45.29736" lon="5.82807">
        <ele>1718.01</ele>
        <time>2015-02-22T15:13:24Z</time>
      </trkpt>
      <trkpt lat="45.29727" lon="5.82797">
        <ele>1721.38</ele>
        <time>2015-02-22T15:13:47Z</time>
      </trkpt>
      <trkpt lat="45.29717" lon="5.82784">
        <ele>1724.74</ele>
        <time>2015-02-22T15:14:06Z</time>
      </trkpt>
      <trkpt lat="45.29708" lon="5.8278">
        <ele>1727.63</ele>
        <time>2015-02-22T15:14:22Z</time>
      </trkpt>
      <trkpt lat="45.29696" lon="5.82782">
        <ele>1730.51</ele>
        <time>2015-02-22T15:14:43Z</time>
      </trkpt>
      <trkpt lat="45.29686" lon="5.82787">
        <ele>1733.39</ele>
        <time>2015-02-22T15:15:00Z</time>
      </trkpt>
      <trkpt lat="45.29683" lon="5.82787">
        <ele>1733.88</ele>
        <time>2015-02-22T15:15:04Z</time>
      </trkpt>
      <trkpt lat="45.29678" lon="5.8279">
        <ele>1734.84</ele>
        <time>2015-02-22T15:15:12Z</time>
      </trkpt>
      <trkpt lat="45.29673" lon="5.82796">
        <ele>1736.76</ele>
        <time>2015-02-22T15:15:21Z</time>
      </trkpt>
      <trkpt lat="45.29669" lon="5.82807">
        <ele>1738.2</ele>
        <time>2015-02-22T15:15:34Z</time>
      </trkpt>
      <trkpt lat="45.29666" lon="5.8282">
        <ele>1740.12</ele>
        <time>2015-02-22T15:15:49Z</time>
      </trkpt>
      <trkpt lat="45.29665" lon="5.82828">
        <ele>1740.12</ele>
        <time>2015-02-22T15:16:06Z</time>
      </trkpt>
      <trkpt lat="45.29665" lon="5.82828">
        <ele>1740.12</ele>
        <time>2015-02-22T15:16:34Z</time>
      </trkpt>
      <trkpt lat="45.29665" lon="5.8283">
        <ele>1740.6</ele>
        <time>2015-02-22T15:21:22Z</time>
      </trkpt>
      <trkpt lat="45.29668" lon="5.82828">
        <ele>1741.57</ele>
        <time>2015-02-22T15:22:12Z</time>
      </trkpt>
      <trkpt lat="45.29681" lon="5.82809">
        <ele>1738.2</ele>
        <time>2015-02-22T15:22:20Z</time>
      </trkpt>
      <trkpt lat="45.29687" lon="5.8278">
        <ele>1734.84</ele>
        <time>2015-02-22T15:22:26Z</time>
      </trkpt>
      <trkpt lat="45.29692" lon="5.82763">
        <ele>1731.47</ele>
        <time>2015-02-22T15:22:29Z</time>
      </trkpt>
      <trkpt lat="45.29701" lon="5.82754">
        <ele>1727.63</ele>
        <time>2015-02-22T15:22:32Z</time>
      </trkpt>
      <trkpt lat="45.29704" lon="5.82753">
        <ele>1727.63</ele>
        <time>2015-02-22T15:22:33Z</time>
      </trkpt>
      <trkpt lat="45.29716" lon="5.82759">
        <ele>1723.3</ele>
        <time>2015-02-22T15:22:37Z</time>
      </trkpt>
      <trkpt lat="45.2972" lon="5.82763">
        <ele>1719.94</ele>
        <time>2015-02-22T15:22:41Z</time>
      </trkpt>
      <trkpt lat="45.2972" lon="5.82763">
        <ele>1719.94</ele>
        <time>2015-02-22T15:22:42Z</time>
      </trkpt>
      <trkpt lat="45.29723" lon="5.82767">
        <ele>1718.97</ele>
        <time>2015-02-22T15:23:16Z</time>
      </trkpt>
      <trkpt lat="45.29735" lon="5.82785">
        <ele>1714.65</ele>
        <time>2015-02-22T15:23:22Z</time>
      </trkpt>
      <trkpt lat="45.29739" lon="5.82787">
        <ele>1711.28</ele>
        <time>2015-02-22T15:23:27Z</time>
      </trkpt>
      <trkpt lat="45.29742" lon="5.82788">
        <ele>1710.32</ele>
        <time>2015-02-22T15:23:40Z</time>
      </trkpt>
      <trkpt lat="45.29753" lon="5.82776">
        <ele>1705.52</ele>
        <time>2015-02-22T15:23:45Z</time>
      </trkpt>
      <trkpt lat="45.29754" lon="5.82774">
        <ele>1702.15</ele>
        <time>2015-02-22T15:23:47Z</time>
      </trkpt>
      <trkpt lat="45.29754" lon="5.82773">
        <ele>1702.15</ele>
        <time>2015-02-22T15:23:48Z</time>
      </trkpt>
      <trkpt lat="45.29758" lon="5.82766">
        <ele>1699.27</ele>
        <time>2015-02-22T15:23:52Z</time>
      </trkpt>
      <trkpt lat="45.29763" lon="5.82758">
        <ele>1694.46</ele>
        <time>2015-02-22T15:23:55Z</time>
      </trkpt>
      <trkpt lat="45.29767" lon="5.82753">
        <ele>1690.14</ele>
        <time>2015-02-22T15:23:57Z</time>
      </trkpt>
      <trkpt lat="45.29773" lon="5.82751">
        <ele>1688.21</ele>
        <time>2015-02-22T15:23:59Z</time>
      </trkpt>
      <trkpt lat="45.29778" lon="5.82747">
        <ele>1683.41</ele>
        <time>2015-02-22T15:24:01Z</time>
      </trkpt>
      <trkpt lat="45.29781" lon="5.82744">
        <ele>1679.56</ele>
        <time>2015-02-22T15:24:03Z</time>
      </trkpt>
      <trkpt lat="45.29786" lon="5.82742">
        <ele>1676.68</ele>
        <time>2015-02-22T15:24:05Z</time>
      </trkpt>
      <trkpt lat="45.29795" lon="5.8275">
        <ele>1672.35</ele>
        <time>2015-02-22T15:24:09Z</time>
      </trkpt>
      <trkpt lat="45.29795" lon="5.82751">
        <ele>1672.35</ele>
        <time>2015-02-22T15:24:10Z</time>
      </trkpt>
      <trkpt lat="45.29795" lon="5.82751">
        <ele>1670.43</ele>
        <time>2015-02-22T15:24:13Z</time>
      </trkpt>
      <trkpt lat="45.29796" lon="5.82752">
        <ele>1668.02</ele>
        <time>2015-02-22T15:24:29Z</time>
      </trkpt>
      <trkpt lat="45.29804" lon="5.82757">
        <ele>1660.81</ele>
        <time>2015-02-22T15:24:32Z</time>
      </trkpt>
      <trkpt lat="45.29808" lon="5.82758">
        <ele>1658.89</ele>
        <time>2015-02-22T15:24:34Z</time>
      </trkpt>
      <trkpt lat="45.29811" lon="5.82758">
        <ele>1656.97</ele>
        <time>2015-02-22T15:24:36Z</time>
      </trkpt>
      <trkpt lat="45.29822" lon="5.8276">
        <ele>1654.09</ele>
        <time>2015-02-22T15:24:49Z</time>
      </trkpt>
      <trkpt lat="45.29833" lon="5.82763">
        <ele>1652.64</ele>
        <time>2015-02-22T15:25:00Z</time>
      </trkpt>
      <trkpt lat="45.29845" lon="5.82759">
        <ele>1649.28</ele>
        <time>2015-02-22T15:25:02Z</time>
      </trkpt>
      <trkpt lat="45.29855" lon="5.82757">
        <ele>1643.03</ele>
        <time>2015-02-22T15:25:04Z</time>
      </trkpt>
      <trkpt lat="45.29859" lon="5.82754">
        <ele>1640.15</ele>
        <time>2015-02-22T15:25:05Z</time>
      </trkpt>
      <trkpt lat="45.2987" lon="5.82758">
        <ele>1631.98</ele>
        <time>2015-02-22T15:25:07Z</time>
      </trkpt>
      <trkpt lat="45.29875" lon="5.82764">
        <ele>1628.61</ele>
        <time>2015-02-22T15:25:08Z</time>
      </trkpt>
      <trkpt lat="45.29888" lon="5.82769">
        <ele>1623.32</ele>
        <time>2015-02-22T15:25:11Z</time>
      </trkpt>
      <trkpt lat="45.2989" lon="5.82763">
        <ele>1619.96</ele>
        <time>2015-02-22T15:25:13Z</time>
      </trkpt>
      <trkpt lat="45.29897" lon="5.82765">
        <ele>1614.19</ele>
        <time>2015-02-22T15:25:16Z</time>
      </trkpt>
      <trkpt lat="45.29901" lon="5.82768">
        <ele>1611.79</ele>
        <time>2015-02-22T15:25:17Z</time>
      </trkpt>
      <trkpt lat="45.29907" lon="5.82764">
        <ele>1604.58</ele>
        <time>2015-02-22T15:25:20Z</time>
      </trkpt>
      <trkpt lat="45.2991" lon="5.82762">
        <ele>1604.58</ele>
        <time>2015-02-22T15:25:21Z</time>
      </trkpt>
      <trkpt lat="45.29913" lon="5.82758">
        <ele>1600.73</ele>
        <time>2015-02-22T15:25:22Z</time>
      </trkpt>
      <trkpt lat="45.29917" lon="5.82754">
        <ele>1597.37</ele>
        <time>2015-02-22T15:25:23Z</time>
      </trkpt>
      <trkpt lat="45.2992" lon="5.82752">
        <ele>1594</ele>
        <time>2015-02-22T15:25:24Z</time>
      </trkpt>
      <trkpt lat="45.29924" lon="5.82752">
        <ele>1590.64</ele>
        <time>2015-02-22T15:25:25Z</time>
      </trkpt>
      <trkpt lat="45.29926" lon="5.82752">
        <ele>1587.27</ele>
        <time>2015-02-22T15:25:26Z</time>
      </trkpt>
      <trkpt lat="45.29926" lon="5.8275">
        <ele>1581.99</ele>
        <time>2015-02-22T15:25:28Z</time>
      </trkpt>
      <trkpt lat="45.29925" lon="5.82747">
        <ele>1578.14</ele>
        <time>2015-02-22T15:25:31Z</time>
      </trkpt>
      <trkpt lat="45.29924" lon="5.82746">
        <ele>1578.14</ele>
        <time>2015-02-22T15:25:32Z</time>
      </trkpt>
      <trkpt lat="45.29921" lon="5.82743">
        <ele>1576.22</ele>
        <time>2015-02-22T15:26:06Z</time>
      </trkpt>
      <trkpt lat="45.29922" lon="5.82739">
        <ele>1570.45</ele>
        <time>2015-02-22T15:26:08Z</time>
      </trkpt>
      <trkpt lat="45.29926" lon="5.82734">
        <ele>1566.12</ele>
        <time>2015-02-22T15:26:09Z</time>
      </trkpt>
      <trkpt lat="45.29928" lon="5.82732">
        <ele>1566.12</ele>
        <time>2015-02-22T15:26:10Z</time>
      </trkpt>
      <trkpt lat="45.2993" lon="5.82729">
        <ele>1562.76</ele>
        <time>2015-02-22T15:26:11Z</time>
      </trkpt>
      <trkpt lat="45.2993" lon="5.82727">
        <ele>1558.43</ele>
        <time>2015-02-22T15:26:13Z</time>
      </trkpt>
      <trkpt lat="45.29931" lon="5.82729">
        <ele>1556.99</ele>
        <time>2015-02-22T15:26:30Z</time>
      </trkpt>
      <trkpt lat="45.29946" lon="5.82741">
        <ele>1559.88</ele>
        <time>2015-02-22T15:27:51Z</time>
      </trkpt>
      <trkpt lat="45.29948" lon="5.82739">
        <ele>1559.88</ele>
        <time>2015-02-22T15:28:13Z</time>
      </trkpt>
      <trkpt lat="45.29952" lon="5.82738">
        <ele>1555.55</ele>
        <time>2015-02-22T15:28:18Z</time>
      </trkpt>
      <trkpt lat="45.29957" lon="5.8274">
        <ele>1553.15</ele>
        <time>2015-02-22T15:28:21Z</time>
      </trkpt>
      <trkpt lat="45.2996" lon="5.82727">
        <ele>1551.22</ele>
        <time>2015-02-22T15:28:24Z</time>
      </trkpt>
      <trkpt lat="45.29962" lon="5.82719">
        <ele>1546.9</ele>
        <time>2015-02-22T15:28:26Z</time>
      </trkpt>
      <trkpt lat="45.29964" lon="5.82709">
        <ele>1542.57</ele>
        <time>2015-02-22T15:28:28Z</time>
      </trkpt>
      <trkpt lat="45.29972" lon="5.82705">
        <ele>1537.77</ele>
        <time>2015-02-22T15:28:30Z</time>
      </trkpt>
      <trkpt lat="45.29981" lon="5.82703">
        <ele>1530.56</ele>
        <time>2015-02-22T15:28:33Z</time>
      </trkpt>
      <trkpt lat="45.29984" lon="5.82702">
        <ele>1528.15</ele>
        <time>2015-02-22T15:28:34Z</time>
      </trkpt>
      <trkpt lat="45.29992" lon="5.82699">
        <ele>1524.79</ele>
        <time>2015-02-22T15:28:37Z</time>
      </trkpt>
      <trkpt lat="45.29999" lon="5.82692">
        <ele>1521.9</ele>
        <time>2015-02-22T15:28:40Z</time>
      </trkpt>
      <trkpt lat="45.30002" lon="5.82676">
        <ele>1517.58</ele>
        <time>2015-02-22T15:28:43Z</time>
      </trkpt>
      <trkpt lat="45.30004" lon="5.82668">
        <ele>1513.73</ele>
        <time>2015-02-22T15:28:45Z</time>
      </trkpt>
      <trkpt lat="45.30007" lon="5.82664">
        <ele>1511.33</ele>
        <time>2015-02-22T15:28:47Z</time>
      </trkpt>
      <trkpt lat="45.30011" lon="5.8266">
        <ele>1510.37</ele>
        <time>2015-02-22T15:28:49Z</time>
      </trkpt>
      <trkpt lat="45.30021" lon="5.82656">
        <ele>1507.48</ele>
        <time>2015-02-22T15:28:52Z</time>
      </trkpt>
      <trkpt lat="45.30027" lon="5.82654">
        <ele>1503.64</ele>
        <time>2015-02-22T15:28:54Z</time>
      </trkpt>
      <trkpt lat="45.30031" lon="5.82653">
        <ele>1500.76</ele>
        <time>2015-02-22T15:28:56Z</time>
      </trkpt>
      <trkpt lat="45.30031" lon="5.82656">
        <ele>1499.79</ele>
        <time>2015-02-22T15:28:58Z</time>
      </trkpt>
      <trkpt lat="45.3003" lon="5.82655">
        <ele>1500.76</ele>
        <time>2015-02-22T15:29:14Z</time>
      </trkpt>
      <trkpt lat="45.3003" lon="5.82655">
        <ele>1500.76</ele>
        <time>2015-02-22T15:29:19Z</time>
      </trkpt>
      <trkpt lat="45.30043" lon="5.82649">
        <ele>1498.35</ele>
        <time>2015-02-22T15:29:24Z</time>
      </trkpt>
      <trkpt lat="45.30047" lon="5.82649">
        <ele>1496.91</ele>
        <time>2015-02-22T15:29:25Z</time>
      </trkpt>
      <trkpt lat="45.30064" lon="5.82643">
        <ele>1485.85</ele>
        <time>2015-02-22T15:29:29Z</time>
      </trkpt>
      <trkpt lat="45.30071" lon="5.82643">
        <ele>1480.09</ele>
        <time>2015-02-22T15:29:31Z</time>
      </trkpt>
      <trkpt lat="45.30088" lon="5.82646">
        <ele>1471.92</ele>
        <time>2015-02-22T15:29:34Z</time>
      </trkpt>
      <trkpt lat="45.30102" lon="5.82654">
        <ele>1469.03</ele>
        <time>2015-02-22T15:29:36Z</time>
      </trkpt>
      <trkpt lat="45.30115" lon="5.82652">
        <ele>1460.86</ele>
        <time>2015-02-22T15:29:39Z</time>
      </trkpt>
      <trkpt lat="45.3012" lon="5.82647">
        <ele>1458.94</ele>
        <time>2015-02-22T15:29:40Z</time>
      </trkpt>
      <trkpt lat="45.30142" lon="5.82637">
        <ele>1448.36</ele>
        <time>2015-02-22T15:29:44Z</time>
      </trkpt>
      <trkpt lat="45.30147" lon="5.82639">
        <ele>1440.67</ele>
        <time>2015-02-22T15:29:47Z</time>
      </trkpt>
      <trkpt lat="45.30146" lon="5.82638">
        <ele>1440.67</ele>
        <time>2015-02-22T15:29:48Z</time>
      </trkpt>
      <trkpt lat="45.30145" lon="5.82638">
        <ele>1438.75</ele>
        <time>2015-02-22T15:29:51Z</time>
      </trkpt>
      <trkpt lat="45.30145" lon="5.82638">
        <ele>1441.15</ele>
        <time>2015-02-22T15:30:56Z</time>
      </trkpt>
      <trkpt lat="45.30153" lon="5.82622">
        <ele>1439.23</ele>
        <time>2015-02-22T15:31:00Z</time>
      </trkpt>
      <trkpt lat="45.30165" lon="5.82616">
        <ele>1434.91</ele>
        <time>2015-02-22T15:31:03Z</time>
      </trkpt>
      <trkpt lat="45.30164" lon="5.82611">
        <ele>1431.06</ele>
        <time>2015-02-22T15:31:05Z</time>
      </trkpt>
      <trkpt lat="45.30171" lon="5.82607">
        <ele>1425.77</ele>
        <time>2015-02-22T15:31:07Z</time>
      </trkpt>
      <trkpt lat="45.30181" lon="5.82602">
        <ele>1420.49</ele>
        <time>2015-02-22T15:31:09Z</time>
      </trkpt>
      <trkpt lat="45.30189" lon="5.82596">
        <ele>1415.2</ele>
        <time>2015-02-22T15:31:11Z</time>
      </trkpt>
      <trkpt lat="45.30194" lon="5.82593">
        <ele>1415.2</ele>
        <time>2015-02-22T15:31:12Z</time>
      </trkpt>
      <trkpt lat="45.30206" lon="5.82587">
        <ele>1410.87</ele>
        <time>2015-02-22T15:31:14Z</time>
      </trkpt>
      <trkpt lat="45.30215" lon="5.82586">
        <ele>1406.07</ele>
        <time>2015-02-22T15:31:16Z</time>
      </trkpt>
      <trkpt lat="45.30225" lon="5.82583">
        <ele>1401.26</ele>
        <time>2015-02-22T15:31:18Z</time>
      </trkpt>
      <trkpt lat="45.3023" lon="5.8258">
        <ele>1398.37</ele>
        <time>2015-02-22T15:31:19Z</time>
      </trkpt>
      <trkpt lat="45.30242" lon="5.82582">
        <ele>1390.2</ele>
        <time>2015-02-22T15:31:22Z</time>
      </trkpt>
      <trkpt lat="45.30246" lon="5.82582">
        <ele>1388.28</ele>
        <time>2015-02-22T15:31:23Z</time>
      </trkpt>
      <trkpt lat="45.30257" lon="5.8258">
        <ele>1383.47</ele>
        <time>2015-02-22T15:31:26Z</time>
      </trkpt>
      <trkpt lat="45.30263" lon="5.82577">
        <ele>1378.67</ele>
        <time>2015-02-22T15:31:28Z</time>
      </trkpt>
      <trkpt lat="45.30274" lon="5.82582">
        <ele>1370.98</ele>
        <time>2015-02-22T15:31:31Z</time>
      </trkpt>
      <trkpt lat="45.30281" lon="5.82588">
        <ele>1367.61</ele>
        <time>2015-02-22T15:31:33Z</time>
      </trkpt>
      <trkpt lat="45.30296" lon="5.82594">
        <ele>1364.25</ele>
        <time>2015-02-22T15:31:36Z</time>
      </trkpt>
      <trkpt lat="45.303" lon="5.82596">
        <ele>1362.81</ele>
        <time>2015-02-22T15:31:37Z</time>
      </trkpt>
      <trkpt lat="45.30313" lon="5.82595">
        <ele>1357.52</ele>
        <time>2015-02-22T15:31:40Z</time>
      </trkpt>
      <trkpt lat="45.30328" lon="5.82599">
        <ele>1351.75</ele>
        <time>2015-02-22T15:31:43Z</time>
      </trkpt>
      <trkpt lat="45.30344" lon="5.826">
        <ele>1345.5</ele>
        <time>2015-02-22T15:31:47Z</time>
      </trkpt>
      <trkpt lat="45.3035" lon="5.826">
        <ele>1344.06</ele>
        <time>2015-02-22T15:31:49Z</time>
      </trkpt>
      <trkpt lat="45.30354" lon="5.826">
        <ele>1342.62</ele>
        <time>2015-02-22T15:31:50Z</time>
      </trkpt>
      <trkpt lat="45.30352" lon="5.82606">
        <ele>1339.25</ele>
        <time>2015-02-22T15:32:07Z</time>
      </trkpt>
      <trkpt lat="45.30353" lon="5.82606">
        <ele>1339.25</ele>
        <time>2015-02-22T15:32:22Z</time>
      </trkpt>
      <trkpt lat="45.30368" lon="5.82588">
        <ele>1335.89</ele>
        <time>2015-02-22T15:32:35Z</time>
      </trkpt>
      <trkpt lat="45.30372" lon="5.82587">
        <ele>1334.45</ele>
        <time>2015-02-22T15:32:36Z</time>
      </trkpt>
      <trkpt lat="45.3038" lon="5.8259">
        <ele>1333.01</ele>
        <time>2015-02-22T15:32:38Z</time>
      </trkpt>
      <trkpt lat="45.30386" lon="5.82593">
        <ele>1328.68</ele>
        <time>2015-02-22T15:32:40Z</time>
      </trkpt>
      <trkpt lat="45.30399" lon="5.8259">
        <ele>1322.43</ele>
        <time>2015-02-22T15:32:43Z</time>
      </trkpt>
      <trkpt lat="45.30406" lon="5.82588">
        <ele>1319.07</ele>
        <time>2015-02-22T15:32:45Z</time>
      </trkpt>
      <trkpt lat="45.30417" lon="5.82591">
        <ele>1314.74</ele>
        <time>2015-02-22T15:32:50Z</time>
      </trkpt>
      <trkpt lat="45.30421" lon="5.82594">
        <ele>1313.3</ele>
        <time>2015-02-22T15:32:54Z</time>
      </trkpt>
      <trkpt lat="45.30432" lon="5.8259">
        <ele>1309.45</ele>
        <time>2015-02-22T15:32:58Z</time>
      </trkpt>
      <trkpt lat="45.30435" lon="5.82597">
        <ele>1305.13</ele>
        <time>2015-02-22T15:33:01Z</time>
      </trkpt>
      <trkpt lat="45.30437" lon="5.82604">
        <ele>1302.24</ele>
        <time>2015-02-22T15:33:03Z</time>
      </trkpt>
      <trkpt lat="45.30439" lon="5.82612">
        <ele>1300.32</ele>
        <time>2015-02-22T15:33:06Z</time>
      </trkpt>
      <trkpt lat="45.30432" lon="5.82635">
        <ele>1299.84</ele>
        <time>2015-02-22T15:33:18Z</time>
      </trkpt>
      <trkpt lat="45.30439" lon="5.82664">
        <ele>1298.4</ele>
        <time>2015-02-22T15:33:24Z</time>
      </trkpt>
      <trkpt lat="45.30442" lon="5.82683">
        <ele>1297.44</ele>
        <time>2015-02-22T15:33:33Z</time>
      </trkpt>
      <trkpt lat="45.30442" lon="5.82683">
        <ele>1300.8</ele>
        <time>2015-02-22T15:36:35Z</time>
      </trkpt>
      <trkpt lat="45.30445" lon="5.82684">
        <ele>1303.2</ele>
        <time>2015-02-22T15:38:47Z</time>
      </trkpt>
      <trkpt lat="45.30444" lon="5.82687">
        <ele>1305.13</ele>
        <time>2015-02-22T15:42:24Z</time>
      </trkpt>
      <trkpt lat="45.3044" lon="5.82697">
        <ele>1306.57</ele>
        <time>2015-02-22T15:42:31Z</time>
      </trkpt>
      <trkpt lat="45.30428" lon="5.82726">
        <ele>1309.45</ele>
        <time>2015-02-22T15:42:54Z</time>
      </trkpt>
      <trkpt lat="45.30415" lon="5.82749">
        <ele>1312.82</ele>
        <time>2015-02-22T15:43:15Z</time>
      </trkpt>
      <trkpt lat="45.30402" lon="5.82775">
        <ele>1315.7</ele>
        <time>2015-02-22T15:43:37Z</time>
      </trkpt>
      <trkpt lat="45.30388" lon="5.82798">
        <ele>1318.59</ele>
        <time>2015-02-22T15:44:02Z</time>
      </trkpt>
      <trkpt lat="45.30376" lon="5.82816">
        <ele>1321.47</ele>
        <time>2015-02-22T15:44:25Z</time>
      </trkpt>
      <trkpt lat="45.30363" lon="5.82841">
        <ele>1323.87</ele>
        <time>2015-02-22T15:44:49Z</time>
      </trkpt>
      <trkpt lat="45.30353" lon="5.82864">
        <ele>1327.24</ele>
        <time>2015-02-22T15:45:11Z</time>
      </trkpt>
      <trkpt lat="45.30356" lon="5.8289">
        <ele>1330.6</ele>
        <time>2015-02-22T15:45:32Z</time>
      </trkpt>
      <trkpt lat="45.30364" lon="5.82907">
        <ele>1333.49</ele>
        <time>2015-02-22T15:45:51Z</time>
      </trkpt>
      <trkpt lat="45.3037" lon="5.82912">
        <ele>1333.97</ele>
        <time>2015-02-22T15:45:58Z</time>
      </trkpt>
      <trkpt lat="45.30389" lon="5.82928">
        <ele>1337.33</ele>
        <time>2015-02-22T15:46:24Z</time>
      </trkpt>
      <trkpt lat="45.30391" lon="5.82938">
        <ele>1340.7</ele>
        <time>2015-02-22T15:46:43Z</time>
      </trkpt>
      <trkpt lat="45.30387" lon="5.82947">
        <ele>1343.1</ele>
        <time>2015-02-22T15:46:55Z</time>
      </trkpt>
      <trkpt lat="45.30379" lon="5.82965">
        <ele>1344.54</ele>
        <time>2015-02-22T15:47:14Z</time>
      </trkpt>
      <trkpt lat="45.30375" lon="5.82982">
        <ele>1347.91</ele>
        <time>2015-02-22T15:47:32Z</time>
      </trkpt>
      <trkpt lat="45.30366" lon="5.82995">
        <ele>1350.79</ele>
        <time>2015-02-22T15:47:49Z</time>
      </trkpt>
      <trkpt lat="45.30361" lon="5.83005">
        <ele>1352.23</ele>
        <time>2015-02-22T15:48:01Z</time>
      </trkpt>
      <trkpt lat="45.30356" lon="5.83015">
        <ele>1354.63</ele>
        <time>2015-02-22T15:48:14Z</time>
      </trkpt>
      <trkpt lat="45.3035" lon="5.83026">
        <ele>1358</ele>
        <time>2015-02-22T15:48:32Z</time>
      </trkpt>
      <trkpt lat="45.30348" lon="5.83032">
        <ele>1358.96</ele>
        <time>2015-02-22T15:48:47Z</time>
      </trkpt>
      <trkpt lat="45.30341" lon="5.8304">
        <ele>1360.4</ele>
        <time>2015-02-22T15:48:57Z</time>
      </trkpt>
      <trkpt lat="45.30328" lon="5.8305">
        <ele>1362.81</ele>
        <time>2015-02-22T15:49:16Z</time>
      </trkpt>
      <trkpt lat="45.30311" lon="5.83071">
        <ele>1365.69</ele>
        <time>2015-02-22T15:49:42Z</time>
      </trkpt>
      <trkpt lat="45.30294" lon="5.83094">
        <ele>1368.57</ele>
        <time>2015-02-22T15:50:10Z</time>
      </trkpt>
      <trkpt lat="45.30282" lon="5.83107">
        <ele>1370.98</ele>
        <time>2015-02-22T15:50:30Z</time>
      </trkpt>
      <trkpt lat="45.30272" lon="5.83119">
        <ele>1374.34</ele>
        <time>2015-02-22T15:50:49Z</time>
      </trkpt>
      <trkpt lat="45.30263" lon="5.83129">
        <ele>1376.75</ele>
        <time>2015-02-22T15:51:07Z</time>
      </trkpt>
      <trkpt lat="45.30252" lon="5.83134">
        <ele>1380.11</ele>
        <time>2015-02-22T15:51:25Z</time>
      </trkpt>
      <trkpt lat="45.30244" lon="5.83135">
        <ele>1382.99</ele>
        <time>2015-02-22T15:51:48Z</time>
      </trkpt>
      <trkpt lat="45.3023" lon="5.83137">
        <ele>1385.88</ele>
        <time>2015-02-22T15:52:16Z</time>
      </trkpt>
      <trkpt lat="45.30218" lon="5.83136">
        <ele>1388.76</ele>
        <time>2015-02-22T15:52:34Z</time>
      </trkpt>
      <trkpt lat="45.30205" lon="5.83135">
        <ele>1392.13</ele>
        <time>2015-02-22T15:52:55Z</time>
      </trkpt>
      <trkpt lat="45.30194" lon="5.8314">
        <ele>1395.01</ele>
        <time>2015-02-22T15:53:11Z</time>
      </trkpt>
      <trkpt lat="45.30183" lon="5.83148">
        <ele>1398.37</ele>
        <time>2015-02-22T15:53:31Z</time>
      </trkpt>
      <trkpt lat="45.3017" lon="5.83162">
        <ele>1400.78</ele>
        <time>2015-02-22T15:53:54Z</time>
      </trkpt>
      <trkpt lat="45.30175" lon="5.83188">
        <ele>1401.74</ele>
        <time>2015-02-22T15:54:16Z</time>
      </trkpt>
      <trkpt lat="45.30181" lon="5.83204">
        <ele>1404.62</ele>
        <time>2015-02-22T15:54:35Z</time>
      </trkpt>
      <trkpt lat="45.30185" lon="5.83216">
        <ele>1405.58</ele>
        <time>2015-02-22T15:54:45Z</time>
      </trkpt>
      <trkpt lat="45.30185" lon="5.83243">
        <ele>1406.55</ele>
        <time>2015-02-22T15:55:05Z</time>
      </trkpt>
      <trkpt lat="45.30185" lon="5.83264">
        <ele>1408.47</ele>
        <time>2015-02-22T15:55:23Z</time>
      </trkpt>
      <trkpt lat="45.30183" lon="5.83292">
        <ele>1409.43</ele>
        <time>2015-02-22T15:55:42Z</time>
      </trkpt>
      <trkpt lat="45.30183" lon="5.83316">
        <ele>1411.35</ele>
        <time>2015-02-22T15:56:01Z</time>
      </trkpt>
      <trkpt lat="45.30182" lon="5.83329">
        <ele>1410.87</ele>
        <time>2015-02-22T15:56:09Z</time>
      </trkpt>
      <trkpt lat="45.30179" lon="5.83351">
        <ele>1411.83</ele>
        <time>2015-02-22T15:56:25Z</time>
      </trkpt>
      <trkpt lat="45.30174" lon="5.83372">
        <ele>1412.79</ele>
        <time>2015-02-22T15:56:42Z</time>
      </trkpt>
      <trkpt lat="45.30164" lon="5.83392">
        <ele>1414.24</ele>
        <time>2015-02-22T15:57:00Z</time>
      </trkpt>
      <trkpt lat="45.30164" lon="5.83396">
        <ele>1414.24</ele>
        <time>2015-02-22T15:57:03Z</time>
      </trkpt>
      <trkpt lat="45.30165" lon="5.8342">
        <ele>1414.72</ele>
        <time>2015-02-22T15:57:22Z</time>
      </trkpt>
      <trkpt lat="45.3017" lon="5.83448">
        <ele>1417.12</ele>
        <time>2015-02-22T15:57:47Z</time>
      </trkpt>
      <trkpt lat="45.30176" lon="5.83478">
        <ele>1420.49</ele>
        <time>2015-02-22T15:58:13Z</time>
      </trkpt>
      <trkpt lat="45.30184" lon="5.83511">
        <ele>1422.89</ele>
        <time>2015-02-22T15:58:41Z</time>
      </trkpt>
      <trkpt lat="45.30199" lon="5.83536">
        <ele>1425.77</ele>
        <time>2015-02-22T15:59:10Z</time>
      </trkpt>
      <trkpt lat="45.30206" lon="5.83544">
        <ele>1426.73</ele>
        <time>2015-02-22T15:59:36Z</time>
      </trkpt>
      <trkpt lat="45.30226" lon="5.83563">
        <ele>1429.62</ele>
        <time>2015-02-22T16:00:09Z</time>
      </trkpt>
      <trkpt lat="45.30243" lon="5.83579">
        <ele>1432.5</ele>
        <time>2015-02-22T16:00:31Z</time>
      </trkpt>
      <trkpt lat="45.30259" lon="5.83595">
        <ele>1435.87</ele>
        <time>2015-02-22T16:00:53Z</time>
      </trkpt>
      <trkpt lat="45.30264" lon="5.83603">
        <ele>1437.79</ele>
        <time>2015-02-22T16:01:19Z</time>
      </trkpt>
      <trkpt lat="45.30266" lon="5.83623">
        <ele>1441.15</ele>
        <time>2015-02-22T16:01:39Z</time>
      </trkpt>
      <trkpt lat="45.3026" lon="5.83631">
        <ele>1444.04</ele>
        <time>2015-02-22T16:01:50Z</time>
      </trkpt>
      <trkpt lat="45.30256" lon="5.83648">
        <ele>1445.48</ele>
        <time>2015-02-22T16:02:06Z</time>
      </trkpt>
      <trkpt lat="45.30253" lon="5.83662">
        <ele>1445.48</ele>
        <time>2015-02-22T16:02:17Z</time>
      </trkpt>
      <trkpt lat="45.30246" lon="5.83688">
        <ele>1445.48</ele>
        <time>2015-02-22T16:02:35Z</time>
      </trkpt>
      <trkpt lat="45.30246" lon="5.83692">
        <ele>1445.48</ele>
        <time>2015-02-22T16:02:57Z</time>
      </trkpt>
      <trkpt lat="45.30245" lon="5.83692">
        <ele>1445</ele>
        <time>2015-02-22T16:03:34Z</time>
      </trkpt>
      <trkpt lat="45.30245" lon="5.83694">
        <ele>1444.04</ele>
        <time>2015-02-22T16:05:36Z</time>
      </trkpt>
      <trkpt lat="45.30246" lon="5.83695">
        <ele>1444.52</ele>
        <time>2015-02-22T16:07:27Z</time>
      </trkpt>
      <trkpt lat="45.30249" lon="5.83698">
        <ele>1445</ele>
        <time>2015-02-22T16:08:01Z</time>
      </trkpt>
      <trkpt lat="45.30254" lon="5.83709">
        <ele>1444.52</ele>
        <time>2015-02-22T16:08:12Z</time>
      </trkpt>
      <trkpt lat="45.30267" lon="5.83725">
        <ele>1440.19</ele>
        <time>2015-02-22T16:08:18Z</time>
      </trkpt>
      <trkpt lat="45.30273" lon="5.83737">
        <ele>1438.27</ele>
        <time>2015-02-22T16:08:20Z</time>
      </trkpt>
      <trkpt lat="45.30282" lon="5.83762">
        <ele>1432.5</ele>
        <time>2015-02-22T16:08:23Z</time>
      </trkpt>
      <trkpt lat="45.30285" lon="5.83771">
        <ele>1430.1</ele>
        <time>2015-02-22T16:08:24Z</time>
      </trkpt>
      <trkpt lat="45.30295" lon="5.83791">
        <ele>1423.85</ele>
        <time>2015-02-22T16:08:27Z</time>
      </trkpt>
      <trkpt lat="45.30294" lon="5.83806">
        <ele>1420</ele>
        <time>2015-02-22T16:08:30Z</time>
      </trkpt>
      <trkpt lat="45.30293" lon="5.83809">
        <ele>1420</ele>
        <time>2015-02-22T16:08:31Z</time>
      </trkpt>
      <trkpt lat="45.30298" lon="5.8382">
        <ele>1416.16</ele>
        <time>2015-02-22T16:08:34Z</time>
      </trkpt>
      <trkpt lat="45.303" lon="5.83829">
        <ele>1413.28</ele>
        <time>2015-02-22T16:08:36Z</time>
      </trkpt>
      <trkpt lat="45.30303" lon="5.8384">
        <ele>1409.43</ele>
        <time>2015-02-22T16:08:38Z</time>
      </trkpt>
      <trkpt lat="45.30307" lon="5.83847">
        <ele>1405.58</ele>
        <time>2015-02-22T16:08:40Z</time>
      </trkpt>
      <trkpt lat="45.30308" lon="5.83855">
        <ele>1401.74</ele>
        <time>2015-02-22T16:08:42Z</time>
      </trkpt>
      <trkpt lat="45.30309" lon="5.83863">
        <ele>1399.82</ele>
        <time>2015-02-22T16:08:44Z</time>
      </trkpt>
      <trkpt lat="45.30312" lon="5.83873">
        <ele>1396.45</ele>
        <time>2015-02-22T16:08:46Z</time>
      </trkpt>
      <trkpt lat="45.30316" lon="5.83889">
        <ele>1391.17</ele>
        <time>2015-02-22T16:08:49Z</time>
      </trkpt>
      <trkpt lat="45.30318" lon="5.83901">
        <ele>1386.84</ele>
        <time>2015-02-22T16:08:51Z</time>
      </trkpt>
      <trkpt lat="45.30321" lon="5.83909">
        <ele>1382.99</ele>
        <time>2015-02-22T16:08:53Z</time>
      </trkpt>
      <trkpt lat="45.30322" lon="5.83917">
        <ele>1380.11</ele>
        <time>2015-02-22T16:08:55Z</time>
      </trkpt>
      <trkpt lat="45.3032" lon="5.8392">
        <ele>1380.11</ele>
        <time>2015-02-22T16:08:56Z</time>
      </trkpt>
      <trkpt lat="45.30319" lon="5.83937">
        <ele>1374.82</ele>
        <time>2015-02-22T16:09:00Z</time>
      </trkpt>
      <trkpt lat="45.30316" lon="5.83949">
        <ele>1370.5</ele>
        <time>2015-02-22T16:09:03Z</time>
      </trkpt>
      <trkpt lat="45.30309" lon="5.83965">
        <ele>1366.17</ele>
        <time>2015-02-22T16:09:06Z</time>
      </trkpt>
      <trkpt lat="45.30308" lon="5.83966">
        <ele>1366.17</ele>
        <time>2015-02-22T16:09:07Z</time>
      </trkpt>
      <trkpt lat="45.30306" lon="5.83963">
        <ele>1362.81</ele>
        <time>2015-02-22T16:09:38Z</time>
      </trkpt>
      <trkpt lat="45.30293" lon="5.8398">
        <ele>1359.44</ele>
        <time>2015-02-22T16:09:44Z</time>
      </trkpt>
      <trkpt lat="45.30288" lon="5.83989">
        <ele>1355.6</ele>
        <time>2015-02-22T16:09:48Z</time>
      </trkpt>
      <trkpt lat="45.30277" lon="5.84006">
        <ele>1352.71</ele>
        <time>2015-02-22T16:10:01Z</time>
      </trkpt>
      <trkpt lat="45.30273" lon="5.84012">
        <ele>1350.79</ele>
        <time>2015-02-22T16:10:02Z</time>
      </trkpt>
      <trkpt lat="45.30258" lon="5.84025">
        <ele>1344.06</ele>
        <time>2015-02-22T16:10:05Z</time>
      </trkpt>
      <trkpt lat="45.30253" lon="5.84033">
        <ele>1340.7</ele>
        <time>2015-02-22T16:10:07Z</time>
      </trkpt>
      <trkpt lat="45.30247" lon="5.84035">
        <ele>1340.7</ele>
        <time>2015-02-22T16:10:08Z</time>
      </trkpt>
      <trkpt lat="45.30226" lon="5.84028">
        <ele>1337.81</ele>
        <time>2015-02-22T16:10:12Z</time>
      </trkpt>
      <trkpt lat="45.30222" lon="5.84024">
        <ele>1336.37</ele>
        <time>2015-02-22T16:10:18Z</time>
      </trkpt>
      <trkpt lat="45.30219" lon="5.8401">
        <ele>1335.41</ele>
        <time>2015-02-22T16:10:22Z</time>
      </trkpt>
      <trkpt lat="45.30212" lon="5.84014">
        <ele>1333.49</ele>
        <time>2015-02-22T16:10:24Z</time>
      </trkpt>
      <trkpt lat="45.30219" lon="5.84029">
        <ele>1329.16</ele>
        <time>2015-02-22T16:10:29Z</time>
      </trkpt>
      <trkpt lat="45.3022" lon="5.84029">
        <ele>1329.16</ele>
        <time>2015-02-22T16:10:30Z</time>
      </trkpt>
      <trkpt lat="45.3022" lon="5.8403">
        <ele>1330.12</ele>
        <time>2015-02-22T16:11:17Z</time>
      </trkpt>
      <trkpt lat="45.30215" lon="5.84036">
        <ele>1326.76</ele>
        <time>2015-02-22T16:11:21Z</time>
      </trkpt>
      <trkpt lat="45.30209" lon="5.8404">
        <ele>1326.76</ele>
        <time>2015-02-22T16:11:22Z</time>
      </trkpt>
      <trkpt lat="45.30199" lon="5.84047">
        <ele>1323.39</ele>
        <time>2015-02-22T16:11:24Z</time>
      </trkpt>
      <trkpt lat="45.30196" lon="5.84049">
        <ele>1320.51</ele>
        <time>2015-02-22T16:11:27Z</time>
      </trkpt>
      <trkpt lat="45.30195" lon="5.84049">
        <ele>1320.03</ele>
        <time>2015-02-22T16:11:28Z</time>
      </trkpt>
      <trkpt lat="45.30197" lon="5.84062">
        <ele>1317.62</ele>
        <time>2015-02-22T16:11:44Z</time>
      </trkpt>
      <trkpt lat="45.30188" lon="5.84068">
        <ele>1316.66</ele>
        <time>2015-02-22T16:11:56Z</time>
      </trkpt>
      <trkpt lat="45.3018" lon="5.84071">
        <ele>1316.66</ele>
        <time>2015-02-22T16:12:45Z</time>
      </trkpt>
      <trkpt lat="45.30141" lon="5.84085">
        <ele>1313.3</ele>
        <time>2015-02-22T16:12:55Z</time>
      </trkpt>
      <trkpt lat="45.30102" lon="5.84092">
        <ele>1310.41</ele>
        <time>2015-02-22T16:13:01Z</time>
      </trkpt>
      <trkpt lat="45.30073" lon="5.84094">
        <ele>1307.05</ele>
        <time>2015-02-22T16:13:05Z</time>
      </trkpt>
      <trkpt lat="45.30044" lon="5.84096">
        <ele>1304.65</ele>
        <time>2015-02-22T16:13:09Z</time>
      </trkpt>
      <trkpt lat="45.30035" lon="5.84095">
        <ele>1303.69</ele>
        <time>2015-02-22T16:13:10Z</time>
      </trkpt>
      <trkpt lat="45.30012" lon="5.84096">
        <ele>1299.84</ele>
        <time>2015-02-22T16:13:15Z</time>
      </trkpt>
      <trkpt lat="45.30013" lon="5.84106">
        <ele>1295.51</ele>
        <time>2015-02-22T16:13:19Z</time>
      </trkpt>
      <trkpt lat="45.30012" lon="5.84108">
        <ele>1295.51</ele>
        <time>2015-02-22T16:13:20Z</time>
      </trkpt>
      <trkpt lat="45.30014" lon="5.84112">
        <ele>1291.67</ele>
        <time>2015-02-22T16:13:24Z</time>
      </trkpt>
      <trkpt lat="45.30022" lon="5.84134">
        <ele>1287.34</ele>
        <time>2015-02-22T16:13:30Z</time>
      </trkpt>
      <trkpt lat="45.30025" lon="5.84141">
        <ele>1287.34</ele>
        <time>2015-02-22T16:13:31Z</time>
      </trkpt>
      <trkpt lat="45.30033" lon="5.84165">
        <ele>1284.46</ele>
        <time>2015-02-22T16:13:34Z</time>
      </trkpt>
      <trkpt lat="45.30018" lon="5.84203">
        <ele>1279.65</ele>
        <time>2015-02-22T16:13:39Z</time>
      </trkpt>
      <trkpt lat="45.30002" lon="5.84215">
        <ele>1278.21</ele>
        <time>2015-02-22T16:13:42Z</time>
      </trkpt>
      <trkpt lat="45.29978" lon="5.84232">
        <ele>1274.36</ele>
        <time>2015-02-22T16:13:46Z</time>
      </trkpt>
      <trkpt lat="45.29959" lon="5.84249">
        <ele>1271</ele>
        <time>2015-02-22T16:13:49Z</time>
      </trkpt>
      <trkpt lat="45.29938" lon="5.84269">
        <ele>1268.12</ele>
        <time>2015-02-22T16:13:52Z</time>
      </trkpt>
      <trkpt lat="45.29931" lon="5.84276">
        <ele>1268.12</ele>
        <time>2015-02-22T16:13:53Z</time>
      </trkpt>
      <trkpt lat="45.29911" lon="5.84299">
        <ele>1264.75</ele>
        <time>2015-02-22T16:13:56Z</time>
      </trkpt>
      <trkpt lat="45.29889" lon="5.84321">
        <ele>1261.39</ele>
        <time>2015-02-22T16:13:59Z</time>
      </trkpt>
      <trkpt lat="45.29861" lon="5.84347">
        <ele>1257.54</ele>
        <time>2015-02-22T16:14:03Z</time>
      </trkpt>
      <trkpt lat="45.29854" lon="5.84353">
        <ele>1257.54</ele>
        <time>2015-02-22T16:14:04Z</time>
      </trkpt>
      <trkpt lat="45.29826" lon="5.84376">
        <ele>1253.7</ele>
        <time>2015-02-22T16:14:08Z</time>
      </trkpt>
      <trkpt lat="45.29808" lon="5.84395">
        <ele>1249.85</ele>
        <time>2015-02-22T16:14:11Z</time>
      </trkpt>
      <trkpt lat="45.29803" lon="5.84399">
        <ele>1248.89</ele>
        <time>2015-02-22T16:14:12Z</time>
      </trkpt>
      <trkpt lat="45.29793" lon="5.84402">
        <ele>1246.97</ele>
        <time>2015-02-22T16:14:15Z</time>
      </trkpt>
      <trkpt lat="45.2977" lon="5.84414">
        <ele>1244.08</ele>
        <time>2015-02-22T16:14:25Z</time>
      </trkpt>
      <trkpt lat="45.29745" lon="5.84439">
        <ele>1241.2</ele>
        <time>2015-02-22T16:14:33Z</time>
      </trkpt>
      <trkpt lat="45.29718" lon="5.8447">
        <ele>1237.83</ele>
        <time>2015-02-22T16:14:40Z</time>
      </trkpt>
      <trkpt lat="45.29699" lon="5.84488">
        <ele>1234.95</ele>
        <time>2015-02-22T16:14:44Z</time>
      </trkpt>
      <trkpt lat="45.29685" lon="5.84495">
        <ele>1233.51</ele>
        <time>2015-02-22T16:14:47Z</time>
      </trkpt>
      <trkpt lat="45.29675" lon="5.845">
        <ele>1232.07</ele>
        <time>2015-02-22T16:14:49Z</time>
      </trkpt>
      <trkpt lat="45.29659" lon="5.84517">
        <ele>1228.7</ele>
        <time>2015-02-22T16:14:58Z</time>
      </trkpt>
      <trkpt lat="45.29658" lon="5.84519">
        <ele>1227.74</ele>
        <time>2015-02-22T16:15:28Z</time>
      </trkpt>
      <trkpt lat="45.29658" lon="5.8452">
        <ele>1227.26</ele>
        <time>2015-02-22T16:15:55Z</time>
      </trkpt>
      <trkpt lat="45.29657" lon="5.84524">
        <ele>1228.22</ele>
        <time>2015-02-22T16:19:11Z</time>
      </trkpt>
      <trkpt lat="45.29653" lon="5.84525">
        <ele>1229.18</ele>
        <time>2015-02-22T16:20:04Z</time>
      </trkpt>
    </trkseg>
  </trk>
</gpx>